Date StartTime U_cm/s V_cm/s W_cm/s Ustd_cm/s Vstd_cm/s Wstd_cm/s Uvar_(cm/s)^2 Vvar_(cm/s)^2 Wvar_(cm/s)^2 KE_(m/s)^2 TurbulentKE_(m/s)^2 HorizWindSpeed_cm/s FrictionSpeec_cm/s DragCoef SpeedOfSound_m/s SonicTemperature_C Pressure_mb 
03/03/2014  00:00:00     -124.184      -26.317       -9.729       65.333       41.330       21.018     4268.430     1708.186      441.773        1.131        0.321      126.942       22.682        0.032      336.602        8.014      861.654
03/03/2014  00:01:00     -202.377        8.166      -20.425       48.557       50.443       26.499     2357.830     2544.535      702.180        2.352        0.280      202.542       23.023        0.013      336.339        7.573      861.698
03/03/2014  00:02:00      -79.986        1.106       -1.733       41.406       33.510       28.825     1714.466     1122.897      830.854        0.503        0.183       79.993       24.350        0.093      336.402        7.680      861.706
03/03/2014  00:03:00     -125.613       14.418       -5.789       25.384       25.881       15.632      644.359      669.819      244.356        0.879        0.078      126.437       13.290        0.011      336.341        7.578      861.704
03/03/2014  00:04:00      -98.566       15.432       -8.127       34.962       14.184       10.668     1222.318      201.178      113.810        0.578        0.077       99.767        9.793        0.010      336.352        7.596      861.702
03/03/2014  00:05:00      -19.467      -25.106       -0.050       55.197       27.944       16.879     3046.703      780.862      284.904        0.256        0.206       31.769       21.711        0.467      336.385        7.653      861.662
03/03/2014  00:06:00      -57.174      -38.615        2.819       22.573       25.714       21.112      509.559      661.215      445.709        0.319        0.081       68.993       15.457        0.050      336.360        7.610      861.660
03/03/2014  00:07:00      -12.138      -36.440        4.148       33.598       19.772       14.186     1128.803      390.948      201.245        0.161        0.086       38.408       11.065        0.083      336.356        7.602      861.657
03/03/2014  00:08:00      -23.772      -11.962       22.590       34.790       49.458       29.354     1210.319     2446.134      861.643        0.287        0.226       26.612       26.438        0.987      336.316        7.537      861.637
03/03/2014  00:09:00       10.837        8.307       51.489       33.458       37.594       30.159     1119.436     1413.330      909.591        0.314        0.172       13.654       24.890        3.323      336.215        7.367      861.591
03/03/2014  00:10:00       21.586      -48.076       10.098       36.525       55.823       39.226     1334.042     3116.234     1538.657        0.443        0.299       52.699       38.929        0.546      336.368        7.623      861.584
03/03/2014  00:11:00        9.345      -19.569       -8.776       26.740       44.323       26.177      715.012     1964.512      685.241        0.196        0.168       21.686       25.936        1.430      336.485        7.819      861.619
03/03/2014  00:12:00       -6.742      -54.115       14.771       23.459       25.542       25.958      550.342      652.417      673.840        0.253        0.094       54.533       19.961        0.134      336.551        7.929      861.621
03/03/2014  00:13:00      -18.715      -27.898        2.217       22.807       20.937       22.520      520.172      438.374      507.162        0.130        0.073       33.594       13.745        0.167      336.506        7.853      861.654
03/03/2014  00:14:00       -9.332      -19.516       -2.274       23.449       16.086       13.240      549.851      258.752      175.299        0.073        0.049       21.632        6.428        0.088      336.508        7.857      861.674
03/03/2014  00:15:00       65.216      -28.825       10.983       72.994       40.759       26.754     5328.140     1661.262      715.754        0.645        0.385       71.302       29.734        0.174      336.517        7.873      861.672
03/03/2014  00:16:00        8.880      -38.500        9.169       39.627       52.019       29.672     1570.294     2705.976      880.405        0.340        0.258       39.511       31.211        0.624      336.512        7.864      861.672
03/03/2014  00:17:00       -6.605      -86.634       12.817       29.568       47.564       38.173      874.283     2262.342     1457.206        0.615        0.230       86.886       23.784        0.075      336.415        7.702      861.687
03/03/2014  00:18:00       39.326      -84.927        2.795       47.040       43.843       45.941     2212.802     1922.168     2110.578        0.751        0.312       93.590       19.828        0.045      336.470        7.794      861.694
03/03/2014  00:19:00      -55.032       -2.772      -19.922       23.386       19.832       28.815      546.888      393.323      830.286        0.260        0.089       55.101       19.498        0.125      336.194        7.331      861.732
03/03/2014  00:20:00      -38.981      -24.452       10.059       32.484       42.508       25.491     1055.179     1806.917      649.805        0.286        0.176       46.015       15.224        0.109      336.295        7.501      861.771
03/03/2014  00:21:00      -53.764       -5.919       -1.290       37.339       29.725       24.161     1394.194      883.601      583.770        0.289        0.143       54.089       17.367        0.103      336.116        7.200      861.818
03/03/2014  00:22:00     -179.288     -128.869       -4.946       86.457       71.953       42.807     7474.811     5177.296     1832.429        3.163        0.724      220.797       37.146        0.028      335.901        6.841      861.827
03/03/2014  00:23:00     -162.191     -118.529       -4.970       55.129       32.280       27.716     3039.191     1041.977      768.169        2.261        0.242      200.885       24.160        0.014      336.028        7.052      861.832
03/03/2014  00:24:00      -80.198     -132.770       -5.779       60.593       64.717       35.017     3671.549     4188.344     1226.209        1.659        0.454      155.112       37.767        0.059      336.156        7.267      861.851
03/03/2014  00:25:00      -52.738      -70.472       -3.242       46.267       42.412       29.902     2140.600     1798.810      894.113        0.630        0.242       88.021       12.465        0.020      336.274        7.465      861.849
03/03/2014  00:26:00      -33.092      -12.206        2.539       44.787       30.478       24.364     2005.847      928.902      593.601        0.239        0.176       35.271       14.238        0.163      336.039        7.072      861.857
03/03/2014  00:27:00      -25.266      -68.747       -9.389       36.795       34.684       22.249     1353.862     1203.008      495.006        0.425        0.153       73.243       19.461        0.071      336.177        7.304      861.847
03/03/2014  00:28:00      -32.019      -96.581       -6.805       42.436       69.410       29.965     1800.831     4817.679      897.917        0.896        0.376      101.750       12.736        0.016      336.180        7.309      861.840
03/03/2014  00:29:00     -120.588     -159.392      -20.047       78.249      102.259       45.350     6122.895    10456.847     2056.639        2.949        0.932      199.868       30.164        0.023      336.172        7.292      861.860
03/03/2014  00:30:00      -52.518      -44.231        5.005       61.560       48.072       26.073     3789.649     2310.948      679.799        0.576        0.339       68.662       24.403        0.126      336.208        7.355      861.842
03/03/2014  00:31:00       65.050     -109.681       12.151       72.499       84.724       49.232     5256.091     7178.158     2423.783        1.563        0.743      127.520       42.871        0.113      336.535        7.902      861.849
03/03/2014  00:32:00       10.242       -4.582       18.956       48.158       37.023       34.602     2319.150     1370.723     1197.330        0.269        0.244       11.220       24.627        4.817      336.286        7.486      861.843
03/03/2014  00:33:00        7.526      -16.888       39.786       30.555       49.060       25.929      933.619     2406.865      672.297        0.297        0.201       18.489       26.333        2.029      336.251        7.427      861.862
03/03/2014  00:34:00       40.498      -78.758       -5.229       50.670       55.168       48.601     2567.440     3043.526     2362.095        0.792        0.399       88.561       41.389        0.218      336.216        7.368      861.884
03/03/2014  00:35:00       16.556       22.585       46.878       49.308       84.514       65.425     2431.281     7142.688     4280.390        0.842        0.693       28.003       65.945        5.546      336.148        7.256      861.890
03/03/2014  00:36:00       14.995      -58.044        8.284       46.760       37.242       24.775     2186.517     1386.988      613.794        0.392        0.209       59.949       17.152        0.082      336.217        7.370      861.933
03/03/2014  00:37:00      -38.601      -93.929        7.991       36.030       53.874       32.890     1298.180     2902.374     1081.775        0.783        0.264      101.552       24.509        0.058      336.174        7.299      861.963
03/03/2014  00:38:00       20.785        6.054       38.169       36.365       49.147       34.284     1322.429     2415.440     1175.407        0.342        0.246       21.649       27.464        1.609      335.962        6.945      861.948
03/03/2014  00:39:00      -10.804      -40.504       38.247       33.726       75.874       42.579     1137.462     5756.930     1812.948        0.596        0.435       41.920       47.533        1.286      335.928        6.887      861.951
03/03/2014  00:40:00      -20.269      -46.273       -1.371       37.841       52.337       36.674     1431.976     2739.208     1344.949        0.403        0.276       50.517       38.247        0.573      335.968        6.954      862.010
03/03/2014  00:41:00       78.288     -105.840      -11.783       81.329      100.168       53.946     6614.424    10033.667     2910.154        1.851        0.978      131.648       60.007        0.208      335.980        6.972      862.031
03/03/2014  00:42:00      117.361     -172.838      -22.306       82.240       67.459       38.605     6763.494     4550.711     1490.315        2.847        0.640      208.917       30.186        0.021      336.014        7.030      862.059
03/03/2014  00:43:00       12.308     -169.561       -7.575      100.818      115.508       63.387    10164.338    13342.171     4017.868        2.824        1.376      170.007       61.119        0.129      336.150        7.257      862.117
03/03/2014  00:44:00      111.092      -93.217      -15.872       90.829      103.400       74.958     8249.919    10691.656     5618.763        2.292        1.228      145.020       68.638        0.224      335.937        6.901      862.086
03/03/2014  00:45:00       13.539       21.255       96.448       60.403       97.882       55.578     3648.504     9580.807     3088.967        1.313        0.816       25.201       58.238        5.340      335.825        6.716      862.042
03/03/2014  00:46:00       69.525      -92.733       45.615       91.755      181.482       98.537     8418.889    32935.837     9709.495        3.328        2.553      115.901      111.374        0.923      336.123        7.213      862.051
03/03/2014  00:47:00       71.769       22.752      127.357      126.443      223.116      164.437    15987.782    49780.876    27039.493        5.733        4.640       75.289      184.810        6.025      337.000        8.676      862.085
03/03/2014  00:48:00       65.700      139.419      160.453      101.569       96.753       89.831    10316.234     9361.085     8069.589        3.862        1.387      154.124       78.474        0.259      336.829        8.391      862.143
03/03/2014  00:49:00       39.474      -87.715       17.832       62.686       74.038       60.149     3929.475     5481.599     3617.917        1.130        0.651       96.188       55.799        0.337      336.701        8.180      862.178
03/03/2014  00:50:00     -103.647      -52.965       -4.453       86.672       42.174       27.826     7512.109     1778.668      774.280        1.181        0.503      116.396       16.635        0.020      336.563        7.949      862.235
03/03/2014  00:51:00     -231.716      -38.330       -2.560      125.307       86.432       46.503    15701.890     7470.536     2162.533        4.025        1.267      234.864       46.526        0.039      335.949        6.921      862.235
03/03/2014  00:52:00     -125.365      -75.105        7.798       88.973       45.631       38.330     7916.158     2082.233     1469.152        1.644        0.573      146.141       45.899        0.099      335.981        6.975      862.234
03/03/2014  00:53:00     -157.610     -101.069        1.619       85.419       78.963       40.091     7296.428     6235.226     1607.282        2.510        0.757      187.231       43.160        0.053      336.027        7.051      862.205
03/03/2014  00:54:00     -133.262     -135.030        1.002       65.055       63.857       41.227     4232.179     4077.675     1699.647        2.300        0.500      189.715       38.329        0.041      335.952        6.927      862.161
03/03/2014  00:55:00      -55.161     -140.581        2.784       46.516       39.547       22.690     2163.748     1563.945      514.858        1.353        0.212      151.016       13.955        0.009      336.091        7.160      862.096
03/03/2014  00:56:00      -42.127      -64.950       -5.267       44.208       42.346       36.132     1954.350     1793.224     1305.533        0.554        0.253       77.415       11.360        0.022      336.129        7.223      862.047
03/03/2014  00:57:00      -52.873      -96.231        4.287       50.846       56.428       34.794     2585.323     3184.158     1210.641        0.953        0.349      109.800       35.370        0.104      336.169        7.291      862.013
03/03/2014  00:58:00      -21.906      -73.549      -10.179       58.382       50.655       37.430     3408.499     2565.948     1400.994        0.668        0.369       76.742       25.486        0.110      336.213        7.364      861.971
03/03/2014  00:59:00      -75.392      -91.086       -7.981       53.725       41.891       31.721     2886.414     1754.896     1006.217        0.985        0.282      118.240       24.906        0.044      336.143        7.247      861.981
03/03/2014  01:00:00      -59.190     -102.033      -13.317       59.496       34.066       28.320     3539.779     1160.493      802.009        0.980        0.275      117.959       20.585        0.030      336.023        7.044      861.983
03/03/2014  01:01:00      -82.570      -87.616      -10.451       43.423       42.804       27.583     1885.532     1832.168      760.818        0.954        0.224      120.393       11.304        0.009      335.885        6.817      861.998
03/03/2014  01:02:00      -74.759     -105.924        0.696       36.327       46.123       27.822     1319.679     2127.355      774.079        1.051        0.211      129.649       22.196        0.029      335.985        6.983      862.018
03/03/2014  01:03:00      -36.817      -32.602        8.091       35.208       34.886       17.930     1239.586     1217.017      321.495        0.263        0.139       49.177       19.468        0.157      335.884        6.816      862.056
03/03/2014  01:04:00      -24.024      -33.621       12.931       29.231       22.717       22.386      854.427      516.074      501.136        0.187        0.094       41.322       15.460        0.140      335.863        6.780      862.105
03/03/2014  01:05:00      -33.076      -24.319        5.716       26.147       26.679       16.769      683.689      711.744      281.193        0.170        0.084       41.054       13.196        0.103      335.790        6.660      862.140
03/03/2014  01:06:00      -15.156      -18.630        3.665       30.934       25.334       20.730      956.901      641.809      429.718        0.131        0.101       24.017       15.235        0.402      335.749        6.591      862.136
03/03/2014  01:07:00      -13.649        2.796        0.731       23.496       22.603       15.794      552.056      510.887      249.436        0.075        0.066       13.932        6.473        0.216      335.691        6.495      862.124
03/03/2014  01:08:00      -30.845       13.966        7.293       13.357       19.269       11.293      178.411      371.276      127.523        0.094        0.034       33.859        9.698        0.082      335.687        6.489      862.129
03/03/2014  01:09:00      -29.914       24.193        4.575       18.743       16.304       15.948      351.299      265.815      254.343        0.119        0.044       38.473       10.226        0.071      335.614        6.367      862.165
03/03/2014  01:10:00        3.149       25.838       13.909       15.106       13.065       15.010      228.180      170.685      225.294        0.075        0.031       26.030       11.096        0.182      335.659        6.439      862.185
03/03/2014  01:11:00       30.588       18.028        7.114       17.823       18.167       15.249      317.655      330.029      232.517        0.110        0.044       35.505       12.476        0.123      335.715        6.535      862.192
03/03/2014  01:12:00       29.497       27.541       -4.773       12.425       13.342       10.727      154.380      177.996      115.075        0.105        0.022       40.356        7.572        0.035      335.709        6.525      862.210
03/03/2014  01:13:00        8.368       39.295       -1.292       10.062       15.306        8.083      101.252      234.270       65.331        0.101        0.020       40.176        7.034        0.031      335.798        6.671      862.245
03/03/2014  01:14:00       51.325       31.191       -4.892       25.347       26.556       12.913      642.453      705.239      166.741        0.257        0.076       60.059       11.556        0.037      335.708        6.523      862.260
03/03/2014  01:15:00       65.560       39.129       15.173       37.718       31.850       24.634     1422.658     1014.434      606.830        0.455        0.152       76.349       17.118        0.050      335.583        6.313      862.278
03/03/2014  01:16:00       20.297       23.456       -1.000       28.456       29.592       17.373      809.733      875.697      301.805        0.147        0.099       31.018        9.545        0.095      335.393        5.996      862.317
03/03/2014  01:17:00       38.946       71.546       -3.001       23.006       36.341       24.868      529.293     1320.693      618.401        0.456        0.123       81.459       23.974        0.087      335.341        5.911      862.350
03/03/2014  01:18:00       39.234       69.951        9.316       41.831       41.325       36.439     1749.834     1707.717     1327.816        0.565        0.239       80.203       27.358        0.116      335.359        5.940      862.349
03/03/2014  01:19:00       38.758       67.930       -5.008       40.710       58.138       29.958     1657.271     3380.026      897.471        0.604        0.297       78.209       30.981        0.157      335.370        5.959      862.363
03/03/2014  01:20:00       33.257       68.610       -7.764       28.064       41.128       21.560      787.590     1691.532      464.832        0.441        0.147       76.245       17.753        0.054      335.376        5.968      862.365
03/03/2014  01:21:00       33.354       40.719       -4.521       17.146       31.491       21.719      293.969      991.692      471.731        0.227        0.088       52.636       16.549        0.099      335.351        5.928      862.363
03/03/2014  01:22:00       78.950       61.998        8.668       33.986       20.334       21.755     1155.044      413.464      473.269        0.610        0.102      100.383       10.495        0.011      335.330        5.892      862.340
03/03/2014  01:23:00      123.481       80.187       12.974       29.413       24.106       24.992      865.137      581.104      624.584        1.196        0.104      147.233       10.993        0.006      335.264        5.782      862.271
03/03/2014  01:24:00       66.072       47.632        9.056       38.507       26.781       23.515     1482.774      717.205      552.933        0.473        0.138       81.451       15.694        0.037      335.222        5.711      862.219
03/03/2014  01:25:00       50.674       58.076        4.608       25.917       29.704       24.243      671.702      882.344      587.739        0.405        0.107       77.076       10.163        0.017      335.627        6.388      862.194
03/03/2014  01:26:00        8.094       15.370       11.464       13.504       12.794        8.808      182.368      163.676       77.580        0.043        0.021       17.370        5.647        0.106      335.802        6.678      862.167
03/03/2014  01:27:00       32.060       14.828       15.638       16.621       13.636       16.564      276.244      185.946      274.363        0.111        0.037       35.323        8.137        0.053      335.607        6.354      862.127
03/03/2014  01:28:00       -6.573       -9.800        4.123       25.947       17.376        9.703      673.259      301.932       94.143        0.061        0.053       11.800        6.978        0.350      335.527        6.219      862.087
03/03/2014  01:29:00      -38.525      -21.297       -9.478       23.747       10.979        7.059      563.928      120.533       49.825        0.138        0.037       44.019        7.216        0.027      335.335        5.899      862.075
03/03/2014  01:30:00       64.848       37.285       16.899       44.238       40.155       12.701     1957.042     1612.452      161.308        0.481        0.187       74.803       17.045        0.052      335.410        6.025      862.059
03/03/2014  01:31:00      127.609       82.117       32.829       38.887       30.272       40.553     1512.231      916.400     1644.517        1.409        0.204      151.748       35.187        0.054      335.585        6.315      862.023
03/03/2014  01:32:00       48.346       55.996       29.481       46.182       20.392       21.608     2132.813      415.820      466.885        0.468        0.151       73.979       22.852        0.095      335.589        6.324      862.032
03/03/2014  01:33:00        7.883        5.346        9.359       16.261       12.379       14.367      264.410      153.240      206.425        0.040        0.031        9.525        7.363        0.598      335.597        6.338      862.066
03/03/2014  01:34:00      -38.804       15.364       -5.641       15.620       13.637       10.658      243.982      185.979      113.584        0.116        0.027       41.735        8.767        0.044      335.524        6.215      862.104
03/03/2014  01:35:00       33.723       47.609       12.638       38.906       23.883       12.889     1513.666      570.392      166.123        0.291        0.113       58.342        8.941        0.023      335.522        6.213      862.123
03/03/2014  01:36:00       62.816       54.233        5.815       37.305       31.131       21.858     1391.660      969.163      477.784        0.488        0.142       82.989       21.011        0.064      335.466        6.118      862.133
03/03/2014  01:37:00       67.320       18.655        0.546       40.887       28.374       24.899     1671.713      805.108      619.969        0.399        0.155       69.857        6.406        0.008      335.396        6.002      862.154
03/03/2014  01:38:00       91.995       39.869        8.120       42.336       23.125       19.960     1792.337      534.758      398.407        0.642        0.136      100.263       18.491        0.034      335.262        5.779      862.176
03/03/2014  01:39:00       39.841       70.913      -10.513       31.626       26.861       19.035     1000.182      721.528      362.329        0.440        0.104       81.339       16.316        0.040      335.361        5.943      862.182
03/03/2014  01:40:00      -13.073      113.116      -22.440       16.313       17.710        8.458      266.112      313.628       71.536        0.706        0.033      113.868        8.146        0.005      335.476        6.134      862.186
03/03/2014  01:41:00        6.959      141.979      -20.120       15.780       23.111        9.929      249.023      534.136       98.578        1.075        0.044      142.149        6.165        0.002      335.531        6.228      862.171
03/03/2014  01:42:00       31.461      102.279      -17.484       21.108       36.979       18.494      445.562     1367.412      342.026        0.696        0.108      107.008       19.583        0.033      335.432        6.062      862.164
03/03/2014  01:43:00       34.123       92.220      -14.151       25.907       31.309       24.776      671.150      980.242      613.852        0.607        0.113       98.330       18.225        0.034      335.354        5.930      862.162
03/03/2014  01:44:00       28.888       94.999      -16.268       26.051       33.773       23.117      678.672     1140.616      534.404        0.624        0.118       99.294       21.350        0.046      335.305        5.850      862.167
03/03/2014  01:45:00       25.468       76.033      -13.692       20.364       44.707       21.858      414.685     1998.718      477.784        0.475        0.145       80.185       21.283        0.070      335.232        5.729      862.190
03/03/2014  01:46:00       67.103       45.736       -2.078       23.095       13.859       16.066      533.358      192.073      258.109        0.379        0.049       81.207       11.807        0.021      335.255        5.765      862.226
03/03/2014  01:47:00       97.338       42.097       17.698       22.054       17.916       20.471      486.358      320.976      419.073        0.639        0.061      106.052       15.346        0.021      335.235        5.733      862.216
03/03/2014  01:48:00       61.744       19.786       12.377       26.358       26.132       20.451      694.733      682.875      418.257        0.308        0.090       64.837       15.666        0.058      335.157        5.605      862.215
03/03/2014  01:49:00       20.112       64.399      -10.157       24.368       29.291        8.514      593.815      857.972       72.496        0.309        0.076       67.466       11.816        0.031      335.166        5.620      862.215
03/03/2014  01:50:00       45.463      121.455      -20.272       21.843       36.871       15.433      477.098     1359.470      238.179        0.965        0.104      129.685       19.765        0.023      335.361        5.943      862.188
03/03/2014  01:51:00       52.587       87.549       -2.862       37.988       42.767       31.899     1443.055     1828.985     1017.564        0.736        0.214      102.128       30.536        0.089      335.417        6.036      862.155
03/03/2014  01:52:00       60.686       80.769      -12.831       25.161       31.712       23.837      633.082     1005.626      568.196        0.629        0.110      101.027       20.581        0.041      335.588        6.321      862.137
03/03/2014  01:53:00        4.872       53.798      -12.995       23.186       26.275        6.415      537.583      690.380       41.158        0.218        0.063       54.018        7.517        0.019      335.749        6.590      862.120
03/03/2014  01:54:00      -43.773        9.218        1.891       19.930       18.962       18.775      397.187      359.543      352.501        0.156        0.055       44.733        8.408        0.035      335.698        6.506      862.125
03/03/2014  01:55:00      -35.848      -32.903        1.150       30.927       20.145       11.929      956.463      405.817      142.302        0.194        0.075       48.659       11.860        0.059      335.542        6.245      862.137
03/03/2014  01:56:00      -22.418      -12.317        3.316       24.790       14.642       13.328      614.557      214.379      177.630        0.084        0.050       25.578       10.907        0.182      335.433        6.062      862.151
03/03/2014  01:57:00      -78.846       35.407      -17.633       29.559       32.011       21.480      873.718     1024.720      461.411        0.507        0.118       86.431       15.731        0.033      335.816        6.701      862.158
03/03/2014  01:58:00      -11.934       51.473      -12.328       35.399       27.880       17.033     1253.078      777.272      290.120        0.263        0.116       52.838        8.410        0.025      335.887        6.821      862.147
03/03/2014  01:59:00       10.677       80.488      -10.425       19.025       26.976       14.007      361.944      727.704      196.192        0.399        0.064       81.193       11.794        0.021      335.656        6.435      862.135
03/03/2014  02:00:00       61.125       49.166        0.984       39.425       29.789       20.358     1554.365      887.368      414.437        0.450        0.143       78.445       23.513        0.090      335.686        6.485      862.101
03/03/2014  02:01:00      -85.953      -31.216        5.809       97.597       50.639       27.208     9525.186     2564.324      740.260        1.061        0.641       91.446       42.144        0.212      335.528        6.220      862.051
03/03/2014  02:02:00      -46.047       38.135      -16.080       59.609       54.979       24.084     3553.253     3022.693      580.021        0.549        0.358       59.788       30.720        0.264      336.104        7.181      862.053
03/03/2014  02:03:00      -22.697      130.955      -10.163       36.962       58.470       27.093     1366.190     3418.793      734.009        1.164        0.276      132.907       25.967        0.038      336.415        7.701      862.058
03/03/2014  02:04:00       -3.032       76.152       -7.417       29.858       27.584       14.977      891.504      760.853      224.311        0.387        0.094       76.212       17.302        0.052      336.199        7.341      862.045
03/03/2014  02:05:00      -71.233       66.429       -8.401       26.688       39.499       19.968      712.258     1560.179      398.710        0.611        0.134       97.401       22.740        0.055      336.017        7.036      862.070
03/03/2014  02:06:00      -77.835      106.172      -13.253       30.237       55.802       24.528      914.292     3113.889      601.633        1.107        0.231      131.646       23.952        0.033      336.606        8.021      862.077
03/03/2014  02:07:00      -81.795      -63.757       -5.757       95.352       65.339       30.016     9092.044     4269.216      900.954        1.252        0.713      103.708       19.314        0.035      335.795        6.667      862.087
03/03/2014  02:08:00      -22.559      -11.864        2.998       40.743       69.000       25.495     1659.969     4760.965      649.979        0.386        0.354       25.488       14.916        0.342      335.639        6.408      862.060
03/03/2014  02:09:00       -8.633       40.242        8.296       22.047       30.585       21.119      486.056      935.431      446.032        0.181        0.093       41.158       16.991        0.170      335.786        6.652      862.015
03/03/2014  02:10:00      -42.540      -33.111        7.719       50.169       41.279       26.108     2516.968     1703.948      681.621        0.393        0.245       53.907       18.200        0.114      336.340        7.576      861.992
03/03/2014  02:11:00      -46.187      -27.106       -7.786       21.391       20.177       15.658      457.582      407.114      245.174        0.202        0.055       53.553       12.152        0.051      335.734        6.564      861.978
03/03/2014  02:12:00     -119.627      -46.816      -11.187       27.510       28.322       18.904      756.815      802.124      357.365        0.927        0.096      128.462       12.515        0.009      335.657        6.438      861.976
03/03/2014  02:13:00     -131.548      -65.477       -9.677       27.707       25.219       14.014      767.703      636.012      196.394        1.164        0.080      146.943        3.125        0.000      335.495        6.167      861.996
03/03/2014  02:14:00     -147.067      -55.393       -9.566       38.999       27.306       20.339     1520.903      745.604      413.676        1.373        0.134      157.153       21.958        0.020      335.459        6.107      862.000
03/03/2014  02:15:00      -42.349      -40.467        6.985       43.374       39.458       22.693     1881.343     1556.908      514.959        0.372        0.198       58.575       21.358        0.133      335.479        6.140      861.992
03/03/2014  02:16:00      -38.844      -66.743       11.830       45.570       40.752       28.899     2076.605     1660.711      835.143        0.534        0.229       77.224       33.845        0.192      335.530        6.225      861.990
03/03/2014  02:17:00      -21.885      -83.917       -8.473       17.502       38.831       18.183      306.315     1507.883      330.632        0.487        0.107       86.724       11.138        0.016      335.516        6.203      861.982
03/03/2014  02:18:00      -39.945      -48.555      -13.445       21.735       30.430       11.603      472.423      925.982      134.636        0.283        0.077       62.874       12.328        0.038      335.597        6.337      861.966
03/03/2014  02:19:00      -71.116      -70.143       -4.900       17.535       14.161       12.740      307.477      200.532      162.314        0.534        0.034       99.887       12.346        0.015      335.567        6.286      861.963
03/03/2014  02:20:00      -25.140      -22.363       10.338       53.099       38.389       22.204     2819.501     1473.728      493.000        0.301        0.239       33.647       26.774        0.633      335.517        6.205      861.962
03/03/2014  02:21:00        1.049      -60.173       20.528       24.370       42.875       18.563      593.918     1838.288      344.573        0.341        0.139       60.182       20.801        0.119      335.586        6.319      861.966
03/03/2014  02:22:00      -34.587      -21.688       24.315       47.020       58.993       32.518     2210.846     3480.228     1057.422        0.450        0.337       40.824       30.310        0.551      335.610        6.359      861.941
03/03/2014  02:23:00       -4.109       33.402       30.789       19.857       30.851       27.621      394.281      951.764      762.905        0.209        0.105       33.654       12.876        0.146      335.383        5.980      861.966
03/03/2014  02:24:00      -28.318        9.551        1.018       20.021       11.360       10.884      400.826      129.043      118.469        0.077        0.032       29.886        7.425        0.062      335.441        6.075      862.011
03/03/2014  02:25:00      -39.863      -25.305        3.271       25.069       22.712       12.977      628.467      515.815      168.409        0.178        0.066       47.216       14.148        0.090      335.531        6.227      862.042
03/03/2014  02:26:00        0.882       16.147       16.279       24.238       15.915       17.211      587.494      253.298      296.208        0.083        0.057       16.171       17.746        1.204      335.384        5.979      862.062
03/03/2014  02:27:00       55.611       43.887       -4.213       20.091       22.935       17.728      403.639      526.035      314.275        0.314        0.062       70.842       10.782        0.023      335.461        6.110      862.084
03/03/2014  02:28:00      105.024      107.526       81.523       75.838       65.823       68.612     5751.367     4332.708     4707.634        2.201        0.740      150.306       52.928        0.124      335.125        5.549      862.078
03/03/2014  02:29:00      143.827      152.957      128.734       94.343       69.729       59.253     8900.613     4862.067     3510.896        3.896        0.864      209.957       44.817        0.046      334.882        5.143      862.004
03/03/2014  02:30:00      145.936       99.752       74.173       98.122       66.182       63.952     9627.859     4380.025     4089.860        2.742        0.905      176.770       63.872        0.131      335.047        5.421      861.960
03/03/2014  02:31:00      116.006       75.780       11.886       37.429       31.639       35.194     1400.959     1001.004     1238.586        1.149        0.182      138.564       17.539        0.016      335.020        5.379      861.971
03/03/2014  02:32:00       91.699       -3.915       37.045       44.469       29.844       30.598     1977.501      890.659      936.248        0.680        0.190       91.783       23.076        0.063      335.074        5.467      861.944
03/03/2014  02:33:00       72.594      -54.555       21.989       45.679       87.752       45.967     2086.561     7700.451     2112.924        1.031        0.595       90.809       60.533        0.444      335.096        5.503      861.902
03/03/2014  02:34:00      107.297     -171.704      -28.959       83.381       54.206       38.491     6952.388     2938.252     1481.548        2.660        0.569      202.472       39.726        0.038      335.504        6.179      861.901
03/03/2014  02:35:00       33.305     -103.523       -6.050       51.292       52.082       42.974     2630.915     2712.489     1846.732        0.953        0.360      108.749       14.381        0.017      335.497        6.169      861.914
03/03/2014  02:36:00      110.414      -46.464       31.480       33.691       63.166       37.340     1135.055     3989.988     1394.288        1.093        0.326      119.793       40.218        0.113      335.727        6.552      861.911
03/03/2014  02:37:00      115.355       28.440       58.969       61.269       87.166       61.909     3753.834     7597.894     3832.773        1.639        0.759      118.809       65.114        0.300      335.575        6.299      861.874
03/03/2014  02:38:00       89.939       94.412       71.736       54.801       54.699       52.198     3003.151     2991.978     2724.595        1.543        0.436      130.394       37.731        0.084      335.616        6.368      861.840
03/03/2014  02:39:00       32.656       28.051       30.983       32.824       40.066       22.754     1077.408     1605.286      517.756        0.301        0.160       43.050       14.810        0.118      335.517        6.203      861.850
03/03/2014  02:40:00      102.652       63.626       22.816       34.251       26.860       21.991     1173.112      721.437      483.582        0.874        0.119      120.772       16.075        0.018      335.550        6.258      861.821
03/03/2014  02:41:00       73.576       47.722        8.058       17.034       13.441       15.192      290.158      180.668      230.782        0.423        0.035       87.697        9.516        0.012      335.557        6.270      861.789
03/03/2014  02:42:00       70.282       41.615        9.571       28.716       24.906       16.711      824.621      620.321      279.266        0.424        0.086       81.678       10.554        0.017      335.558        6.272      861.774
03/03/2014  02:43:00       84.641       69.226       17.880       39.836       19.175       23.613     1586.939      367.699      557.574        0.739        0.126      109.345       14.981        0.019      335.598        6.340      861.755
03/03/2014  02:44:00       70.187       66.100        2.135       31.894       23.787       21.262     1017.250      565.834      452.057        0.567        0.102       96.413       15.056        0.024      335.518        6.205      861.729
03/03/2014  02:45:00       58.564       36.247       -3.838       20.923       19.519       15.319      437.788      380.982      234.664        0.291        0.053       68.874       12.667        0.034      335.523        6.213      861.704
03/03/2014  02:46:00       23.267        5.907        0.892       22.659       15.593       13.074      513.452      243.127      170.927        0.075        0.046       24.006       11.315        0.222      335.624        6.380      861.682
03/03/2014  02:47:00       51.539       27.411        8.381       14.984       25.318        9.557      224.528      641.010       91.327        0.222        0.048       58.375        9.110        0.024      335.773        6.630      861.652
03/03/2014  02:48:00       62.782       59.165       -1.301       27.752       24.909       21.066      770.195      620.467      443.761        0.464        0.092       86.268       14.241        0.027      335.709        6.522      861.634
03/03/2014  02:49:00       61.382       71.901       -0.056       31.039       34.219       25.898      963.448     1170.909      670.726        0.587        0.140       94.539       21.692        0.053      335.705        6.518      861.609
03/03/2014  02:50:00       60.592       22.276       11.711       37.850       27.505       24.462     1432.645      756.535      598.395        0.355        0.139       64.557       19.026        0.087      335.559        6.275      861.603
03/03/2014  02:51:00      100.580       34.969       19.155       67.276       42.616       31.842     4526.041     1816.112     1013.913        0.953        0.368      106.485       27.043        0.064      335.740        6.575      861.612
03/03/2014  02:52:00        9.218       17.755       44.117       22.857       43.514       25.753      522.421     1893.484      663.204        0.271        0.154       20.005       28.962        2.096      335.670        6.459      861.645
03/03/2014  02:53:00      -16.160       93.308      116.076       14.890       41.602       36.356      221.720     1730.740     1321.745        1.286        0.164       94.697       34.478        0.133      335.738        6.572      861.649
03/03/2014  02:54:00       55.417       24.990      104.074       93.254      138.619       86.295     8696.289    19215.350     7446.864        2.494        1.768       60.791      102.550        2.846      335.153        5.597      861.620
03/03/2014  02:55:00      109.358      -93.042       20.390       99.721      144.895       95.959     9944.223    20994.614     9208.055        3.058        2.007      143.583      110.239        0.589      335.033        5.398      861.604
03/03/2014  02:56:00       44.885      141.467      170.261       63.888       96.843       46.090     4081.654     9378.573     2124.256        3.330        0.779      148.417       51.332        0.120      335.082        5.478      861.569
03/03/2014  02:57:00       31.096       14.915       47.593       67.627      107.178       60.045     4573.454    11487.064     3605.458        1.156        0.983       34.488       74.076        4.613      335.430        6.057      861.573
03/03/2014  02:58:00        6.615      -39.171       -1.725       37.000       52.714       31.957     1368.991     2778.723     1021.281        0.337        0.258       39.726       32.126        0.654      335.401        6.009      861.621
03/03/2014  02:59:00     -167.386     -137.223      -14.449       79.508       78.674       29.387     6321.513     6189.521      863.607        3.021        0.669      216.444       30.965        0.020      335.122        5.543      861.605
03/03/2014  03:00:00     -103.342      -97.962       -2.192       55.128       53.427       32.660     3039.125     2854.479     1066.680        1.362        0.348      142.394       26.331        0.034      335.075        5.470      861.574
03/03/2014  03:01:00      -84.918      -56.287       -8.830       31.642       40.704       20.196     1001.212     1656.835      407.888        0.676        0.153      101.879       18.993        0.035      335.314        5.866      861.564
03/03/2014  03:02:00       26.164       24.298       24.888       26.229       16.007       13.490      687.975      256.225      181.976        0.151        0.056       35.706       10.885        0.093      335.383        5.979      861.544
03/03/2014  03:03:00       -2.924        3.194       -9.774       27.266       23.828       16.420      743.450      567.754      269.605        0.085        0.079        4.330       17.007       15.426      335.473        6.128      861.545
03/03/2014  03:04:00      -89.337      -50.114      -10.551       37.054       29.274       18.762     1372.982      856.976      352.031        0.659        0.129      102.433       11.207        0.012      335.344        5.915      861.536
03/03/2014  03:05:00     -132.052      -59.602       -5.812       36.930       28.107       17.406     1363.800      790.002      302.977        1.174        0.123      144.879       11.676        0.006      335.208        5.688      861.506
03/03/2014  03:06:00      -65.334       -6.476       -8.114       41.263       26.115       14.295     1702.633      681.987      204.349        0.348        0.129       65.654       11.919        0.033      335.105        5.517      861.464
03/03/2014  03:07:00      -16.062       22.940       -0.746       52.164       15.975       14.651     2721.058      255.198      214.638        0.199        0.160       28.004       15.701        0.314      335.396        6.003      861.420
03/03/2014  03:08:00       29.946       18.023       11.888       21.491       26.930       19.029      461.849      725.214      362.111        0.146        0.077       34.951       10.478        0.090      335.253        5.764      861.371
03/03/2014  03:09:00        9.080        3.222       -3.628        9.382       12.826        6.685       88.027      164.495       44.688        0.020        0.015        9.635        4.794        0.248      335.346        5.919      861.370
03/03/2014  03:10:00        4.587      -11.070       -1.253        4.983        8.366        5.312       24.827       69.992       28.218        0.013        0.006       11.983        3.415        0.081      335.387        5.986      861.373
03/03/2014  03:11:00       -6.086        2.993       18.203        7.002       12.405        8.260       49.028      153.885       68.222        0.032        0.014        6.782        8.364        1.521      335.304        5.848      861.380
03/03/2014  03:12:00        1.976       43.765       50.022       10.258       18.158       12.104      105.233      329.717      146.499        0.250        0.029       43.810       11.430        0.068      335.204        5.681      861.390
03/03/2014  03:13:00       22.515       71.131       62.924       32.629       28.093       24.434     1064.678      789.191      596.997        0.599        0.123       74.609       20.011        0.072      335.146        5.586      861.397
03/03/2014  03:14:00       12.708       47.725       52.836       18.126       24.025       11.483      328.542      577.203      131.855        0.313        0.052       49.388        9.871        0.040      335.244        5.746      861.396
03/03/2014  03:15:00      -13.485       -2.895       17.211       28.769       25.246       28.375      827.645      637.371      805.138        0.138        0.114       13.792       26.243        3.620      335.298        5.837      861.396
03/03/2014  03:16:00      -83.734      -50.522       -2.117       80.166       47.415       20.188     6426.526     2248.177      407.562        0.932        0.454       97.795       19.916        0.041      335.194        5.666      861.389
03/03/2014  03:17:00     -106.870      -91.253       -3.584       32.353       40.985       23.898     1046.729     1679.795      571.102        1.153        0.165      140.529       20.000        0.020      335.044        5.418      861.385
03/03/2014  03:18:00     -101.255      -84.449      -12.349       25.152       25.782       14.771      632.617      664.689      218.174        0.953        0.076      131.850        5.691        0.002      335.140        5.576      861.388
03/03/2014  03:19:00      -59.678      -41.298      -12.626       20.592       19.432       13.055      424.033      377.590      170.435        0.320        0.049       72.575       15.512        0.046      335.179        5.642      861.381
03/03/2014  03:20:00       14.207        5.140       16.109       17.276       14.077       12.050      298.454      198.172      145.201        0.056        0.032       15.108       10.508        0.484      335.132        5.563      861.350
03/03/2014  03:21:00       45.525       38.033       28.138       10.352       15.822       14.395      107.167      250.322      207.217        0.244        0.028       59.321        8.441        0.020      335.087        5.488      861.308
03/03/2014  03:22:00       11.097       18.133        6.170       16.700       12.302       13.604      278.882      151.334      185.056        0.055        0.031       21.259        6.331        0.089      335.059        5.442      861.290
03/03/2014  03:23:00      -51.748       10.536       -8.352       27.508       13.008        9.684      756.665      169.218       93.776        0.194        0.051       52.809       11.898        0.051      335.110        5.527      861.294
03/03/2014  03:24:00     -141.320      -50.247       -9.971       46.854       42.122       21.322     2195.309     1774.273      454.641        1.351        0.221      149.987       16.241        0.012      334.853        5.098      861.311
03/03/2014  03:25:00     -110.251      -16.259       -4.839       52.556       37.593       28.322     2762.160     1413.206      802.153        0.871        0.249      111.443       30.373        0.074      334.826        5.055      861.311
03/03/2014  03:26:00      -59.555       -8.147       -1.316       27.743       20.138       18.685      769.689      405.539      349.124        0.257        0.076       60.109       16.553        0.076      335.009        5.360      861.282
03/03/2014  03:27:00      -16.253        2.008      -10.333       25.222        7.446        5.478      636.149       55.450       30.008        0.055        0.036       16.376        6.292        0.148      335.269        5.791      861.241
03/03/2014  03:28:00        8.685       14.994       15.298       16.400       15.288       15.321      268.960      233.733      234.737        0.064        0.037       17.328        8.052        0.216      335.158        5.606      861.239
03/03/2014  03:29:00        7.108       21.952       32.973       20.718       23.633       14.716      429.236      558.495      216.551        0.141        0.060       23.074       13.919        0.364      335.164        5.617      861.250
03/03/2014  03:30:00        7.483       48.451       59.558       24.083       29.087       25.318      579.977      846.083      641.004        0.401        0.103       49.025       24.382        0.247      335.269        5.789      861.260
03/03/2014  03:31:00       -4.688       29.717       62.726       22.950       31.858       15.394      526.687     1014.916      236.960        0.331        0.089       30.084       15.431        0.263      335.137        5.571      861.262
03/03/2014  03:32:00       44.707      -32.386       16.045       47.721       41.659       36.846     2277.263     1735.466     1357.646        0.434        0.269       55.205       33.807        0.375      335.214        5.698      861.258
03/03/2014  03:33:00       21.721       13.958       44.559       34.045       36.398       25.305     1159.039     1324.781      640.361        0.289        0.156       25.819       28.179        1.191      335.240        5.742      861.248
03/03/2014  03:34:00       45.047        4.289       27.636       30.530       28.033       21.067      932.104      785.857      443.819        0.249        0.108       45.251       19.492        0.186      335.270        5.790      861.249
03/03/2014  03:35:00       34.514       -8.975       26.037       41.564       41.643       35.529     1727.607     1734.148     1262.307        0.334        0.236       35.661       34.485        0.935      335.246        5.752      861.257
03/03/2014  03:36:00       49.031      -41.084       23.166       37.600       57.751       28.147     1413.773     3335.209      792.278        0.508        0.277       63.968       32.360        0.256      335.202        5.678      861.248
03/03/2014  03:37:00      -15.768      -28.998       -1.413       18.771       22.817       18.656      352.349      520.635      348.055        0.116        0.061       33.008       11.710        0.126      335.141        5.578      861.232
03/03/2014  03:38:00      -17.261       11.629       28.580       14.593       25.784       22.629      212.963      664.836      512.074        0.132        0.069       20.813       19.658        0.892      335.087        5.489      861.220
03/03/2014  03:39:00      -11.156       13.752       26.788       18.817       22.880       16.338      354.088      523.478      266.927        0.109        0.057       17.708       17.542        0.981      335.026        5.387      861.211
03/03/2014  03:40:00      -25.784      -11.151        2.099       12.332       10.140        9.866      152.080      102.810       97.330        0.057        0.018       28.092        7.117        0.064      335.017        5.371      861.215
03/03/2014  03:41:00      -80.387      -62.190       -2.395       57.026       43.302       24.647     3251.983     1875.078      607.485        0.803        0.287      101.635       11.497        0.013      335.010        5.363      861.219
03/03/2014  03:42:00     -126.785      -82.739       -2.392       43.875       40.613       24.674     1924.978     1649.453      608.805        1.355        0.209      151.394       19.435        0.016      334.944        5.251      861.202
03/03/2014  03:43:00     -105.077      -44.942        7.075       41.157       32.726       23.320     1693.871     1071.008      543.810        0.821        0.165      114.285       22.915        0.040      334.976        5.305      861.179
03/03/2014  03:44:00      -74.872      -44.667        7.292       43.631       20.471       20.684     1903.658      419.062      427.840        0.520        0.138       87.183       22.687        0.068      334.995        5.338      861.158
03/03/2014  03:45:00      -35.493       -5.389        5.396       25.218       23.477       14.385      635.953      551.162      206.923        0.136        0.070       35.900        6.924        0.037      334.999        5.344      861.122
03/03/2014  03:46:00      -18.036        5.098        0.010       15.056        8.613       11.043      226.670       74.189      121.958        0.039        0.021       18.743        6.508        0.121      334.981        5.313      861.082
03/03/2014  03:47:00      -29.867       -1.161      -10.043        7.755        9.137        4.836       60.141       83.478       23.386        0.058        0.008       29.890        3.806        0.016      335.058        5.440      861.028
03/03/2014  03:48:00      -42.840      -16.074       -8.569        9.268        8.045        6.903       85.901       64.716       47.655        0.118        0.010       45.757        4.792        0.011      335.078        5.473      860.994
03/03/2014  03:49:00      -51.110      -14.678       -4.362       11.984       11.456        8.138      143.620      131.247       66.223        0.159        0.017       53.176        7.350        0.019      334.917        5.206      860.965
03/03/2014  03:50:00      -33.821       -7.762       -2.554       10.947        9.730        4.428      119.845       94.670       19.611        0.072        0.012       34.700        1.693        0.002      334.820        5.045      860.945
03/03/2014  03:51:00      -27.621       10.365       -2.503       11.828        9.770        6.103      139.899       95.457       37.244        0.057        0.014       29.502        4.202        0.020      334.769        4.963      860.935
03/03/2014  03:52:00       -5.993       20.966       -0.408       19.887       19.052        7.323      395.480      362.966       53.623        0.064        0.041       21.805        9.963        0.209      334.995        5.337      860.923
03/03/2014  03:53:00       17.172       67.568       -8.827        6.777       13.897        4.719       45.923      193.124       22.273        0.260        0.013       69.716        5.426        0.006      335.338        5.904      860.898
03/03/2014  03:54:00       29.329       67.473       -8.378       12.284       16.784       10.640      150.905      281.705      113.217        0.301        0.027       73.572        9.874        0.018      335.212        5.696      860.882
03/03/2014  03:55:00       27.906       47.926       -9.770       18.873       22.614       13.241      356.178      511.387      175.333        0.211        0.052       55.459       11.097        0.040      335.113        5.531      860.883
03/03/2014  03:56:00      -35.911      144.252      -21.967       30.344       41.102       15.368      920.753     1689.396      236.164        1.271        0.142      148.654        9.180        0.004      334.775        4.968      860.910
03/03/2014  03:57:00     -157.501       -7.707      -16.740       65.277       34.631       19.339     4261.143     1199.306      373.979        1.549        0.292      157.689       15.135        0.009      334.726        4.885      860.905
03/03/2014  03:58:00     -161.006      -28.278      -20.525       40.070       48.846       26.695     1605.577     2385.931      712.636        1.592        0.235      163.470       19.228        0.014      334.401        4.347      860.870
03/03/2014  03:59:00     -101.610      -35.858       -6.307       50.875       41.512       26.064     2588.292     1723.281      679.319        0.832        0.250      107.751       17.783        0.027      334.350        4.265      860.833
03/03/2014  04:00:00      -89.402      -21.516        0.896       47.715       41.423       24.507     2276.762     1715.862      600.590        0.652        0.230       91.955       26.254        0.082      334.446        4.424      860.803
03/03/2014  04:01:00      -68.862      -25.473        1.167       21.490       19.033       14.780      461.836      362.273      218.453        0.322        0.052       73.422       12.308        0.028      334.528        4.560      860.801
03/03/2014  04:02:00      -37.999      -15.716       -0.208       16.512       14.458       10.845      272.657      209.046      117.604        0.115        0.030       41.121        7.187        0.031      334.561        4.614      860.816
03/03/2014  04:03:00      -79.750      -32.016       -7.008       18.024       15.509        8.312      324.852      240.544       69.082        0.403        0.032       85.937        6.046        0.005      334.658        4.775      860.827
03/03/2014  04:04:00     -104.257      -17.852      -10.156       13.828       14.871        9.473      191.202      221.158       89.747        0.590        0.025      105.774        5.295        0.003      334.574        4.636      860.819
03/03/2014  04:05:00     -125.804        0.889      -18.264       15.673       10.800       13.203      245.654      116.641      174.322        0.835        0.027      125.807        7.440        0.003      334.451        4.433      860.800
03/03/2014  04:06:00     -123.228       -2.859      -13.729       30.523       21.966       22.422      931.625      482.497      502.758        0.865        0.096      123.261       17.633        0.020      334.441        4.417      860.783
03/03/2014  04:07:00     -128.599      -32.933       -5.060       50.798       50.872       26.293     2580.429     2587.965      691.337        1.175        0.293      132.749       25.381        0.037      334.427        4.393      860.777
03/03/2014  04:08:00     -109.459      -36.535        2.882       37.366       32.938       21.742     1396.186     1084.910      472.715        0.814        0.148      115.396       21.097        0.033      334.365        4.289      860.773
03/03/2014  04:09:00      -94.506       -9.707       -1.693       38.580       27.908       21.369     1488.398      778.852      456.619        0.588        0.136       95.003       20.548        0.047      334.418        4.378      860.753
03/03/2014  04:10:00     -110.570       -7.377       -5.548       22.093       17.774       11.795      488.095      315.913      139.113        0.663        0.047      110.816       10.665        0.009      334.543        4.585      860.740
03/03/2014  04:11:00      -80.369      -53.874       -1.876       29.675       27.394       15.204      880.631      750.415      231.159        0.561        0.093       96.755       16.184        0.028      334.586        4.655      860.746
03/03/2014  04:12:00      -92.671      -54.564       -9.158       15.122       27.505       13.481      228.689      756.530      181.738        0.641        0.058      107.541        7.204        0.004      334.934        5.234      860.754
03/03/2014  04:13:00      -26.122       11.191        3.004       15.480       22.244        9.979      239.638      494.784       99.590        0.083        0.042       28.418        8.982        0.100      334.858        5.108      860.747
03/03/2014  04:14:00      -62.226       31.086      -13.995       17.761       17.431       10.470      315.467      303.852      109.628        0.288        0.036       69.559       10.972        0.025      334.860        5.112      860.757
03/03/2014  04:15:00     -142.332      -18.578      -15.132       31.899       53.571       14.945     1017.532     2869.808      223.348        1.247        0.206      143.540        7.280        0.003      334.513        4.536      860.783
03/03/2014  04:16:00     -159.648      -38.897      -17.770       43.144       42.476       23.004     1861.419     1804.243      529.179        1.575        0.210      164.318       21.660        0.017      334.268        4.128      860.806
03/03/2014  04:17:00     -182.488       10.084      -20.601       24.482       32.684       20.003      599.391     1068.245      400.113        1.795        0.103      182.766       16.357        0.008      334.443        4.418      860.828
03/03/2014  04:18:00     -155.815       50.903      -16.168       41.865       25.923       21.776     1752.670      671.977      474.185        1.501        0.145      163.919       17.166        0.011      334.784        4.985      860.849
03/03/2014  04:19:00     -114.261       42.413       -1.532       33.191       22.054       22.512     1101.638      486.368      506.786        0.848        0.105      121.879       15.944        0.017      334.839        5.076      860.862
03/03/2014  04:20:00      -78.407       -6.241        1.397       33.101       33.432       16.039     1095.657     1117.672      257.257        0.433        0.124       78.655       12.686        0.026      334.855        5.103      860.872
03/03/2014  04:21:00       -7.274      -41.619        3.794       36.265       28.863       23.156     1315.152      833.065      536.212        0.224        0.134       42.249       18.518        0.192      334.718        4.875      860.888
03/03/2014  04:22:00     -118.833      -54.906       -5.357       54.924       31.606       21.734     3016.649      998.919      472.349        1.083        0.224      130.904       23.905        0.033      334.430        4.398      860.913
03/03/2014  04:23:00     -127.026      -18.629       -9.288       30.855       16.488       15.921      952.016      271.848      253.471        0.902        0.074      128.384       17.544        0.019      334.427        4.394      860.918
03/03/2014  04:24:00     -147.968        4.311      -17.696       38.663       45.425       22.874     1494.829     2063.474      523.236        1.315        0.204      148.031       19.312        0.017      334.397        4.342      860.910
03/03/2014  04:25:00     -113.347      -24.868      -15.825       38.410       47.707       25.402     1475.311     2275.931      645.272        0.906        0.220      116.043       23.653        0.042      334.429        4.397      860.909
03/03/2014  04:26:00      -96.794        4.179       -7.258       45.113       29.931       24.456     2035.174      895.836      598.087        0.648        0.176       96.884       25.070        0.067      334.563        4.619      860.913
03/03/2014  04:27:00      -42.192       -4.777        2.102       24.411       14.829       11.400      595.902      219.889      129.952        0.138        0.047       42.462        9.186        0.047      334.533        4.569      860.912
03/03/2014  04:28:00      -55.675      -38.800       -0.564       19.215       21.499       12.468      369.206      462.203      155.456        0.280        0.049       67.861        7.794        0.013      334.599        4.678      860.909
03/03/2014  04:29:00      -92.640      -73.845       -6.679       28.561       23.801       16.439      815.724      566.506      270.234        0.787        0.083      118.471       12.143        0.011      334.482        4.484      860.916
03/03/2014  04:30:00      -79.781      -15.372       -8.868       28.175       17.370       10.871      793.843      301.717      118.189        0.395        0.061       81.249       10.719        0.017      334.412        4.368      860.938
03/03/2014  04:31:00      -82.133      -59.232       -5.117       18.685       14.668       11.928      349.145      215.142      142.270        0.549        0.035      101.264        7.173        0.005      334.472        4.469      860.975
03/03/2014  04:32:00      -90.283      -57.756       -3.758       22.358       19.808       17.144      499.889      392.361      293.926        0.634        0.059      107.177       13.495        0.016      334.496        4.507      861.026
03/03/2014  04:33:00     -108.086      -35.418       -7.880       35.590       24.056       13.926     1266.658      578.694      193.943        0.752        0.102      113.741       17.016        0.022      334.409        4.364      861.065
03/03/2014  04:34:00     -102.854       23.043       -1.468       23.338       22.646       15.013      544.652      512.863      225.376        0.620        0.064      105.404       13.818        0.017      334.427        4.392      861.077
03/03/2014  04:35:00      -71.612       23.918       -3.135       33.658       24.209       18.890     1132.846      586.073      356.820        0.389        0.104       75.500       11.509        0.023      334.906        5.189      861.072
03/03/2014  04:36:00     -155.056      -15.574      -26.590       57.978       46.700       23.102     3361.454     2180.862      533.724        1.553        0.304      155.837       24.833        0.025      334.392        4.333      861.107
03/03/2014  04:37:00     -148.948      -48.429      -13.324       42.879       46.219       30.512     1838.651     2136.238      931.005        1.481        0.245      156.623       24.086        0.024      334.259        4.113      861.156
03/03/2014  04:38:00     -136.568      -26.250      -17.609       35.511       46.555       26.707     1261.004     2167.351      713.253        1.190        0.207      139.068       19.328        0.019      334.319        4.213      861.200
03/03/2014  04:39:00      -46.707      -24.784       -1.360       45.819       34.997       15.235     2099.401     1224.785      232.109        0.318        0.178       52.876       13.789        0.068      334.305        4.191      861.217
03/03/2014  04:40:00      -76.727        3.449       -8.431       33.287       14.803       12.966     1108.011      219.116      168.115        0.373        0.075       76.804       10.122        0.017      334.500        4.514      861.209
03/03/2014  04:41:00     -149.600       -0.076      -14.049       16.809       22.314       10.014      282.558      497.899      100.277        1.173        0.044      149.600        8.318        0.003      334.549        4.594      861.190
03/03/2014  04:42:00     -174.990       36.951      -11.732       49.314       34.488       25.421     2431.830     1189.432      646.236        1.820        0.213      178.849       26.424        0.022      334.465        4.454      861.183
03/03/2014  04:43:00     -112.919       14.015      -16.058       32.644       35.263       19.872     1065.606     1243.467      394.890        0.795        0.135      113.785       12.467        0.012      334.413        4.369      861.173
03/03/2014  04:44:00      -56.439      -14.540      -12.807       40.186       34.244       17.735     1614.927     1172.626      314.533        0.333        0.155       58.281       16.212        0.077      334.556        4.606      861.169
03/03/2014  04:45:00      -50.367       51.139      -15.779       26.252       35.243       15.086      689.177     1242.037      227.599        0.378        0.108       71.777       17.848        0.062      335.037        5.404      861.178
03/03/2014  04:46:00      -44.033       14.846       -6.244       16.887       32.279       14.750      285.176     1041.938      217.560        0.187        0.077       46.468       17.804        0.147      335.049        5.425      861.203
03/03/2014  04:47:00     -135.892      -54.451      -17.124       40.108       32.518       20.245     1608.651     1057.415      409.871        1.240        0.154      146.395       14.826        0.010      334.558        4.609      861.273
03/03/2014  04:48:00     -113.047      -50.248       -6.963       47.179       35.989       17.436     2225.832     1295.209      304.014        0.959        0.191      123.711       15.625        0.016      334.250        4.099      861.341
03/03/2014  04:49:00      -51.660       -4.462       -0.497       27.960       18.757       13.079      781.783      351.830      171.071        0.200        0.065       51.852       14.319        0.076      334.246        4.092      861.368
03/03/2014  04:50:00      -28.421      -16.950       -6.329       22.085       19.162       11.532      487.727      367.189      132.980        0.106        0.049       33.091       13.629        0.170      334.504        4.519      861.391
03/03/2014  04:51:00      -48.470       10.658       -2.189       16.637        7.258        9.275      276.806       52.678       86.019        0.144        0.021       49.628        8.594        0.030      334.795        5.002      861.429
03/03/2014  04:52:00       -7.189        5.880       -0.901        7.871        7.351        3.689       61.959       54.030       13.611        0.011        0.006        9.288        3.067        0.109      335.061        5.445      861.444
03/03/2014  04:53:00      -36.177      -33.675       -7.188        9.253       12.435        7.170       85.618      154.618       51.415        0.139        0.015       49.424        3.059        0.004      334.832        5.066      861.459
03/03/2014  04:54:00      -22.290      -33.675       -4.829       16.113       13.819        9.577      259.625      190.975       91.712        0.110        0.027       40.384        6.809        0.028      334.626        4.724      861.473
03/03/2014  04:55:00      -53.531      -13.607      -11.265       27.536        7.325        7.124      758.230       53.651       50.758        0.202        0.043       55.233       10.801        0.038      334.573        4.635      861.495
03/03/2014  04:56:00     -168.323      -23.786      -16.930       44.971       22.854       16.593     2022.388      522.309      275.319        1.600        0.141      169.996       14.618        0.007      334.200        4.016      861.575
03/03/2014  04:57:00     -192.492       19.346       -7.277       85.548       61.150       44.153     7318.456     3739.345     1949.516        2.524        0.650      193.462       43.471        0.050      334.057        3.776      861.662
03/03/2014  04:58:00     -301.162       44.165      -23.434       52.925       37.577       30.307     2801.062     1412.058      918.516        4.916        0.257      304.383       27.388        0.008      334.440        4.410      861.668
03/03/2014  04:59:00     -219.794      102.489      -21.273       83.693       56.296       43.413     7004.479     3169.256     1884.657        3.566        0.603      242.515       40.658        0.028      334.510        4.527      861.639
03/03/2014  05:00:00     -175.038      -16.315      -28.168       99.113      131.460       39.594     9823.438    17281.817     1567.669        3.018        1.434      175.797       37.130        0.045      334.634        4.732      861.639
03/03/2014  05:01:00     -220.757      -47.968       -3.762      146.989      126.386       56.086    21605.636    15973.352     3145.590        4.588        2.036      225.908       53.347        0.056      335.120        5.543      861.604
03/03/2014  05:02:00     -358.126     -158.231       -6.458      131.809       92.560       61.882    17373.650     8567.297     3829.349        9.155        1.489      391.524       56.347        0.021      336.171        7.289      861.588
03/03/2014  05:03:00     -180.921      -23.883        5.564       99.672       65.236       42.967     9934.546     4255.765     1846.174        2.468        0.802      182.491       51.871        0.081      335.845        6.748      861.580
03/03/2014  05:04:00     -257.116      -81.787       14.786      131.202       98.657       55.662    17214.073     9733.113     3098.238        5.153        1.502      269.811       54.298        0.040      336.023        7.044      861.570
03/03/2014  05:05:00     -230.087     -108.758        4.343       97.467       69.815       48.400     9499.827     4874.181     2342.600        4.075        0.836      254.496       50.781        0.040      335.744        6.578      861.625
03/03/2014  05:06:00     -268.000      -93.544       -7.068       60.493       61.146       37.865     3659.457     3738.827     1433.727        4.473        0.442      283.856       28.179        0.010      335.895        6.829      861.629
03/03/2014  05:07:00     -247.771      -91.500        3.942       86.436       68.052       38.783     7471.137     4631.071     1504.148        4.169        0.680      264.126       34.478        0.017      335.934        6.894      861.644
03/03/2014  05:08:00     -274.223      -69.976        2.954       90.937       80.916       39.605     8269.544     6547.464     1568.594        4.824        0.819      283.010       39.627        0.020      336.201        7.340      861.676
03/03/2014  05:09:00     -237.717      -64.864        0.903       92.182       65.814       44.556     8497.533     4331.419     1985.233        3.776        0.741      246.408       49.157        0.040      336.298        7.501      861.707
03/03/2014  05:10:00     -239.175      -81.163        0.397      108.599       65.637       47.953    11793.719     4308.179     2299.486        4.109        0.920      252.571       50.081        0.039      336.535        7.899      861.708
03/03/2014  05:11:00     -214.493      -65.274        1.905       80.923       66.768       41.323     6548.495     4457.906     1707.622        3.149        0.636      224.206       43.219        0.037      336.646        8.083      861.701
03/03/2014  05:12:00     -229.712      -76.356       11.163       91.132       68.656       41.575     8304.987     4713.638     1728.488        3.673        0.737      242.070       47.177        0.038      336.667        8.121      861.717
03/03/2014  05:13:00     -285.598     -100.118       -3.295      101.499       92.712       52.794    10301.961     8595.558     2787.204        5.664        1.084      302.639       58.884        0.038      336.884        8.482      861.775
03/03/2014  05:14:00     -338.368     -114.178       -6.550      114.540       80.419       50.807    13119.415     6467.185     2581.321        7.487        1.108      357.112       58.029        0.026      337.081        8.812      861.743
03/03/2014  05:15:00     -213.789     -120.756       -6.707      119.030       83.667       51.455    14168.036     7000.110     2647.661        4.207        1.191      245.536       59.518        0.059      336.995        8.668      861.733
03/03/2014  05:16:00     -260.572     -106.492      -10.292       81.996      120.065       55.552     6723.336    14415.539     3086.053        5.178        1.211      281.493       52.292        0.035      337.144        8.916      861.702
03/03/2014  05:17:00     -169.138      -56.571       -0.340      102.709       67.041       45.251    10549.065     4494.515     2047.692        2.445        0.855      178.348       47.585        0.071      336.896        8.502      861.672
03/03/2014  05:18:00     -181.360     -102.157        8.601      101.659       80.682       54.948    10334.541     6509.561     3019.286        3.163        0.993      208.152       57.279        0.076      336.840        8.409      861.728
03/03/2014  05:19:00     -157.270      -86.196        3.471      124.474       89.577       66.961    15493.826     8024.021     4483.839        3.008        1.400      179.342       77.982        0.189      336.876        8.469      861.766
03/03/2014  05:20:00     -264.584     -151.235      -23.421      100.501       86.477       53.177    10100.401     7478.287     2827.782        5.691        1.020      304.757       41.575        0.019      337.106        8.854      861.726
03/03/2014  05:21:00     -121.912      -89.781       11.743       85.127       57.651       39.059     7246.525     3323.593     1525.644        1.758        0.605      151.404       42.538        0.079      337.055        8.769      861.705
03/03/2014  05:22:00     -143.589     -107.950        2.153       67.512       50.952       41.660     4557.863     2596.150     1735.588        2.058        0.444      179.641       30.632        0.029      337.077        8.806      861.743
03/03/2014  05:23:00     -111.016      -70.911       11.653       61.859       45.394       32.875     3826.521     2060.599     1080.765        1.223        0.348      131.731       38.483        0.085      337.064        8.784      861.745
03/03/2014  05:24:00      -64.708      -31.413       11.065       51.849       29.195       25.381     2688.294      852.356      644.184        0.474        0.209       71.930       26.456        0.135      337.028        8.726      861.724
03/03/2014  05:25:00      -28.606      -35.127       18.342       61.613       26.511       18.541     3796.111      702.812      343.786        0.361        0.242       45.301       16.875        0.139      337.039        8.744      861.708
03/03/2014  05:26:00      -75.984      -77.551       10.140       60.854       43.849       28.700     3703.150     1922.753      823.709        0.917        0.322      108.571       29.227        0.072      337.099        8.843      861.719
03/03/2014  05:27:00      -85.150      -85.800        2.905       64.813       54.970       27.756     4200.673     3021.717      770.371        1.131        0.400      120.881       27.303        0.051      337.066        8.788      861.718
03/03/2014  05:28:00      -77.384      -26.518        2.379       72.403       52.479       27.946     5242.219     2754.078      780.973        0.774        0.439       81.802       19.451        0.057      336.922        8.547      861.677
03/03/2014  05:29:00      -90.610      -82.351      -14.022       60.585       31.728       28.426     3670.496     1006.670      808.045        1.034        0.274      122.441        8.789        0.005      337.107        8.857      861.633
03/03/2014  05:30:00     -115.950      -80.365        3.316       55.937       39.812       34.449     3128.901     1585.021     1186.745        1.291        0.295      141.078       35.102        0.062      337.069        8.794      861.637
03/03/2014  05:31:00      -28.052      -66.609        8.012       46.349       46.553       28.354     2148.198     2167.190      803.959        0.520        0.256       72.275       23.034        0.102      337.034        8.734      861.652
03/03/2014  05:32:00       10.696       -1.670       71.751       62.672       99.097       57.749     3927.792     9820.248     3334.934        1.117        0.854       10.825       41.284       14.545      335.909        6.857      861.647
03/03/2014  05:33:00      105.295     -147.859      -14.657       78.776       78.383       41.383     6205.665     6143.859     1712.553        2.361        0.703      181.519       46.892        0.067      335.558        6.269      861.663
03/03/2014  05:34:00      104.963     -111.930      -24.615       75.663      104.243       61.951     5724.874    10866.517     3837.952        2.229        1.021      153.446       66.441        0.187      335.424        6.047      861.668
03/03/2014  05:35:00       97.828     -100.835      -22.018       48.587       57.096       35.054     2360.743     3259.949     1228.816        1.353        0.342      140.492       29.206        0.043      335.399        6.006      861.675
03/03/2014  05:36:00       24.698       -9.994       38.119       35.929       45.758       24.896     1290.895     2093.816      619.805        0.308        0.200       26.644       29.626        1.236      335.326        5.885      861.675
03/03/2014  05:37:00       62.741      -13.306       11.465       37.367       38.550       33.781     1396.278     1486.075     1141.138        0.413        0.201       64.137       32.636        0.259      335.242        5.745      861.665
03/03/2014  05:38:00       49.196      -12.728       19.150       34.342       56.034       28.803     1179.383     3139.854      829.608        0.405        0.257       50.816       36.063        0.504      335.216        5.700      861.666
03/03/2014  05:39:00       71.446      -49.630        0.145       55.614       55.609       46.261     3092.957     3092.340     2140.063        0.795        0.416       86.992       47.887        0.303      335.192        5.662      861.684
03/03/2014  05:40:00       33.089      -54.945       12.519       71.725       91.363       59.264     5144.542     8347.258     3512.256        1.063        0.850       64.139       39.101        0.372      335.071        5.462      861.685
03/03/2014  05:41:00       21.437       -5.531       69.542       53.483       95.739       54.986     2860.428     9165.912     3023.409        1.019        0.752       22.139       60.213        7.397      334.708        4.858      861.657
03/03/2014  05:42:00       37.790      -55.265       23.596       58.014       62.886       47.180     3365.571     3954.589     2225.999        0.729        0.477       66.950       37.886        0.320      334.663        4.783      861.585
03/03/2014  05:43:00       19.384       27.443       38.517       35.873       49.567       29.082     1286.861     2456.884      845.768        0.360        0.229       33.598       34.012        1.025      334.627        4.725      861.522
03/03/2014  05:44:00        5.608       27.167       10.699       30.055       23.599       16.139      903.304      556.891      260.461        0.130        0.086       27.740       14.996        0.292      334.567        4.624      861.484
03/03/2014  05:45:00        0.759       46.846       -2.744       11.804       12.981       11.081      139.329      168.515      122.797        0.132        0.022       46.852        9.696        0.043      334.540        4.582      861.486
03/03/2014  05:46:00        6.742       21.884       -8.416        7.780       18.868        4.930       60.525      356.006       24.303        0.052        0.022       22.899        6.093        0.071      334.511        4.531      861.485
03/03/2014  05:47:00      -33.957        2.219       -2.737       11.039        6.836        6.139      121.862       46.735       37.686        0.069        0.010       34.030        4.629        0.019      334.568        4.626      861.484
03/03/2014  05:48:00      -37.834        4.772        1.622       13.749       11.826        5.770      189.034      139.860       33.294        0.091        0.018       38.133        6.323        0.027      334.664        4.785      861.461
03/03/2014  05:49:00       19.249       12.596        5.697       15.464        9.062        7.040      239.122       82.115       49.568        0.047        0.019       23.004        4.425        0.037      334.602        4.683      861.435
03/03/2014  05:50:00       24.260       41.810       37.014       24.033       16.890       16.731      577.584      285.257      279.931        0.242        0.057       48.339       12.735        0.069      334.600        4.680      861.409
03/03/2014  05:51:00        4.574       37.714       61.616       17.273       21.173       21.142      298.365      448.281      446.964        0.322        0.060       37.990       17.935        0.223      334.528        4.559      861.402
03/03/2014  05:52:00       80.823     -107.595        8.758       91.073      106.591       72.320     8294.248    11361.596     5230.248        2.153        1.244      134.569       75.751        0.317      334.489        4.493      861.422
03/03/2014  05:53:00       76.011      -54.073       20.567       86.528      105.598       75.126     7487.153    11150.871     5643.960        1.670        1.214       93.282       75.464        0.654      334.402        4.351      861.447
03/03/2014  05:54:00       72.216     -103.775       -7.953       75.123       89.740       51.357     5643.497     8053.265     2637.522        1.619        0.817      126.429       48.264        0.146      334.290        4.165      861.447
03/03/2014  05:55:00      -18.602        8.320       31.611       28.281       28.894       27.157      799.793      834.879      737.523        0.189        0.119       20.378       20.740        1.036      334.321        4.217      861.414
03/03/2014  05:56:00       11.610       20.382       62.203       40.150       57.863       39.186     1612.043     3348.148     1535.575        0.546        0.325       23.456       34.385        2.149      334.313        4.204      861.425
03/03/2014  05:57:00       49.403      -53.585       43.795       86.445      104.613       74.009     7472.696    10943.879     5477.317        1.556        1.195       72.884       73.523        1.018      334.264        4.121      861.496
03/03/2014  05:58:00       -7.633      -76.518       -5.191       45.921       52.784       45.013     2108.779     2786.103     2026.173        0.643        0.346       76.897       28.058        0.133      334.288        4.163      861.522
03/03/2014  05:59:00        0.406      100.170        5.652       25.240       58.517       30.685      637.079     3424.220      941.561        0.753        0.250      100.171       12.068        0.015      334.287        4.161      861.439
03/03/2014  06:00:00       -9.780       46.505      -10.715       22.112       34.900       12.741      488.937     1217.990      162.342        0.212        0.093       47.522       15.745        0.110      334.421        4.384      861.379
03/03/2014  06:01:00      -64.859      -33.649      -10.280       28.460       27.296       10.587      809.982      745.097      112.087        0.356        0.083       73.068       11.900        0.027      334.502        4.516      861.406
03/03/2014  06:02:00      -17.475      -65.031       21.048       27.063       31.148       28.643      732.399      970.169      820.412        0.375        0.126       67.338        8.570        0.016      334.561        4.614      861.479
03/03/2014  06:03:00       13.674        8.837       42.302       29.785       32.365       23.691      887.166     1047.475      561.240        0.227        0.125       16.281       14.911        0.839      334.365        4.290      861.524
03/03/2014  06:04:00       -1.983       11.285       33.613       19.975       33.248       23.350      398.993     1105.457      545.219        0.166        0.102       11.458       21.147        3.406      334.406        4.357      861.464
03/03/2014  06:05:00       62.339       31.185        3.219       42.684       22.025       28.107     1821.896      485.083      789.991        0.398        0.155       69.704       21.582        0.096      334.160        3.950      861.429
03/03/2014  06:06:00       31.417       18.402       -4.467       32.484       25.611       18.566     1055.212      655.905      344.685        0.170        0.103       36.409       11.098        0.093      333.889        3.499      861.434
03/03/2014  06:07:00        5.302       21.449        2.597       27.772       31.656       21.895      771.273     1002.098      479.406        0.137        0.113       22.095       18.627        0.711      333.693        3.175      861.442
03/03/2014  06:08:00       -2.095       86.858      -16.746       21.304       18.668       10.747      453.846      348.487      115.497        0.437        0.046       86.884        5.782        0.004      333.819        3.384      861.429
03/03/2014  06:09:00      -53.464       74.054      -18.377       31.635       32.901       15.462     1000.791     1082.494      239.089        0.550        0.116       91.337        9.867        0.012      333.883        3.491      861.396
03/03/2014  06:10:00      -98.490       77.157      -18.219       25.456       30.778       19.362      647.998      947.278      374.893        0.898        0.099      125.114       17.441        0.019      333.845        3.428      861.331
03/03/2014  06:11:00     -116.046       74.485      -10.242       34.044       37.120       27.587     1158.968     1377.873      761.046        1.121        0.165      137.893       22.293        0.026      334.368        4.296      861.271
03/03/2014  06:12:00     -118.904       53.467      -12.895       39.448       44.584       23.427     1556.140     1987.736      548.805        1.063        0.205      130.372       21.438        0.027      334.253        4.103      861.248
03/03/2014  06:13:00      -72.774       15.495      -12.973       36.158       29.518       21.350     1307.397      871.321      455.819        0.417        0.132       74.406       18.807        0.064      334.246        4.091      861.230
03/03/2014  06:14:00      -40.596       -8.692       -4.618       34.339       35.563       27.021     1179.165     1264.703      730.128        0.246        0.159       41.516       27.952        0.453      334.238        4.080      861.193
03/03/2014  06:15:00      -52.611        6.324       -4.124       53.040       23.533       20.340     2813.208      553.803      413.723        0.330        0.189       52.990       25.836        0.238      334.168        3.964      861.167
03/03/2014  06:16:00     -126.334       27.074      -17.189       29.792       26.298       19.529      887.535      691.585      381.371        0.947        0.098      129.203       17.653        0.019      334.218        4.046      861.124
03/03/2014  06:17:00     -136.681       26.553      -13.156       35.870       21.062       14.909     1286.653      443.597      222.266        1.076        0.098      139.237       11.257        0.007      334.184        3.989      861.096
03/03/2014  06:18:00      -84.575       -9.958       -7.323       43.357       27.761       16.308     1879.830      770.682      265.943        0.511        0.146       85.159       21.139        0.062      334.178        3.978      861.097
03/03/2014  06:19:00      -64.232      -13.525      -10.771       37.719       27.920       16.198     1422.723      779.506      262.377        0.344        0.123       65.640       20.653        0.099      334.178        3.979      861.130
03/03/2014  06:20:00     -104.759      -30.749      -12.395       23.203       29.113       20.089      538.360      847.550      403.563        0.693        0.089      109.178       14.316        0.017      334.214        4.039      861.177
03/03/2014  06:21:00     -132.273      -62.917      -12.422       64.710       47.537       28.805     4187.331     2259.723      829.700        1.444        0.364      146.475       24.220        0.027      334.151        3.932      861.216
03/03/2014  06:22:00     -226.500      -32.566      -14.825       81.699       69.812       41.190     6674.794     4873.782     1696.594        3.291        0.662      228.829       34.125        0.022      334.020        3.713      861.266
03/03/2014  06:23:00     -228.161       -7.728      -15.720       44.505       49.722       32.272     1980.667     2472.232     1041.454        2.893        0.275      228.292       22.471        0.010      333.926        3.558      861.272
03/03/2014  06:24:00     -191.968      -18.168      -14.324       52.199       35.309       29.053     2724.772     1246.729      844.104        2.110        0.241      192.826       29.502        0.023      333.934        3.573      861.254
03/03/2014  06:25:00     -129.690       -7.502      -15.319       59.346       45.470       33.086     3521.997     2067.505     1094.688        1.190        0.334      129.907       35.392        0.074      333.943        3.588      861.231
03/03/2014  06:26:00     -216.697       70.723      -21.030       73.326       43.912       30.856     5376.675     1928.287      952.064        3.033        0.413      227.946       26.294        0.013      334.015        3.707      861.219
03/03/2014  06:27:00     -141.157       73.914      -12.025       88.244       42.522       32.983     7787.061     1808.099     1087.887        1.811        0.534      159.338       33.256        0.044      333.937        3.578      861.202
03/03/2014  06:28:00     -139.421       42.551      -13.958       40.776       43.762       28.404     1662.705     1915.079      806.811        1.291        0.219      145.770       16.197        0.012      334.022        3.719      861.209
03/03/2014  06:29:00      -96.493       16.691       -8.935       38.749       24.020       18.981     1501.447      576.975      360.266        0.605        0.122       97.926       17.938        0.034      334.098        3.848      861.232
03/03/2014  06:30:00      -70.378       11.849       -7.036       32.756       32.490       21.385     1072.955     1055.599      457.336        0.386        0.129       71.368       18.714        0.069      334.052        3.770      861.238
03/03/2014  06:31:00      -89.956       -6.970       -9.593       39.116       25.626       25.180     1530.096      656.714      634.039        0.553        0.141       90.226       22.585        0.063      334.103        3.854      861.251
03/03/2014  06:32:00      -91.200        5.436      -10.829       24.622       28.050       19.776      606.263      786.808      391.084        0.512        0.089       91.361       15.219        0.028      334.103        3.855      861.250
03/03/2014  06:33:00      -94.484       11.180      -14.757       38.551       32.725       22.196     1486.189     1070.941      492.684        0.616        0.152       95.143       12.766        0.018      334.198        4.012      861.238
03/03/2014  06:34:00      -63.149      -18.386        2.739       40.428       30.514       19.201     1634.464      931.120      368.690        0.363        0.147       65.771       22.332        0.115      334.134        3.906      861.241
03/03/2014  06:35:00     -113.031      -41.796      -13.457       20.949       23.332       18.443      438.881      544.387      340.132        0.801        0.066      120.511       10.303        0.007      334.103        3.855      861.266
03/03/2014  06:36:00     -155.533      -93.807      -17.004       40.730       30.010       23.213     1658.940      900.571      538.847        1.819        0.155      181.632       17.807        0.010      334.021        3.718      861.312
03/03/2014  06:37:00     -132.719      -43.894       -3.820       61.181       46.948       24.140     3743.085     2204.076      582.729        1.304        0.326      139.789       25.783        0.034      334.051        3.768      861.354
03/03/2014  06:38:00     -145.810      -17.051       -7.552       51.700       44.470       25.068     2672.928     1977.588      628.424        1.344        0.264      146.804       28.430        0.038      334.062        3.785      861.373
03/03/2014  06:39:00     -137.064        4.588       -8.895       53.637       39.858       28.321     2876.917     1588.680      802.105        1.208        0.263      137.140       25.749        0.035      334.086        3.826      861.376
03/03/2014  06:40:00     -131.843        5.679      -23.783       30.472       35.948       23.878      928.530     1292.243      570.139        1.039        0.140      131.965       22.352        0.029      334.160        3.948      861.359
03/03/2014  06:41:00     -137.086       10.765      -12.820       38.174       43.971       35.679     1457.245     1933.464     1272.962        1.187        0.233      137.508       18.516        0.018      334.193        4.005      861.327
03/03/2014  06:42:00     -122.417      -16.695      -13.658       40.765       27.846       20.769     1661.784      775.427      431.346        0.916        0.143      123.550       19.218        0.024      334.158        3.946      861.306
03/03/2014  06:43:00     -132.993      -65.386       -6.595       43.864       50.076       24.838     1924.045     2507.639      616.910        1.353        0.252      148.198       21.182        0.020      334.132        3.901      861.303
03/03/2014  06:44:00     -118.832      -74.453      -13.669       40.685       31.991       24.402     1655.269     1023.439      595.473        1.156        0.164      140.230       14.166        0.010      334.145        3.925      861.307
03/03/2014  06:45:00     -107.260      -32.370       -8.700       32.629       46.259       26.980     1064.633     2139.940      727.919        0.828        0.197      112.038       13.646        0.015      334.261        4.117      861.297
03/03/2014  06:46:00      -90.815       13.781       -6.978       39.439       36.963       28.729     1555.439     1366.266      825.372        0.612        0.187       91.855       23.205        0.064      334.376        4.309      861.268
03/03/2014  06:47:00      -74.945       40.524      -15.965       28.748       26.661       18.264      826.471      710.829      333.561        0.469        0.094       85.199       14.760        0.030      334.441        4.417      861.235
03/03/2014  06:48:00      -82.210       33.267       -8.845       20.007       35.754       17.357      400.278     1278.315      301.257        0.496        0.099       88.686       16.290        0.034      334.642        4.749      861.209
03/03/2014  06:49:00      -72.331        6.169       -5.047       18.870       28.472       21.572      356.079      810.653      465.358        0.346        0.082       72.594       19.806        0.074      334.599        4.677      861.195
03/03/2014  06:50:00      -61.702       -4.113       -9.370       29.182       19.073       15.543      851.579      363.790      241.579        0.268        0.073       61.839       12.204        0.039      334.605        4.689      861.182
03/03/2014  06:51:00      -94.649      -37.382       -5.965       39.006       31.852       14.305     1521.473     1014.519      204.621        0.657        0.137      101.764        9.100        0.008      334.496        4.505      861.179
03/03/2014  06:52:00     -148.731      -29.490      -13.685       29.148       28.927       17.116      849.596      836.779      292.959        1.258        0.099      151.626       15.571        0.011      334.298        4.176      861.199
03/03/2014  06:53:00     -136.245      -34.847       -9.958       44.647       46.226       28.810     1993.340     2136.830      830.019        1.242        0.248      140.630       25.802        0.034      334.306        4.191      861.227
03/03/2014  06:54:00     -181.223      -30.416      -16.516       45.741       39.765       24.555     2092.206     1581.230      602.951        1.916        0.214      183.758       24.707        0.018      334.440        4.414      861.269
03/03/2014  06:55:00     -151.692        7.796       -0.906       71.256       49.333       25.607     5077.466     2433.751      655.700        1.562        0.408      151.892       25.654        0.029      334.464        4.453      861.305
03/03/2014  06:56:00     -181.145       60.284      -16.953       57.816       47.713       31.354     3342.701     2276.503      983.063        2.167        0.330      190.913       27.293        0.020      334.623        4.716      861.307
03/03/2014  06:57:00     -156.330       22.661      -15.619       58.053       33.277       31.291     3370.202     1107.350      979.113        1.533        0.273      157.964       28.724        0.033      334.559        4.610      861.296
03/03/2014  06:58:00     -159.296        2.962      -16.432       38.865       52.350       31.566     1510.472     2740.513      996.415        1.545        0.262      159.323       26.351        0.027      334.535        4.571      861.284
03/03/2014  06:59:00     -140.677       31.247      -16.226       54.090       42.260       28.945     2925.688     1785.868      837.803        1.329        0.277      144.106       33.408        0.054      334.538        4.576      861.306
03/03/2014  07:00:00     -150.030       -2.475      -30.452       31.659       53.085       27.355     1002.294     2818.031      748.281        1.400        0.228      150.050       16.117        0.012      334.516        4.540      861.307
03/03/2014  07:01:00     -140.671      -27.269      -17.403       25.787       36.729       23.748      664.959     1348.987      563.949        1.171        0.129      143.290        9.666        0.005      334.570        4.630      861.280
03/03/2014  07:02:00     -125.291       12.154      -10.440       31.726       35.938       19.922     1006.516     1291.516      396.869        0.932        0.135      125.879       15.619        0.015      334.662        4.782      861.248
03/03/2014  07:03:00      -94.079       21.230       -2.914       44.215       29.579       27.218     1954.946      874.928      740.812        0.644        0.179       96.445       24.110        0.062      334.830        5.060      861.223
03/03/2014  07:04:00      -93.293      -24.535       -3.513       34.268       34.860       18.757     1174.327     1215.234      351.812        0.603        0.137       96.466       15.067        0.024      334.755        4.937      861.239
03/03/2014  07:05:00     -171.699      -27.388       -5.610       50.732       47.549       27.590     2573.728     2260.910      761.222        1.793        0.280      173.870       25.934        0.022      334.631        4.729      861.254
03/03/2014  07:06:00     -214.712       -7.433       -8.362       61.983       66.970       31.931     3841.891     4484.955     1019.604        2.778        0.467      214.840       27.258        0.016      334.692        4.827      861.221
03/03/2014  07:07:00     -149.295       69.515       -4.917       94.054       48.296       34.200     8846.097     2332.504     1169.608        1.974        0.617      164.685       35.944        0.048      335.089        5.489      861.160
03/03/2014  07:08:00     -141.594       55.348       -6.500       40.057       34.278       23.679     1604.532     1174.969      560.713        1.325        0.167      152.027       11.708        0.006      335.307        5.851      861.128
03/03/2014  07:09:00     -160.722      -44.801       -6.072       55.373       61.056       25.461     3066.131     3727.867      648.245        1.766        0.372      166.849       12.018        0.005      334.998        5.338      861.156
03/03/2014  07:10:00     -162.428      -43.939      -24.114       57.782       42.363       24.307     3338.735     1794.593      590.850        1.731        0.286      168.266       26.424        0.025      334.848        5.089      861.179
03/03/2014  07:11:00     -165.004      -25.981      -12.987       41.132       37.695       23.982     1691.860     1420.948      575.156        1.588        0.184      167.037       14.519        0.008      334.978        5.307      861.182
03/03/2014  07:12:00     -145.890      -12.806      -10.451       56.124       55.410       23.431     3149.908     3070.248      548.992        1.416        0.338      146.451       23.111        0.025      335.083        5.482      861.183
03/03/2014  07:13:00      -91.210      -11.657       12.958      101.809       48.897       34.249    10365.100     2390.899     1172.995        1.127        0.696       91.952       45.916        0.249      335.082        5.479      861.166
03/03/2014  07:14:00     -136.760      -19.419      -13.641       56.687       64.300       30.381     3213.414     4134.543      922.992        1.377        0.414      138.131       30.106        0.048      335.474        6.132      861.159
03/03/2014  07:15:00     -172.557      -27.093       -5.971       69.153       46.175       39.549     4782.189     2132.144     1564.144        1.951        0.424      174.671       43.615        0.062      335.543        6.246      861.167
03/03/2014  07:16:00     -159.960      -75.923        2.191       67.268       53.844       32.027     4525.043     2899.146     1025.718        1.990        0.422      177.063       28.156        0.025      335.762        6.610      861.188
03/03/2014  07:17:00      -64.675      -96.419       10.878       73.125       56.947       38.074     5347.311     3242.957     1449.648        1.182        0.502      116.101       37.165        0.102      336.157        7.269      861.203
03/03/2014  07:18:00       42.301      -98.618        9.572       69.329      117.427       58.013     4806.473    13789.111     3365.551        1.678        1.098      107.307       60.108        0.314      335.904        6.848      861.200
03/03/2014  07:19:00       97.597     -120.313      -14.126       74.720       86.235       65.720     5583.024     7436.393     4319.103        2.077        0.867      154.921       64.685        0.174      335.633        6.395      861.179
03/03/2014  07:20:00      107.672      -84.657      -11.346       85.378      105.210       57.592     7289.419    11069.194     3316.813        2.028        1.084      136.967       71.382        0.272      335.653        6.429      861.178
03/03/2014  07:21:00       -7.150       43.124       98.083       33.061       38.442       23.469     1093.019     1477.779      550.785        0.733        0.156       43.712       22.223        0.258      335.672        6.462      861.141
03/03/2014  07:22:00       13.986      -17.037       51.851       36.632       49.138       34.731     1341.914     2414.508     1206.268        0.407        0.248       22.043       23.372        1.124      335.707        6.520      861.130
03/03/2014  07:23:00       54.443      -22.841       39.353       60.054       65.925       61.647     3606.521     4346.056     3800.311        0.839        0.588       59.041       52.173        0.781      335.613        6.364      861.117
03/03/2014  07:24:00      109.994     -100.178       19.086       74.915      103.036       56.211     5612.261    10616.506     3159.683        2.094        0.969      148.776       72.397        0.237      335.517        6.201      861.140
03/03/2014  07:25:00       79.259      -48.319       17.218       64.415       69.251       40.529     4149.277     4795.749     1642.566        0.975        0.529       92.826       49.753        0.287      335.486        6.152      861.152
03/03/2014  07:26:00       45.400        8.600       35.977       39.303       42.024       23.434     1544.707     1765.997      549.160        0.364        0.193       46.207       10.879        0.055      335.455        6.099      861.199
03/03/2014  07:27:00       54.918       28.344       59.343       61.197       56.217       39.010     3745.030     3160.362     1521.806        0.788        0.421       61.801       47.022        0.579      335.328        5.889      861.275
03/03/2014  07:28:00       20.988       71.711       88.273       36.213       44.128       33.009     1311.350     1947.245     1089.570        0.886        0.217       74.719       34.455        0.213      335.290        5.825      861.311
03/03/2014  07:29:00       77.074       78.437       37.111       20.529       27.565       26.753      421.451      759.826      715.743        0.768        0.095      109.967       12.207        0.012      335.281        5.809      861.334
03/03/2014  07:30:00       36.353       70.307       -7.773       33.919       43.841       19.304     1150.504     1922.053      372.626        0.488        0.172       79.149       19.598        0.061      335.283        5.812      861.330
03/03/2014  07:31:00       11.433       68.111       -2.923       17.370       37.642       17.545      301.717     1416.941      307.811        0.340        0.101       69.064       17.813        0.067      335.442        6.077      861.340
03/03/2014  07:32:00       18.949       77.390        1.182       39.863       34.159       29.384     1589.096     1166.804      863.393        0.498        0.181       79.676       23.425        0.086      335.414        6.031      861.393
03/03/2014  07:33:00      102.093       63.302        1.025       35.079       34.351       28.976     1230.529     1180.007      839.628        0.884        0.163      120.125       17.029        0.020      335.387        5.986      861.390
03/03/2014  07:34:00       86.721       54.568       12.890       41.404       31.553       38.106     1714.309      995.594     1452.088        0.741        0.208      102.461       29.671        0.084      335.325        5.882      861.441
03/03/2014  07:35:00       40.736       74.335       77.905       37.208       31.201       23.778     1384.455      973.477      565.387        0.809        0.146       84.765       12.623        0.022      335.402        6.013      861.454
03/03/2014  07:36:00       69.155       61.556       27.432       40.566       27.951       34.308     1645.602      781.285     1177.071        0.646        0.180       92.583       29.645        0.103      335.274        5.797      861.440
03/03/2014  07:37:00       53.391       25.694        4.455       30.990       22.340       23.858      960.361      499.085      569.181        0.278        0.101       59.252       23.140        0.153      335.445        6.083      861.418
03/03/2014  07:38:00       59.278       23.432        3.742       25.783       25.245       19.861      664.747      637.303      394.472        0.289        0.085       63.741       14.051        0.049      335.332        5.893      861.425
03/03/2014  07:39:00      121.779       62.134        7.121       29.513       23.399       26.110      871.016      547.498      681.739        1.042        0.105      136.714       16.584        0.015      335.212        5.696      861.428
03/03/2014  07:40:00       45.140       31.415       45.228       40.926       35.726       24.637     1674.912     1276.368      606.959        0.431        0.178       54.996       16.437        0.089      335.311        5.859      861.412
03/03/2014  07:41:00       74.197       32.863       30.794       44.051       32.723       33.604     1940.494     1070.809     1129.261        0.584        0.207       81.149       28.876        0.127      335.370        5.960      861.407
03/03/2014  07:42:00       43.175       75.207       90.146       44.252       53.276       38.102     1958.233     2838.383     1451.780        1.095        0.312       86.719       34.975        0.163      335.458        6.106      861.409
03/03/2014  07:43:00       24.728       55.672       90.765       49.308       55.261       43.548     2431.317     3053.747     1896.441        0.966        0.369       60.917       31.507        0.268      335.554        6.265      861.436
03/03/2014  07:44:00       34.580       40.086       94.839       66.960       54.217       39.213     4483.675     2939.466     1537.633        1.038        0.448       52.940       39.888        0.568      335.471        6.127      861.447
03/03/2014  07:45:00       62.154      -33.970       23.009       30.196       63.942       48.700      911.828     4088.548     2371.693        0.646        0.369       70.832       51.057        0.520      335.240        5.742      861.425
03/03/2014  07:46:00       15.700      -24.236       11.655       31.969       40.923       33.581     1022.029     1674.716     1127.685        0.240        0.191       28.877       33.278        1.328      335.562        6.279      861.422
03/03/2014  07:47:00       11.898        9.054       56.704       31.795       45.702       29.659     1010.953     2088.703      879.650        0.371        0.199       14.951       19.911        1.774      335.764        6.614      861.399
03/03/2014  07:48:00        7.174      -41.864       29.140       32.574       41.518       37.147     1061.060     1723.710     1379.886        0.341        0.208       42.475       11.424        0.072      335.747        6.588      861.372
03/03/2014  07:49:00      -12.665       -7.407        6.334       26.850       18.105       17.578      720.906      327.804      308.984        0.081        0.068       14.672       12.249        0.697      335.676        6.468      861.311
03/03/2014  07:50:00      -61.695      -35.358       -0.045       42.554       45.857       20.044     1810.808     2102.869      401.775        0.469        0.216       71.109       15.225        0.046      335.588        6.322      861.283
03/03/2014  07:51:00      -22.580      -52.414        7.728       27.182       20.422       18.461      738.851      417.063      340.802        0.241        0.075       57.071        7.312        0.016      335.549        6.256      861.254
03/03/2014  07:52:00      -27.375        0.009       12.458       22.397       26.272       21.847      501.608      690.219      477.282        0.129        0.083       27.375       17.514        0.409      335.843        6.749      861.220
03/03/2014  07:53:00       -8.426       28.709       53.398       10.788       20.220       12.011      116.387      408.857      144.271        0.221        0.033       29.920       11.110        0.138      336.128        7.221      861.151
03/03/2014  07:54:00       -4.279        5.279       46.954       13.839       25.423       16.056      191.522      646.312      257.799        0.167        0.055        6.795       12.186        3.216      336.235        7.401      861.095
03/03/2014  07:55:00       10.497       50.929       69.622       29.836       29.181       20.347      890.210      851.551      413.985        0.485        0.108       51.999        8.536        0.027      336.033        7.063      861.048
03/03/2014  07:56:00       80.605       53.645       29.255       35.700       33.191       32.404     1274.499     1101.633     1049.994        0.683        0.171       96.825       13.652        0.020      335.825        6.717      860.984
03/03/2014  07:57:00      155.157       95.095        5.134       32.599       29.846       29.270     1062.704      890.770      856.734        1.798        0.141      181.980        9.888        0.003      335.682        6.479      860.941
03/03/2014  07:58:00      175.632      113.475       -6.022       41.089       41.327       32.809     1688.295     1707.932     1076.451        2.412        0.224      209.101       14.907        0.005      335.518        6.203      860.928
03/03/2014  07:59:00      169.023      118.820       29.593       58.828       42.944       56.944     3460.713     1844.224     3242.616        2.605        0.427      206.608       38.871        0.035      335.551        6.257      860.952
03/03/2014  08:00:00      103.541       64.986       58.969       86.795       76.791       58.289     7533.289     5896.932     3397.654        1.762        0.841      122.246       56.430        0.213      335.555        6.266      861.031
03/03/2014  08:01:00       71.284       61.667       99.934       74.658       62.005       48.273     5573.813     3844.668     2330.272        1.531        0.587       94.256       33.314        0.125      335.520        6.209      861.103
03/03/2014  08:02:00       78.622       36.391       34.711       53.633       40.569       39.042     2876.465     1645.882     1524.260        0.738        0.302       86.635       36.797        0.180      335.451        6.092      861.150
03/03/2014  08:03:00       55.128        3.091       -1.820       36.057       35.784       21.381     1300.080     1280.480      457.130        0.304        0.152       55.215       11.096        0.040      335.450        6.092      861.186
03/03/2014  08:04:00       13.954      -65.056       10.847       22.716       39.694       26.857      516.030     1575.608      721.282        0.368        0.141       66.535       17.511        0.069      335.528        6.223      861.255
03/03/2014  08:05:00       22.131      -32.211       12.194       23.974       27.726       26.153      574.731      768.757      683.986        0.185        0.101       39.081       15.999        0.168      335.562        6.278      861.300
03/03/2014  08:06:00       26.227       38.595       33.275       24.634       24.425       21.311      606.832      596.569      454.153        0.247        0.083       46.663       15.805        0.115      335.506        6.185      861.292
03/03/2014  08:07:00       55.068       46.475       12.476       22.890       23.347       17.363      523.974      545.066      301.459        0.336        0.069       72.059        8.092        0.013      335.471        6.127      861.279
03/03/2014  08:08:00       48.475       37.483       21.392       15.193       15.350       20.680      230.812      235.635      427.667        0.255        0.045       61.276        9.457        0.024      335.556        6.268      861.303
03/03/2014  08:09:00       21.332        4.501       43.241       33.960       41.889       28.476     1153.311     1754.652      810.881        0.303        0.186       21.801       28.595        1.720      335.772        6.628      861.353
03/03/2014  08:10:00       26.241       43.153       57.541       43.978       37.236       27.161     1934.096     1386.541      737.737        0.496        0.203       50.505       24.179        0.229      335.695        6.501      861.363
03/03/2014  08:11:00       66.567       50.950       22.460       14.607       14.793       22.410      213.358      218.826      502.217        0.423        0.047       83.827       11.590        0.019      335.498        6.171      861.320
03/03/2014  08:12:00       50.552       32.698        0.387       29.119       20.763       18.793      847.943      431.089      353.175        0.263        0.082       60.205        8.510        0.020      335.776        6.635      861.334
03/03/2014  08:13:00       21.035       56.333       -4.422       29.973       32.345       20.446      898.406     1046.179      418.057        0.300        0.118       60.132       13.045        0.047      335.729        6.556      861.367
03/03/2014  08:14:00       25.464       37.257        2.760       22.092       41.343       21.035      488.063     1709.272      442.482        0.234        0.132       45.127       19.861        0.194      335.799        6.674      861.428
03/03/2014  08:15:00       21.360       27.561       -2.256       19.299       13.378       13.483      372.470      178.969      181.789        0.098        0.037       34.869        7.258        0.043      335.737        6.569      861.461
03/03/2014  08:16:00       27.635       73.064       -1.374       26.110       30.877       26.553      681.708      953.390      705.066        0.422        0.117       78.115       21.460        0.075      335.831        6.725      861.450
03/03/2014  08:17:00       96.993       51.254        5.276       40.191       25.974       26.147     1615.312      674.646      683.685        0.752        0.149      109.703       14.343        0.017      335.778        6.639      861.455
03/03/2014  08:18:00       90.561       47.563       -1.268       33.756       33.433       26.878     1139.465     1117.785      722.428        0.672        0.149      102.292       12.116        0.014      335.778        6.640      861.468
03/03/2014  08:19:00       96.810       40.243       -5.409       29.282       31.041       27.632      857.410      963.522      763.513        0.680        0.129      104.841       14.551        0.019      335.652        6.430      861.486
03/03/2014  08:20:00       91.628       86.719        0.014       55.282       36.852       31.233     3056.060     1358.070      975.478        1.065        0.269      126.158       28.715        0.052      335.729        6.558      861.479
03/03/2014  08:21:00       33.775      101.879      -15.166       35.557       48.079       33.056     1264.326     2311.620     1092.679        0.821        0.233      107.332       32.851        0.094      335.776        6.636      861.473
03/03/2014  08:22:00       85.027       61.992        6.808       54.440       26.323       26.561     2963.749      692.924      705.476        0.774        0.218      105.227       23.165        0.048      335.885        6.816      861.478
03/03/2014  08:23:00       51.875       98.961       -5.411       60.727       72.086       33.567     3687.739     5196.459     1126.717        1.126        0.501      111.733       36.292        0.106      335.984        6.981      861.481
03/03/2014  08:24:00       90.445       80.949        5.002       39.733       32.373       31.513     1578.732     1047.983      993.065        0.919        0.181      121.380       23.625        0.038      336.031        7.059      861.484
03/03/2014  08:25:00      111.311      106.596       -1.058       47.226       35.686       36.979     2230.336     1273.491     1367.462        1.431        0.244      154.119       20.979        0.019      336.055        7.099      861.471
03/03/2014  08:26:00       95.775       71.654       17.666       47.559       42.518       43.439     2261.851     1807.748     1886.986        1.029        0.298      119.613       27.285        0.052      336.247        7.421      861.415
03/03/2014  08:27:00      115.436       95.820        7.056       59.314       51.915       50.830     3518.181     2695.205     2583.693        1.568        0.440      150.023       33.695        0.050      336.364        7.614      861.370
03/03/2014  08:28:00      100.804       80.289        4.862       59.651       55.711       46.473     3558.276     3103.713     2159.710        1.273        0.441      128.871       30.149        0.055      336.484        7.817      861.363
03/03/2014  08:29:00      104.272       79.603       15.647       68.168       44.570       41.064     4646.936     1986.479     1686.233        1.289        0.416      131.184       18.790        0.021      336.549        7.925      861.362
03/03/2014  08:30:00       91.660       60.222       29.809       55.352       42.925       36.366     3063.818     1842.556     1322.491        0.957        0.311      109.673       30.270        0.076      336.590        7.994      861.383
03/03/2014  08:31:00        7.217       48.249       56.121       33.164       41.209       33.108     1099.819     1698.172     1096.170        0.471        0.195       48.786       27.299        0.313      336.951        8.597      861.419
03/03/2014  08:32:00       26.659       72.443       57.496       34.725       25.031       25.618     1205.824      626.561      656.278        0.588        0.124       77.193       23.445        0.092      336.724        8.218      861.438
03/03/2014  08:33:00       47.970       30.672       11.426       30.028       23.444       16.638      901.655      549.628      276.836        0.255        0.086       56.938        8.692        0.023      336.748        8.257      861.420
03/03/2014  08:34:00       71.137       36.104        2.241       34.030       28.340       24.278     1158.018      803.137      589.417        0.446        0.128       79.774       18.859        0.056      336.765        8.286      861.395
03/03/2014  08:35:00       38.232       21.894       11.829       37.025       19.055       15.474     1370.824      363.077      239.447        0.203        0.099       44.057        8.217        0.035      337.045        8.754      861.399
03/03/2014  08:36:00       20.130       20.452        6.107       31.418       17.906       24.299      987.068      320.634      590.459        0.138        0.095       28.697       13.207        0.212      337.008        8.693      861.418
03/03/2014  08:37:00      -39.544       32.473      -11.584       23.076       30.314       11.356      532.491      918.965      128.966        0.217        0.079       51.169        9.235        0.033      336.901        8.514      861.432
03/03/2014  08:38:00      -31.410       55.470        4.261       31.160       34.915       25.117      970.916     1219.053      630.876        0.345        0.141       63.745       19.910        0.098      337.226        9.056      861.442
03/03/2014  08:39:00      -26.770       32.228       10.870       25.324       32.372       19.582      641.281     1047.979      383.439        0.197        0.104       41.896       17.183        0.168      337.405        9.359      861.478
03/03/2014  08:40:00      -56.164       56.568       -9.254       21.103       40.835       19.075      445.333     1667.496      363.837        0.446        0.124       79.714       21.357        0.072      337.024        8.718      861.527
03/03/2014  08:41:00        8.744       99.103       -4.008       24.764       40.949       25.372      613.243     1676.791      643.741        0.642        0.147       99.488       24.677        0.062      337.342        9.251      861.561
03/03/2014  08:42:00        0.919       48.990       20.045       31.345       48.193       29.903      982.520     2322.595      894.172        0.350        0.210       48.999       27.237        0.309      337.791       10.005      861.563
03/03/2014  08:43:00      -20.787       86.746        2.064       27.062       47.200       26.826      732.345     2227.848      719.615        0.582        0.184       89.202       27.593        0.096      337.644        9.758      861.525
03/03/2014  08:44:00      -53.657       75.796        1.656       32.083       41.607       25.514     1029.324     1731.112      650.950        0.602        0.171       92.866       18.659        0.040      337.568        9.629      861.485
03/03/2014  08:45:00       -8.779       15.377       13.743       19.146       22.916       18.419      366.586      525.149      339.257        0.087        0.062       17.706       10.477        0.350      338.099       10.521      861.488
03/03/2014  08:46:00      -36.602       11.230       -4.336       25.415       25.977       15.740      645.921      674.785      247.762        0.153        0.078       38.286        5.960        0.024      337.467        9.459      861.511
03/03/2014  08:47:00       11.608       12.986       15.846       30.864       15.534       25.389      952.573      241.297      644.598        0.120        0.092       17.418       14.965        0.738      337.954       10.276      861.539
03/03/2014  08:48:00      -32.623       53.984       -0.746       35.346       49.440       23.483     1249.362     2444.279      551.474        0.411        0.212       63.075       18.404        0.085      337.621        9.718      861.570
03/03/2014  08:49:00      -34.973      -21.668       -1.161       39.521       24.030       15.644     1561.899      577.455      244.741        0.204        0.119       41.141       19.064        0.215      337.741        9.920      861.606
03/03/2014  08:50:00        3.872      -16.558        1.921       18.897       15.038       15.479      357.104      226.155      239.594        0.056        0.041       17.005       11.123        0.428      338.066       10.464      861.614
03/03/2014  08:51:00       14.918       19.501       37.443       26.779       21.061       18.569      717.096      443.572      344.814        0.175        0.075       24.552       12.432        0.256      338.516       11.222      861.598
03/03/2014  08:52:00      -27.088       27.063        9.131       22.979       54.957       19.700      528.049     3020.301      388.096        0.274        0.197       38.290       26.855        0.492      338.126       10.565      861.608
03/03/2014  08:53:00      -32.773       85.782      -15.948       49.320       30.957       25.608     2432.501      958.321      655.769        0.637        0.202       91.830       13.898        0.023      337.749        9.934      861.639
03/03/2014  08:54:00        2.869       17.400        9.101       22.404       43.013       22.271      501.922     1850.093      495.989        0.162        0.142       17.635       25.025        2.014      338.256       10.784      861.665
03/03/2014  08:55:00        9.115       15.271       -5.490       16.864       32.072       23.085      284.387     1028.589      532.940        0.110        0.092       17.785       17.706        0.991      338.139       10.588      861.668
03/03/2014  08:56:00       54.154       44.152       10.630       33.019       20.412       28.958     1090.277      416.632      838.560        0.367        0.117       69.872       15.702        0.050      338.018       10.384      861.650
03/03/2014  08:57:00       55.470       77.449       10.986       38.444       47.078       34.342     1477.952     2216.350     1179.400        0.703        0.244       95.264       31.302        0.108      338.117       10.550      861.618
03/03/2014  08:58:00       36.996       57.830       13.050       40.319       44.424       33.547     1625.583     1973.532     1125.420        0.480        0.236       68.651       30.148        0.193      338.411       11.044      861.612
03/03/2014  08:59:00       90.601       67.790       13.774       62.852       52.785       39.327     3950.428     2786.266     1546.592        1.064        0.414      113.155       28.653        0.064      338.100       10.522      861.613
03/03/2014  09:00:00      108.147      114.724       68.234       77.955       53.772       57.584     6077.060     2891.401     3315.949        2.090        0.614      157.662       45.573        0.084      338.360       10.957      861.585
03/03/2014  09:01:00      136.166      109.132       30.134       49.474       39.055       53.640     2447.697     1525.283     2877.266        1.910        0.343      174.503       30.660        0.031      337.791       10.003      861.557
03/03/2014  09:02:00       56.397       45.745       23.455       61.087       44.531       40.999     3731.571     1983.027     1680.887        0.661        0.370       72.617       28.362        0.153      338.406       11.035      861.514
03/03/2014  09:03:00       54.013       45.597       -3.676       35.885       41.041       32.964     1287.723     1684.384     1086.642        0.453        0.203       70.686       27.637        0.153      338.272       10.812      861.518
03/03/2014  09:04:00       86.089       46.624       38.880       70.562       49.811       48.085     4979.025     2481.150     2312.173        1.043        0.489       97.903       34.034        0.121      338.301       10.860      861.538
03/03/2014  09:05:00       17.487      -43.653       24.671       58.327       82.290       43.891     3402.003     6771.621     1926.401        0.746        0.605       47.025       43.633        0.861      338.431       11.077      861.530
03/03/2014  09:06:00       13.513      -28.543       27.304       41.721       62.834       35.281     1740.625     3948.051     1244.768        0.434        0.347       31.580       40.198        1.620      338.574       11.318      861.525
03/03/2014  09:07:00       -8.154      -40.979       -7.804       36.166       34.181       19.598     1307.983     1168.331      384.088        0.233        0.143       41.782       13.196        0.100      338.294       10.847      861.545
03/03/2014  09:08:00       18.495      -67.674        3.876       45.862       41.090       33.700     2103.327     1688.382     1135.714        0.493        0.246       70.155       21.246        0.092      338.274       10.814      861.571
03/03/2014  09:09:00       -8.758      -31.810       23.569       33.876       42.815       31.217     1147.585     1833.146      974.496        0.280        0.198       32.993       31.191        0.894      338.746       11.608      861.548
03/03/2014  09:10:00       68.254     -119.019      -20.570       33.371       40.448       33.051     1113.596     1636.011     1092.370        1.154        0.192      137.201       22.249        0.026      338.161       10.625      861.506
03/03/2014  09:11:00       35.445      -36.115       24.343       41.302       49.081       43.658     1705.876     2408.896     1906.030        0.459        0.301       50.602       29.742        0.345      338.827       11.745      861.445
03/03/2014  09:12:00       18.073       21.225       46.126       30.330       35.861       24.804      919.913     1285.978      615.220        0.286        0.141       27.877        6.690        0.058      339.012       12.055      861.437
03/03/2014  09:13:00       16.049      -74.133        0.709       44.020       70.827       30.865     1937.747     5016.517      952.649        0.683        0.395       75.851       29.993        0.156      338.540       11.261      861.458
03/03/2014  09:14:00      -49.622      -34.833      -13.955       56.042       63.343       22.470     3140.652     4012.374      504.903        0.576        0.383       60.627       14.635        0.058      337.953       10.277      861.435
03/03/2014  09:15:00      -81.076       24.257        0.225       42.370       27.026       20.419     1795.208      730.386      416.930        0.505        0.147       84.627       23.588        0.078      338.241       10.760      861.423
03/03/2014  09:16:00        3.692       18.515       16.611       31.591       23.515       22.861      997.979      552.966      522.626        0.135        0.104       18.879       17.854        0.894      339.148       12.284      861.443
03/03/2014  09:17:00       25.510       50.114       51.276       36.181       33.426       48.107     1309.077     1117.323     2314.308        0.527        0.237       56.233       28.864        0.263      338.924       11.907      861.495
03/03/2014  09:18:00       37.604       90.891       97.266       61.647       46.120       36.141     3800.354     2127.077     1306.140        1.318        0.362       98.363       31.486        0.102      338.543       11.265      861.524
03/03/2014  09:19:00      109.181       52.840       46.048       93.050       63.092       41.742     8658.294     3980.656     1742.412        1.560        0.719      121.295       21.700        0.032      338.782       11.666      861.539
03/03/2014  09:20:00       37.999      103.246      127.682       59.939       63.574       49.847     3592.647     4041.683     2484.755        1.926        0.506      110.017       44.162        0.161      338.499       11.192      861.540
03/03/2014  09:21:00       77.618       69.331       82.282       81.336       65.537       60.234     6615.589     4295.134     3628.125        1.607        0.727      104.074       55.436        0.284      338.483       11.165      861.486
03/03/2014  09:22:00       81.327       81.375       90.941       75.955       64.321       56.559     5769.107     4137.203     3198.960        1.730        0.655      115.048       53.625        0.217      338.578       11.324      861.432
03/03/2014  09:23:00       88.153      107.009       85.059       71.741       54.340       63.843     5146.780     2952.879     4075.927        1.931        0.609      138.643       56.041        0.163      338.583       11.333      861.400
03/03/2014  09:24:00       26.879      115.496      118.084       60.152       56.752       50.806     3618.249     3220.763     2581.242        1.871        0.471      118.583       45.298        0.146      338.712       11.550      861.400
03/03/2014  09:25:00       44.203       53.870       82.133       84.286       77.343       50.228     7104.135     5981.914     2522.819        1.360        0.780       69.685       40.494        0.338      338.944       11.941      861.376
03/03/2014  09:26:00      118.657      114.392       81.143       65.444       51.998       75.569     4282.853     2703.763     5710.739        2.322        0.635      164.818       52.927        0.103      338.364       10.964      861.357
03/03/2014  09:27:00      107.611       66.885       32.782       65.653       48.161       41.715     4310.343     2319.438     1740.173        1.275        0.418      126.704       39.081        0.095      338.543       11.267      861.360
03/03/2014  09:28:00       59.851      -33.520       33.751       67.093      117.577       55.164     4501.507    13824.310     3043.064        1.360        1.068       68.598       72.562        1.119      338.935       11.924      861.417
03/03/2014  09:29:00       89.627       19.335       46.523       71.956       46.992       49.573     5177.609     2208.267     2457.528        1.021        0.492       91.689       51.697        0.318      338.654       11.452      861.463
03/03/2014  09:30:00       27.038       -2.297       47.084       41.499       76.631       34.756     1722.135     5872.266     1207.995        0.588        0.440       27.136       37.430        1.903      338.952       11.954      861.473
03/03/2014  09:31:00      113.100      120.642       89.692       81.448       65.745       69.187     6633.698     4322.407     4786.846        2.556        0.787      165.366       65.923        0.159      338.588       11.339      861.471
03/03/2014  09:32:00      195.346       79.214       56.037      112.798       74.154       56.572    12723.303     5498.756     3200.341        3.450        1.071      210.796       56.686        0.072      338.369       10.971      861.440
03/03/2014  09:33:00      173.981      112.266       66.590      100.331       70.949       78.245    10066.369     5033.759     6122.271        3.426        1.061      207.058       55.792        0.073      338.484       11.165      861.428
03/03/2014  09:34:00      101.873       86.222       62.554       54.767       44.494       41.554     2999.436     1979.673     1726.706        1.421        0.335      133.462       31.180        0.055      338.562       11.298      861.473
03/03/2014  09:35:00       87.744       50.837       10.197       56.900       47.076       43.290     3237.630     2216.191     1874.018        0.886        0.366      101.407        7.934        0.006      338.541       11.262      861.484
03/03/2014  09:36:00       39.872       11.229       41.248       47.064       42.136       28.514     2215.045     1775.466      813.075        0.411        0.240       41.423       17.269        0.174      338.832       11.751      861.483
03/03/2014  09:37:00       59.026       77.657       98.033       59.762       57.595       54.803     3571.531     3317.208     3003.361        1.451        0.495       97.543       43.891        0.202      338.671       11.480      861.491
03/03/2014  09:38:00       95.916       74.129       54.910       60.351       61.171       62.256     3642.199     3741.902     3875.772        1.448        0.563      121.223       58.148        0.230      338.556       11.286      861.473
03/03/2014  09:39:00      105.559      132.797      114.061       72.662       57.597       49.724     5279.768     3317.395     2472.510        2.643        0.553      169.640       41.435        0.060      338.390       11.007      861.455
03/03/2014  09:40:00       61.564       25.317       30.728       47.617       53.795       21.803     2267.375     2893.857      475.378        0.550        0.282       66.566       24.309        0.133      338.151       10.609      861.484
03/03/2014  09:41:00      -14.372      -20.403       -4.054       18.169       18.316       13.897      330.104      335.481      193.129        0.075        0.043       24.956        8.088        0.105      338.222       10.726      861.532
03/03/2014  09:42:00       -9.190      -59.747       -0.973       37.133       35.681       23.401     1378.825     1273.161      547.624        0.343        0.160       60.449       20.450        0.114      338.412       11.045      861.547
03/03/2014  09:43:00        5.906      -12.355       14.973       17.234       17.514       22.226      297.014      306.727      494.010        0.075        0.055       13.695        9.657        0.497      338.736       11.591      861.533
03/03/2014  09:44:00       79.896       37.527       36.241       68.907       43.863       41.227     4748.219     1923.985     1699.691        0.874        0.419       88.271       27.452        0.097      338.652       11.450      861.527
03/03/2014  09:45:00      125.659       41.753       36.724       64.184       41.073       41.525     4119.580     1687.022     1724.318        1.321        0.377      132.414       38.047        0.083      338.389       11.006      861.550
03/03/2014  09:46:00       60.155       25.740       47.007       66.779       55.487       33.833     4459.441     3078.845     1144.643        0.759        0.434       65.430       29.954        0.210      338.590       11.345      861.548
03/03/2014  09:47:00      111.529       93.978       15.314       39.625       42.088       45.513     1570.176     1771.369     2071.447        1.346        0.271      145.845       18.396        0.016      338.341       10.927      861.544
03/03/2014  09:48:00      163.727       88.168        8.275       61.972       59.226       37.979     3840.485     3507.718     1442.384        2.172        0.440      185.958       14.389        0.006      338.474       11.149      861.543
03/03/2014  09:49:00      150.120      101.832       26.905       85.897       47.434       60.452     7378.237     2249.950     3654.400        2.345        0.664      181.399       51.537        0.081      338.459       11.122      861.541
03/03/2014  09:50:00      113.775       97.652       12.253       60.634       48.026       46.742     3676.473     2306.508     2184.797        1.540        0.408      149.936       21.559        0.021      338.438       11.090      861.553
03/03/2014  09:51:00      128.467      100.409       13.645       52.565       39.657       30.507     2763.083     1572.664      930.678        1.602        0.263      163.051       12.274        0.006      338.355       10.950      861.567
03/03/2014  09:52:00       56.856       47.426       11.865       45.362       34.937       19.079     2057.694     1220.617      363.993        0.463        0.182       74.040       11.905        0.026      338.441       11.095      861.581
03/03/2014  09:53:00       17.970       23.314       11.060       21.445       29.089       20.932      459.905      846.191      438.130        0.137        0.087       29.436       19.202        0.426      338.750       11.612      861.569
03/03/2014  09:54:00       21.407       18.994       11.082       35.955       36.063       31.121     1292.756     1300.544      968.499        0.225        0.178       28.619       19.013        0.441      338.739       11.595      861.575
03/03/2014  09:55:00       90.492       14.576        3.641       39.584       40.385       28.411     1566.854     1630.937      807.181        0.621        0.200       91.659       20.793        0.051      338.680       11.496      861.561
03/03/2014  09:56:00       75.061       31.132       17.229       61.118       48.159       36.625     3735.453     2319.297     1341.387        0.715        0.370       81.261       14.149        0.030      338.779       11.662      861.527
03/03/2014  09:57:00       83.870       49.120       16.939       52.006       54.960       35.239     2704.630     3020.577     1241.806        0.835        0.348       97.195       23.739        0.060      338.684       11.502      861.511
03/03/2014  09:58:00       70.627       13.745       12.671       49.539       29.239       29.329     2454.158      854.902      860.183        0.475        0.208       71.952       26.122        0.132      338.706       11.540      861.541
03/03/2014  09:59:00       41.735       13.527       18.036       40.010       35.041       20.757     1600.766     1227.839      430.850        0.275        0.163       43.872       19.345        0.194      338.695       11.521      861.606
03/03/2014  10:00:00       35.235       26.591       24.260       24.867       18.185       24.911      618.351      330.677      620.546        0.205        0.078       44.143       16.462        0.139      338.582       11.333      861.655
03/03/2014  10:01:00       29.153       28.201        4.745       21.826       23.132       21.075      476.361      535.084      444.146        0.156        0.073       40.560       14.816        0.133      338.547       11.272      861.697
03/03/2014  10:02:00       12.585       54.259       -2.812       23.892       17.664       17.895      570.815      312.033      320.240        0.216        0.060       55.699        8.959        0.026      338.610       11.378      861.723
03/03/2014  10:03:00       25.648       33.252        1.410       21.882       21.388       20.337      478.841      457.441      413.576        0.156        0.067       41.994       11.086        0.070      338.611       11.380      861.736
03/03/2014  10:04:00       17.631       34.951        3.465       13.041       14.840       23.965      170.071      220.220      574.335        0.125        0.048       39.146       12.813        0.107      338.574       11.320      861.743
03/03/2014  10:05:00        6.676        0.516       37.233       13.365       18.071       13.006      178.624      326.547      169.167        0.105        0.034        6.696        7.160        1.143      338.931       11.917      861.758
03/03/2014  10:06:00       29.478       50.010       54.595       31.311       22.602       19.657      980.364      510.829      386.383        0.411        0.094       58.051       16.489        0.081      338.731       11.582      861.757
03/03/2014  10:07:00       21.959       48.944       56.285       32.970       32.210       36.343     1086.988     1037.505     1320.830        0.474        0.172       53.645       34.169        0.406      338.761       11.632      861.720
03/03/2014  10:08:00        3.384       -2.958       40.948       34.848       51.083       34.717     1214.389     2609.465     1205.255        0.336        0.251        4.495       33.553       55.724      338.935       11.925      861.697
03/03/2014  10:09:00      -21.805      -34.606       11.762       23.400       39.555       20.396      547.565     1564.576      415.986        0.217        0.126       40.903       22.038        0.290      338.966       11.976      861.691
03/03/2014  10:10:00       -8.469       13.521       45.440       13.774       25.627       20.575      189.711      656.757      423.316        0.179        0.063       15.954       19.119        1.436      339.035       12.093      861.671
03/03/2014  10:11:00       13.574       27.659       -0.400       23.230       24.721       20.419      539.654      611.116      416.932        0.126        0.078       30.810       16.388        0.283      338.869       11.814      861.620
03/03/2014  10:12:00       43.181       60.849        4.741       39.828       41.614       29.208     1586.240     1731.736      853.118        0.488        0.209       74.613       25.859        0.120      338.809       11.713      861.549
03/03/2014  10:13:00        2.955       95.146       -0.026       21.930       32.681       18.694      480.938     1068.050      349.463        0.548        0.095       95.192       17.879        0.035      338.721       11.563      861.476
03/03/2014  10:14:00       21.248       40.381       -7.187       38.521       39.237       21.821     1483.879     1539.548      476.167        0.282        0.175       45.630       21.225        0.216      338.789       11.678      861.450
03/03/2014  10:15:00       25.135      134.870      -18.699       47.419       85.383       28.603     2248.571     7290.207      818.113        1.476        0.518      137.193       38.757        0.080      338.697       11.525      861.442
03/03/2014  10:16:00        2.467      125.227      -10.751       33.431       65.155       34.252     1117.598     4245.111     1173.193        1.117        0.327      125.251       34.921        0.078      338.722       11.567      861.428
03/03/2014  10:17:00       -3.050       93.689       -9.635       39.075       69.167       27.920     1526.852     4784.065      779.515        0.798        0.355       93.738       30.732        0.107      338.891       11.850      861.408
03/03/2014  10:18:00        2.445      154.594      -20.250       44.615       50.744       25.589     1990.537     2574.972      654.800        1.477        0.261      154.613       22.560        0.021      338.723       11.567      861.381
03/03/2014  10:19:00      -43.057      122.336       -3.488       29.348       49.055       29.246      861.308     2406.374      855.305        1.048        0.206      129.692       29.370        0.051      338.975       11.990      861.358
03/03/2014  10:20:00      -54.172      134.490       -5.900       44.868       63.806       35.780     2013.141     4071.158     1280.223        1.421        0.368      144.990       38.133        0.069      338.852       11.785      861.344
03/03/2014  10:21:00     -143.521      183.164      -39.107       36.611       68.746       28.921     1340.337     4726.027      836.440        3.129        0.345      232.696       28.281        0.015      338.600       11.360      861.350
03/03/2014  10:22:00     -103.715       88.186      -20.803       29.733       36.318       19.151      884.024     1319.032      366.758        1.077        0.128      136.138       16.750        0.015      338.622       11.399      861.345
03/03/2014  10:23:00      -65.079       87.359       -2.646       30.528       50.097       27.658      931.929     2509.755      764.985        0.804        0.210      108.935       22.170        0.041      338.856       11.792      861.337
03/03/2014  10:24:00      -42.284       69.745        5.249       34.818       69.321       30.962     1212.298     4805.398      958.631        0.683        0.349       81.562       24.609        0.091      338.915       11.892      861.356
03/03/2014  10:25:00      -75.700       -6.602       -2.543       61.110       58.678       35.000     3734.476     3443.057     1225.029        0.709        0.420       75.987       19.259        0.064      338.844       11.772      861.388
03/03/2014  10:26:00      -83.573      -11.217       -0.487       51.375       37.466       26.932     2639.363     1403.733      725.314        0.594        0.238       84.323       31.378        0.138      338.862       11.802      861.429
03/03/2014  10:27:00     -127.801      -35.372      -19.957       41.447       34.957       20.043     1717.829     1221.959      401.704        1.066        0.167      132.606       13.348        0.010      338.707       11.542      861.449
03/03/2014  10:28:00      -46.508      -15.667        1.641       59.876       23.303       26.510     3585.131      543.050      702.763        0.362        0.242       49.076       30.582        0.388      338.859       11.796      861.456
03/03/2014  10:29:00      -49.415       46.483      -10.801       37.305       54.177       26.482     1391.632     2935.119      701.270        0.487        0.251       67.842       16.334        0.058      338.849       11.781      861.488
03/03/2014  10:30:00       -4.428       35.482       12.548       22.020       31.970       20.338      484.898     1022.071      413.614        0.168        0.096       35.757       15.662        0.192      339.002       12.036      861.505
03/03/2014  10:31:00      -52.029        7.896        2.002       26.926       27.276       13.769      725.017      743.956      189.583        0.222        0.083       52.625       14.752        0.079      338.862       11.801      861.492
03/03/2014  10:32:00      -22.742      131.508       -3.295       65.941       82.724       30.054     4348.212     6843.236      903.257        1.496        0.605      133.460       26.518        0.039      338.844       11.771      861.471
03/03/2014  10:33:00      -33.803      146.671      -10.796       28.935       46.138       25.911      837.239     2128.697      671.382        1.320        0.182      150.516       21.611        0.021      338.952       11.953      861.460
03/03/2014  10:34:00      -17.429      136.630      -10.191       29.176       47.282       29.751      851.233     2235.579      885.110        1.152        0.199      137.737       27.350        0.039      338.910       11.883      861.481
03/03/2014  10:35:00      -35.208       62.709       10.014       31.697       47.439       27.340     1004.686     2250.420      747.455        0.464        0.200       71.916       13.173        0.034      339.127       12.248      861.517
03/03/2014  10:36:00      -33.359       56.300        2.200       27.064       31.584       24.117      732.471      997.522      581.637        0.330        0.116       65.441       21.213        0.105      338.966       11.977      861.546
03/03/2014  10:37:00      -13.109       16.761       -1.233       21.248       28.518       20.648      451.462      813.277      426.350        0.107        0.085       21.278        8.903        0.175      339.040       12.100      861.542
03/03/2014  10:38:00       12.648       43.014        4.529       27.986       36.860       26.508      783.201     1358.667      702.679        0.244        0.142       44.835       23.355        0.271      339.053       12.124      861.516
03/03/2014  10:39:00       33.753       52.021       -3.168       32.027       25.571       20.530     1025.741      653.891      421.477        0.298        0.105       62.012       11.647        0.035      339.002       12.038      861.475
03/03/2014  10:40:00       49.988       62.260        7.378       39.481       32.386       28.229     1558.763     1048.821      796.875        0.492        0.170       79.845       21.479        0.072      339.156       12.296      861.429
03/03/2014  10:41:00       40.638       34.050        1.444       36.910       26.025       23.983     1362.357      677.318      575.189        0.271        0.131       53.017       17.383        0.108      339.101       12.203      861.397
03/03/2014  10:42:00      -24.506      -23.621       25.828       28.084       44.136       21.008      788.704     1947.968      441.341        0.250        0.159       34.036       10.218        0.090      339.297       12.534      861.385
03/03/2014  10:43:00      -23.337       -8.121       12.731       30.586       28.870       25.019      935.488      833.449      625.935        0.158        0.120       24.710       17.535        0.504      339.217       12.398      861.415
03/03/2014  10:44:00      -24.569        5.653        5.435       29.001       42.154       21.531      841.033     1776.986      463.567        0.187        0.154       25.211       10.154        0.162      339.070       12.151      861.458
03/03/2014  10:45:00      -82.458       15.969      -10.335       37.952       34.422       34.619     1440.356     1184.868     1198.473        0.549        0.191       83.990       25.640        0.093      338.855       11.790      861.482
03/03/2014  10:46:00       -7.604        7.681       -2.880       15.681       12.579       16.444      245.882      158.237      270.413        0.040        0.034       10.808       13.589        1.581      339.055       12.127      861.487
03/03/2014  10:47:00        7.210       11.241        5.449       12.121       10.908       16.346      146.921      118.988      267.204        0.037        0.027       13.355       11.041        0.684      339.203       12.375      861.500
03/03/2014  10:48:00      -30.841       -4.429        4.815       24.196       12.679       15.183      585.446      160.762      230.512        0.099        0.049       31.157       17.816        0.327      339.101       12.204      861.516
03/03/2014  10:49:00      -25.050       -6.078        1.234       28.511       15.669       19.437      812.852      245.518      377.803        0.105        0.072       25.776       20.422        0.628      339.092       12.189      861.557
03/03/2014  10:50:00        4.271      -18.727       23.158       33.663       21.332       23.512     1133.171      455.034      552.834        0.152        0.107       19.208       20.610        1.151      339.214       12.393      861.595
03/03/2014  10:51:00      -39.087      -42.386        8.130       37.247       23.964       18.638     1387.352      574.273      347.375        0.285        0.115       57.658       20.353        0.125      338.993       12.022      861.615
03/03/2014  10:52:00      -37.557      -77.400        4.657       31.654       32.427       22.995     1002.002     1051.538      528.758        0.500        0.129       86.031       21.713        0.064      338.971       11.985      861.623
03/03/2014  10:53:00      -11.164      -33.914        1.324       24.972       27.260       16.941      623.578      743.081      287.004        0.146        0.083       35.704       19.976        0.313      339.020       12.068      861.610
03/03/2014  10:54:00      -31.852       22.890        1.881       29.233       24.515       29.155      854.567      601.010      849.991        0.192        0.115       39.224       24.405        0.387      339.191       12.357      861.581
03/03/2014  10:55:00      -41.481       -5.079        1.775       19.727       22.451       11.898      389.156      504.053      141.569        0.139        0.052       41.791        4.959        0.014      339.017       12.062      861.515
03/03/2014  10:56:00       47.480       34.332       17.070       31.680       41.562       32.983     1003.637     1727.421     1087.883        0.377        0.191       58.592       29.408        0.252      339.073       12.157      861.433
03/03/2014  10:57:00       52.416       65.277       66.982       38.686       46.594       34.901     1496.635     2171.008     1218.054        0.819        0.244       83.717       31.558        0.142      339.126       12.246      861.355
03/03/2014  10:58:00       19.504       28.762       66.153       36.051       31.958       33.712     1299.702     1021.337     1136.495        0.452        0.173       34.751       26.545        0.583      339.351       12.625      861.323
03/03/2014  10:59:00       11.055        3.915       41.159       30.923       47.830       32.578      956.208     2287.693     1061.330        0.307        0.215       11.728       21.967        3.508      339.326       12.582      861.353
03/03/2014  11:00:00        4.158        2.648       -4.893       21.651       12.815       20.147      468.771      164.223      405.899        0.054        0.052        4.930       15.807       10.281      339.275       12.497      861.388
03/03/2014  11:01:00      -58.382      -31.473       -8.230       49.119       43.450       29.777     2412.695     1887.908      886.645        0.483        0.259       66.325       17.754        0.072      339.169       12.320      861.414
03/03/2014  11:02:00      -53.669      -47.808       12.388       51.259       44.887       27.011     2627.465     2014.801      729.586        0.534        0.269       71.875       19.693        0.075      339.116       12.229      861.405
03/03/2014  11:03:00      -47.481      -60.777        4.797       51.239       54.034       32.918     2625.391     2919.698     1083.596        0.630        0.331       77.126       29.420        0.146      338.959       11.967      861.378
03/03/2014  11:04:00      -85.493     -100.217      -10.943       45.415       50.044       24.574     2062.564     2504.430      603.898        1.132        0.259      131.730       27.733        0.044      338.818       11.727      861.349
03/03/2014  11:05:00      -90.392      -83.678       -7.325       38.221       39.057       23.000     1460.827     1525.432      529.001        0.937        0.176      123.178       23.340        0.036      338.854       11.788      861.331
03/03/2014  11:06:00      -69.690      -46.061       -4.766       29.830       44.325       17.422      889.825     1964.676      303.525        0.508        0.158       83.536       13.119        0.025      338.794       11.689      861.296
03/03/2014  11:07:00      -67.330       31.876      -14.374       19.846       48.917       24.686      393.872     2392.855      609.387        0.458        0.170       74.494       17.170        0.053      338.775       11.654      861.241
03/03/2014  11:08:00      -84.161      -24.850      -28.625       54.483       26.303       20.679     2968.360      691.839      427.634        0.630        0.204       87.753       21.545        0.060      338.799       11.697      861.232
03/03/2014  11:09:00      -73.876      -13.272        2.191       28.095       17.872       18.224      789.319      319.409      332.123        0.354        0.072       75.059       17.309        0.053      338.801       11.699      861.260
03/03/2014  11:10:00      -70.657      -44.657       -2.524       56.549       40.542       24.072     3197.740     1643.629      579.448        0.621        0.271       83.586        9.548        0.013      338.910       11.883      861.288
03/03/2014  11:11:00     -111.631      -35.245        4.827       74.464       46.995       25.179     5544.908     2208.536      633.992        1.106        0.419      117.063       28.529        0.059      338.963       11.972      861.319
03/03/2014  11:12:00     -120.054       -1.421       -3.853       62.019       35.850       31.401     3846.312     1285.241      986.038        1.027        0.306      120.062       35.010        0.085      338.977       11.995      861.334
03/03/2014  11:13:00      -51.622       15.867       11.735       46.329       31.499       26.823     2146.366      992.182      719.472        0.346        0.193       54.005       30.492        0.319      339.075       12.162      861.330
03/03/2014  11:14:00      -76.651      -20.927      -14.582       18.248       19.855       11.253      332.988      394.219      126.631        0.369        0.043       79.456        4.753        0.004      338.840       11.764      861.308
03/03/2014  11:15:00      -62.155        9.469      -11.762       20.078       19.447       15.842      403.124      378.177      250.984        0.256        0.052       62.872        9.618        0.023      338.979       11.999      861.262
03/03/2014  11:16:00      -70.284       24.243       -7.913       25.304       16.476       13.228      640.318      271.443      174.992        0.334        0.054       74.348        7.488        0.010      338.949       11.948      861.239
03/03/2014  11:17:00     -152.958      -60.424      -12.564       42.073       46.594       23.142     1770.098     2170.990      535.557        1.584        0.224      164.460       16.255        0.010      338.951       11.950      861.251
03/03/2014  11:18:00     -228.085      -86.429      -14.928       67.757       54.429       32.286     4591.074     2962.558     1042.368        3.415        0.430      243.911       26.717        0.012      338.801       11.695      861.279
03/03/2014  11:19:00     -225.918     -114.967      -11.766       60.209       47.564       33.357     3625.116     2262.295     1112.685        3.570        0.350      253.488       30.371        0.014      338.784       11.665      861.305
03/03/2014  11:20:00     -158.030      -60.898      -16.480       49.252       31.999       26.284     2425.740     1023.955      690.857        1.655        0.207      169.358       27.079        0.026      338.798       11.694      861.333
03/03/2014  11:21:00      -18.132      -72.584       -1.745       35.208       36.441       25.637     1239.610     1327.947      657.260        0.441        0.161       74.815       21.692        0.084      338.896       11.861      861.328
03/03/2014  11:22:00      -88.215      -24.293      -16.980       68.968       62.126       25.047     4756.625     3859.625      627.350        0.895        0.462       91.499       40.821        0.199      338.756       11.625      861.312
03/03/2014  11:23:00     -110.661       12.601      -28.855       61.122       91.398       31.757     3735.928     8353.650     1008.499        1.317        0.655      111.376       42.303        0.144      338.824       11.738      861.257
03/03/2014  11:24:00       28.041      -90.530       -3.269       17.620       17.393       18.223      310.475      302.532      332.081        0.497        0.047       94.773       11.354        0.014      338.765       11.640      861.209
03/03/2014  11:25:00       -7.460      -23.834       -3.123       16.124       16.798       16.021      259.993      282.171      256.685        0.072        0.040       24.974       13.728        0.302      338.984       12.007      861.187
03/03/2014  11:26:00      -30.371        5.407        4.197       18.459       21.968       15.559      340.722      482.580      242.069        0.102        0.053       30.849       10.776        0.122      339.041       12.102      861.200
03/03/2014  11:27:00       30.162       67.615        9.867       48.794       46.548       29.968     2380.873     2166.679      898.074        0.551        0.272       74.037       20.224        0.075      339.199       12.370      861.227
03/03/2014  11:28:00      -54.411      121.329        0.928       37.423       50.638       41.877     1400.476     2564.186     1753.722        1.170        0.286      132.970       28.035        0.044      339.026       12.076      861.230
03/03/2014  11:29:00       -8.780       24.323        8.077       24.603       26.462       19.875      605.309      700.219      395.029        0.122        0.085       25.859       15.751        0.371      339.247       12.449      861.231
03/03/2014  11:30:00      -11.985       17.382       -6.994       15.970       22.611       18.929      255.036      511.262      358.292        0.081        0.056       21.113       10.658        0.255      339.201       12.372      861.223
03/03/2014  11:31:00      -37.775      -21.104        0.964       92.961       43.977       22.379     8641.672     1933.969      500.815        0.647        0.554       43.271       38.677        0.799      339.253       12.460      861.222
03/03/2014  11:32:00     -142.742       13.945       -6.471       53.242       54.431       33.016     2834.658     2962.702     1090.069        1.375        0.344      143.421       32.460        0.051      339.047       12.112      861.193
03/03/2014  11:33:00       21.011      -30.319       16.998       57.654       42.917       29.565     3324.017     1841.880      874.109        0.384        0.302       36.887       17.292        0.220      339.216       12.397      861.174
03/03/2014  11:34:00      -46.800       48.439      -21.730       79.293       59.297       27.240     6287.404     3516.118      742.024        0.778        0.527       67.354       39.012        0.335      339.011       12.053      861.148
03/03/2014  11:35:00      -81.445        5.746       -2.963       40.266       70.020       20.882     1621.368     4902.822      436.067        0.682        0.348       81.647       21.706        0.071      339.092       12.189      861.149
03/03/2014  11:36:00       -0.250      -52.282       14.912       18.829       21.809       14.845      354.539      475.646      220.371        0.200        0.053       52.283       12.906        0.061      339.046       12.110      861.164
03/03/2014  11:37:00      -25.999      -56.675        6.750       65.478       28.836       27.694     4287.333      831.491      766.958        0.491        0.294       62.354       27.993        0.202      339.169       12.317      861.170
03/03/2014  11:38:00      -72.064      -25.613        2.380       57.961       50.674       33.451     3359.446     2567.860     1118.988        0.645        0.352       76.480       32.558        0.181      339.204       12.378      861.156
03/03/2014  11:39:00       -6.152      -48.744       23.995       49.700       45.020       33.068     2470.114     2026.842     1093.471        0.429        0.280       49.131       32.049        0.426      339.146       12.280      861.148
03/03/2014  11:40:00      -69.985      -16.996       -4.851       39.158       60.656       26.339     1533.375     3679.194      693.720        0.556        0.295       72.019       20.557        0.081      339.033       12.091      861.133
03/03/2014  11:41:00      -63.106      -22.485       -4.497       33.380       36.101       19.277     1114.216     1303.305      371.614        0.365        0.139       66.992       11.514        0.030      339.163       12.307      861.123
03/03/2014  11:42:00      -17.771      -33.612       17.475       40.629       46.628       26.414     1650.706     2174.175      697.700        0.314        0.226       38.021       25.292        0.442      339.281       12.506      861.105
03/03/2014  11:43:00       -3.505      103.528      -11.191       43.011       64.368       30.777     1849.976     4143.218      947.250        0.890        0.347      103.587       30.384        0.086      339.290       12.521      861.079
03/03/2014  11:44:00       21.697       87.608       14.036       38.019       56.021       39.389     1445.482     3138.366     1551.512        0.724        0.307       90.255       35.861        0.158      339.268       12.486      861.035
03/03/2014  11:45:00      -31.586       42.534       11.537       43.211       48.990       34.623     1867.227     2400.019     1198.757        0.420        0.273       52.979       32.158        0.368      339.329       12.588      860.993
03/03/2014  11:46:00      -61.408       72.129      -15.885       43.114       49.696       30.347     1858.844     2469.660      920.969        0.724        0.262       94.729       17.183        0.033      339.277       12.500      860.965
03/03/2014  11:47:00      -47.970       91.846       -4.417       54.591       50.756       34.963     2980.144     2576.179     1222.393        0.877        0.339      103.619       30.390        0.086      339.345       12.614      860.973
03/03/2014  11:48:00     -160.142      -23.202       -2.762       80.252       84.289       43.073     6440.409     7104.626     1855.246        2.079        0.770      161.814       40.110        0.061      339.196       12.361      861.009
03/03/2014  11:49:00     -149.399       20.603      -16.511       41.378       39.862       26.585     1712.174     1589.006      706.762        1.351        0.200      150.813       18.608        0.015      339.174       12.327      861.082
03/03/2014  11:50:00     -113.800      -58.317       -2.075       87.849       55.276       30.581     7717.389     3055.483      935.213        1.403        0.585      127.873       34.582        0.073      339.120       12.233      861.136
03/03/2014  11:51:00     -120.401      -21.597       -3.844       64.316       47.747       28.643     4136.570     2279.753      820.420        1.111        0.362      122.323       27.861        0.052      339.148       12.282      861.149
03/03/2014  11:52:00     -180.759     -116.465       -7.201       73.984       64.730       40.180     5473.631     4190.011     1614.424        2.878        0.564      215.030       39.245        0.033      339.116       12.225      861.119
03/03/2014  11:53:00     -118.839      -62.962       -0.684       73.501       59.419       33.650     5402.407     3530.642     1132.292        1.407        0.503      134.488       35.132        0.068      339.114       12.226      861.055
03/03/2014  11:54:00     -125.349       11.712       -6.215       84.983       78.873       37.975     7222.153     6220.997     1442.087        1.538        0.744      125.895       40.410        0.103      339.136       12.263      861.007
03/03/2014  11:55:00     -182.132      -25.880      -17.739       32.439       35.035       15.639     1052.275     1227.457      244.593        1.834        0.126      183.961       14.302        0.006      338.880       11.834      861.015
03/03/2014  11:56:00     -125.084        6.433      -18.362       28.806       29.682       19.101      829.763      881.037      364.842        0.905        0.104      125.250       10.460        0.007      338.889       11.850      861.048
03/03/2014  11:57:00     -129.469        3.126       -8.826       29.724       26.237       14.053      883.506      688.361      197.476        0.931        0.088      129.507       11.718        0.008      338.929       11.916      861.069
03/03/2014  11:58:00     -159.181      -42.990       -2.823       71.287       72.421       35.647     5081.874     5244.786     1270.721        1.939        0.580      164.884       36.758        0.050      339.107       12.213      861.086
03/03/2014  11:59:00     -218.941       18.520      -18.911       58.447       41.015       24.179     3416.048     1682.229      584.637        2.716        0.284      219.723       10.515        0.002      338.981       11.999      861.098
03/03/2014  12:00:00      -81.069       -8.225       -0.111       50.204       43.829       23.741     2520.407     1920.977      563.619        0.582        0.250       81.485       25.424        0.097      339.069       12.151      861.105
03/03/2014  12:01:00      -33.274      -22.046       20.998       34.187       48.598       29.906     1168.718     2361.768      894.388        0.323        0.221       39.915       16.287        0.166      339.258       12.468      861.073
03/03/2014  12:02:00      -82.399      -18.950        2.146       48.741       24.435       23.193     2375.713      597.076      537.897        0.533        0.176       84.550       25.858        0.094      339.160       12.304      861.012
03/03/2014  12:03:00     -126.736        7.524       -5.161       16.305       39.594       18.502      265.863     1567.654      342.332        0.916        0.109      126.959       18.065        0.020      339.019       12.067      860.980
03/03/2014  12:04:00      -86.573      -65.935        0.774       46.919       37.588       26.012     2201.357     1412.879      676.628        0.807        0.215      108.822       22.566        0.043      339.116       12.229      860.980
03/03/2014  12:05:00      -38.011      -73.065       -0.456       49.813       29.336       24.906     2481.314      860.620      620.321        0.537        0.198       82.361       24.773        0.090      339.090       12.184      860.963
03/03/2014  12:06:00      -15.753      -55.891       -8.413       17.169       12.683       13.336      294.763      160.866      177.853        0.204        0.032       58.069        7.793        0.018      339.089       12.184      860.906
03/03/2014  12:07:00      -12.801       10.172        9.214       56.817       27.550       27.905     3228.166      758.991      778.672        0.256        0.238       16.350       21.857        1.787      339.266       12.481      860.831
03/03/2014  12:08:00       12.675       45.696       66.307       50.980       44.477       36.451     2598.972     1978.218     1328.652        0.627        0.295       47.421       37.553        0.627      339.447       12.786      860.765
03/03/2014  12:09:00        3.698       38.926       71.526       36.613       39.470       25.776     1340.511     1557.882      664.405        0.510        0.178       39.101       13.681        0.122      339.536       12.937      860.742
03/03/2014  12:10:00        3.464       12.670       52.225       28.746       43.359       36.227      826.332     1880.039     1312.409        0.346        0.201       13.135       24.647        3.521      339.451       12.793      860.763
03/03/2014  12:11:00      -31.098      -52.949       14.467       30.700       28.478       22.657      942.511      810.973      513.323        0.312        0.113       61.406        6.056        0.010      339.305       12.546      860.787
03/03/2014  12:12:00       38.954      -44.848       18.150       45.808       78.265       43.453     2098.377     6125.466     1888.178        0.698        0.506       59.403       48.449        0.665      339.347       12.618      860.796
03/03/2014  12:13:00       12.067      -72.106        1.007       47.846       43.334       36.460     2289.237     1877.828     1329.364        0.542        0.275       73.108       29.861        0.167      339.433       12.762      860.797
03/03/2014  12:14:00      -19.563      -63.854       -8.495       36.055       50.081       27.817     1299.933     2508.060      773.792        0.456        0.229       66.784        6.471        0.009      339.427       12.754      860.808
03/03/2014  12:15:00      -17.727      -57.150       -0.003       44.513       34.549       25.955     1981.416     1193.666      673.646        0.371        0.192       59.836       21.970        0.135      339.356       12.634      860.819
03/03/2014  12:16:00      -38.376      -41.253        7.136       60.387       40.982       34.879     3646.571     1679.561     1216.563        0.488        0.327       56.343       34.731        0.380      339.436       12.769      860.812
03/03/2014  12:17:00      -30.641      -30.266       18.173       38.408       42.078       22.635     1475.138     1770.550      512.341        0.297        0.188       43.069       20.234        0.221      339.317       12.568      860.780
03/03/2014  12:18:00      -58.322        7.995       11.074       39.318       24.465       21.133     1545.917      598.542      446.589        0.309        0.130       58.868       19.668        0.112      339.254       12.461      860.735
03/03/2014  12:19:00      -36.665       -7.796        9.031       26.287       19.191       14.604      691.007      368.305      213.286        0.138        0.064       37.485       14.333        0.146      339.272       12.491      860.678
03/03/2014  12:20:00       -8.276       16.907       34.038       32.773       27.811       25.476     1074.086      773.463      649.029        0.200        0.125       18.824       26.756        2.020      339.557       12.972      860.604
03/03/2014  12:21:00       52.186      -11.530       20.680       37.579       33.419       30.161     1412.148     1116.861      909.657        0.336        0.172       53.445       27.295        0.261      339.238       12.435      860.554
03/03/2014  12:22:00       -7.548        9.128       26.351       31.599       13.309       14.580      998.509      177.124      212.577        0.111        0.069       11.845       14.930        1.589      339.620       13.079      860.537
03/03/2014  12:23:00      -56.144       14.991       -8.585       26.548       45.331       17.128      704.809     2054.887      293.370        0.325        0.153       58.111       19.463        0.112      339.357       12.635      860.546
03/03/2014  12:24:00      -34.555       58.638        0.442       37.147       30.656       23.126     1379.933      939.763      534.829        0.374        0.143       68.062       25.400        0.139      339.465       12.817      860.530
03/03/2014  12:25:00      -12.573       17.456       14.737       20.252       25.686       24.677      410.161      659.769      608.936        0.118        0.084       21.513       16.811        0.611      339.610       13.060      860.523
03/03/2014  12:26:00      -73.753       66.873      -23.990       19.157       21.310       11.357      366.979      454.119      128.982        0.572        0.048       99.557        6.523        0.004      339.105       12.210      860.545
03/03/2014  12:27:00      -73.220       63.988      -18.011       15.683       45.508       19.141      245.947     2070.998      366.391        0.623        0.134       97.240       12.388        0.016      339.188       12.349      860.596
03/03/2014  12:28:00      -49.756       76.339       -4.177       31.600       27.957       23.594      998.542      781.614      556.672        0.533        0.117       91.122       14.808        0.026      339.398       12.705      860.647
03/03/2014  12:29:00       -8.237       19.048       13.002       21.859       23.156       19.279      477.800      536.184      371.667        0.099        0.069       20.753        8.650        0.174      339.661       13.147      860.686
03/03/2014  12:30:00       23.205       27.489        9.020       27.731       34.768       16.928      769.021     1208.820      286.545        0.182        0.113       35.974       16.778        0.218      339.599       13.044      860.717
03/03/2014  12:31:00       27.311       43.754       36.904       38.630       43.948       25.592     1492.285     1931.406      654.949        0.405        0.204       51.578       19.639        0.145      339.595       13.038      860.741
03/03/2014  12:32:00       15.575       38.941       80.468       38.625       65.990       42.749     1491.899     4354.738     1827.446        0.795        0.384       41.941       42.648        1.034      339.714       13.237      860.748
03/03/2014  12:33:00       58.732       61.520       61.770       62.343       64.084       45.531     3886.613     4106.763     2073.057        1.056        0.503       85.054       41.669        0.240      339.486       12.852      860.737
03/03/2014  12:34:00        1.068        9.134       40.972       25.764       40.540       27.794      663.770     1643.488      772.529        0.242        0.154        9.196       26.394        8.238      339.710       13.230      860.734
03/03/2014  12:35:00       33.832      -77.061       23.843       35.684       52.282       31.833     1273.323     2733.380     1013.341        0.633        0.251       84.161       30.983        0.136      339.670       13.163      860.739
03/03/2014  12:36:00       18.078      -13.004       57.415       56.724       55.826       39.807     3217.630     3116.514     1584.621        0.585        0.396       22.269       40.480        3.304      339.700       13.213      860.754
03/03/2014  12:37:00       57.742      122.675       69.192       65.269       55.435       52.122     4260.098     3073.029     2716.669        1.661        0.502      135.585       40.268        0.088      339.364       12.646      860.756
03/03/2014  12:38:00       70.164      -88.467      -11.933       70.441      115.929       36.781     4961.996    13439.523     1352.877        1.632        0.988      112.913       35.570        0.099      339.396       12.699      860.774
03/03/2014  12:39:00      -35.356      -87.946        6.834      129.721       81.067       47.798    16827.412     6571.903     2284.609        1.735        1.284       94.787       51.858        0.299      339.525       12.916      860.762
03/03/2014  12:40:00       52.208      -38.448       31.706       73.687       73.870       42.905     5429.789     5456.745     1840.826        0.897        0.636       64.838       43.994        0.460      339.657       13.140      860.762
03/03/2014  12:41:00       91.532     -175.068      -20.755       44.957       50.775       34.723     2021.137     2578.099     1205.667        2.263        0.290      197.552       21.007        0.011      339.380       12.671      860.726
03/03/2014  12:42:00       91.006      -25.721       36.836       53.838      110.871       55.166     2898.565    12292.447     3043.278        1.426        0.912       94.571       67.735        0.513      339.328       12.585      860.653
03/03/2014  12:43:00       41.131        2.995       27.110       34.854       70.461       33.885     1214.815     4964.691     1148.223        0.488        0.366       41.240       38.696        0.880      339.323       12.577      860.581
03/03/2014  12:44:00      -23.540       14.641       20.279       42.385       22.283       25.136     1796.453      496.553      631.810        0.205        0.146       27.722       24.535        0.783      339.582       13.014      860.547
03/03/2014  12:45:00       -4.029      -60.204        4.162       37.257       40.173       33.353     1388.067     1613.888     1112.432        0.389        0.206       60.338       27.199        0.203      339.601       13.045      860.568
03/03/2014  12:46:00       18.705       15.145       34.881       23.793       32.639       23.271      566.125     1065.294      541.542        0.198        0.109       24.068       25.018        1.081      339.495       12.866      860.597
03/03/2014  12:47:00        5.771       35.281       44.834       16.784       17.405       13.262      281.695      302.941      175.884        0.202        0.038       35.750       11.179        0.098      339.430       12.757      860.606
03/03/2014  12:48:00      -25.565       -8.521       38.774       19.787       43.345       24.392      391.508     1878.763      594.971        0.255        0.143       26.948       27.415        1.035      339.693       13.203      860.588
03/03/2014  12:49:00      -14.685       -8.927       59.573       25.035       42.558       27.255      626.755     1811.207      742.827        0.351        0.159       17.186       12.525        0.531      339.682       13.184      860.564
03/03/2014  12:50:00       12.821       28.405       54.217       36.791       36.746       27.906     1353.570     1350.303      778.734        0.370        0.174       31.165       25.740        0.682      339.435       12.767      860.555
03/03/2014  12:51:00       46.107       65.636       58.917       31.689       25.348       26.349     1004.214      642.517      694.286        0.612        0.117       80.212       17.964        0.050      339.256       12.464      860.565
03/03/2014  12:52:00       45.340       29.980       12.917       14.973       13.609       15.550      224.186      185.215      241.800        0.189        0.033       54.356       10.682        0.039      339.162       12.306      860.581
03/03/2014  12:53:00        5.049       13.769       18.397       21.168       12.086       12.400      448.074      146.069      153.762        0.065        0.037       14.666        7.159        0.238      339.398       12.705      860.597
03/03/2014  12:54:00      -54.694      -19.617        6.451       53.091       42.659       17.870     2818.634     1819.793      319.350        0.419        0.248       58.105       23.779        0.167      339.358       12.637      860.619
03/03/2014  12:55:00      -58.261      -26.979        2.647       46.970       18.204       16.116     2206.183      331.391      259.720        0.346        0.140       64.204       13.600        0.045      339.396       12.701      860.630
03/03/2014  12:56:00      -53.290      -44.357        1.127       27.871       28.490       17.976      776.804      811.693      323.137        0.336        0.096       69.335       17.843        0.066      339.324       12.578      860.624
03/03/2014  12:57:00      -86.012      -37.030        1.183       62.412       36.126       25.280     3895.292     1305.077      639.060        0.730        0.292       93.645       25.911        0.077      339.359       12.639      860.624
03/03/2014  12:58:00      -79.376      -24.709       13.462       97.712       62.543       37.435     9547.668     3911.645     1401.394        1.097        0.743       83.133       45.333        0.297      339.431       12.759      860.648
03/03/2014  12:59:00     -160.393       26.240      -14.204       40.055       50.536       29.596     1604.430     2553.840      875.947        1.582        0.252      162.525       21.266        0.017      339.329       12.587      860.656
03/03/2014  13:00:00      -94.482       27.270      -18.478       42.017       45.704       25.416     1765.469     2088.850      645.996        0.726        0.225       98.339       11.924        0.015      339.384       12.681      860.657
03/03/2014  13:01:00     -123.665       19.174      -10.795       78.161       58.262       36.181     6109.211     3394.510     1309.068        1.329        0.541      125.142       35.191        0.079      339.425       12.747      860.655
03/03/2014  13:02:00     -269.334      -26.927       -6.307      101.192       89.644       48.256    10239.860     8036.032     2328.639        4.695        1.030      270.677       49.944        0.034      339.357       12.631      860.655
03/03/2014  13:03:00     -281.545      -43.028      -25.311      118.878       90.956       38.253    14132.090     8272.983     1463.329        5.281        1.193      284.814       45.560        0.026      339.117       12.227      860.652
03/03/2014  13:04:00     -207.196     -102.639       -6.769       90.268       78.705       37.623     8148.323     6194.522     1415.481        3.463        0.788      231.225       28.933        0.016      339.210       12.383      860.634
03/03/2014  13:05:00     -343.564      -90.220      -16.946      147.221      126.520       62.742    21674.029    16007.316     3936.534        8.403        2.081      355.213       70.367        0.039      339.190       12.351      860.620
03/03/2014  13:06:00     -238.754      -41.305       -8.197      115.528      121.909       54.191    13346.828    14861.801     2936.644        4.496        1.557      242.301       61.212        0.064      339.234       12.424      860.619
03/03/2014  13:07:00     -193.659     -124.477       11.710      134.732      128.313       73.730    18152.808    16464.105     5436.040        4.659        2.003      230.214       70.238        0.093      339.255       12.460      860.612
03/03/2014  13:08:00     -167.993        2.922       -7.668      132.740      105.044       68.273    17619.880    11034.170     4661.222        3.080        1.666      168.019       77.350        0.212      339.205       12.377      860.585
03/03/2014  13:09:00     -150.451       32.812        9.331      120.520       72.752       54.755    14525.066     5292.893     2998.151        2.330        1.141      153.987       58.553        0.145      339.229       12.416      860.551
03/03/2014  13:10:00      -89.535      -58.506        9.203      105.675       77.738       35.771    11167.132     6043.180     1279.587        1.500        0.924      106.956       42.152        0.155      339.243       12.442      860.508
03/03/2014  13:11:00     -237.981      -21.211      -12.179      181.103       96.721       51.380    32798.303     9355.029     2639.877        5.101        2.240      238.924       61.835        0.067      339.148       12.282      860.505
03/03/2014  13:12:00     -380.655     -105.526      -14.313      118.332       95.470       55.618    14002.388     9114.519     3093.321        9.122        1.311      395.011       56.222        0.020      339.082       12.169      860.525
03/03/2014  13:13:00     -341.016     -130.913       -7.278      113.985       72.366       56.074    12992.625     5236.773     3144.242        7.742        1.069      365.281       48.255        0.017      339.103       12.204      860.539
03/03/2014  13:14:00     -128.559        1.768        3.014       87.388       91.034       45.485     7636.623     8287.147     2068.925        1.726        0.900      128.572       41.555        0.104      339.296       12.530      860.554
03/03/2014  13:15:00     -285.082       39.946      -19.176      133.761      120.466       63.044    17891.913    14512.108     3974.593        5.980        1.819      287.867       52.995        0.034      339.176       12.328      860.564
03/03/2014  13:16:00     -370.727     -145.194       -8.231      151.160      118.156       68.506    22849.286    13960.866     4693.023       10.004        2.075      398.145       63.220        0.025      339.102       12.201      860.563
03/03/2014  13:17:00     -238.690        7.505      -14.475      150.852      111.910       60.643    22756.178    12523.807     3677.567        4.809        1.948      238.808       75.082        0.099      339.149       12.282      860.617
03/03/2014  13:18:00     -300.554     -116.242       -3.560      131.149      105.220       74.061    17200.031    11071.305     5485.079        6.880        1.688      322.250       60.297        0.035      339.134       12.256      860.618
03/03/2014  13:19:00     -298.905     -102.178      -10.094      139.091       87.604       61.934    19346.390     7674.376     3835.819        6.537        1.543      315.887       63.777        0.041      339.133       12.256      860.635
03/03/2014  13:20:00     -308.527      -50.435      -20.924      132.668      140.998       49.513    17600.710    19880.499     2451.529        6.904        1.997      312.622       49.905        0.025      339.074       12.154      860.653
03/03/2014  13:21:00     -357.940      -53.629      -17.671      118.522       97.116       61.112    14047.507     9431.608     3734.716        7.926        1.361      361.935       46.843        0.017      339.089       12.181      860.663
03/03/2014  13:22:00     -398.833       54.736      -31.816      139.286      107.227       65.398    19400.684    11497.523     4276.838        9.912        1.759      402.572       67.424        0.028      339.086       12.174      860.692
03/03/2014  13:23:00     -234.097      -77.931       -8.636       78.123       83.834       49.472     6103.196     7028.219     2447.440        3.826        0.779      246.728       43.207        0.031      339.231       12.418      860.744
03/03/2014  13:24:00     -392.017      -65.521      -22.014      144.071       97.379       65.271    20756.534     9482.764     4260.246        9.647        1.725      397.454       62.093        0.024      339.120       12.234      860.744
03/03/2014  13:25:00     -203.169      -92.821       14.883      163.401      188.362       71.230    26699.809    35480.318     5073.672        5.867        3.363      223.368       78.776        0.124      339.191       12.353      860.710
03/03/2014  13:26:00     -237.674       -4.134       -9.979       87.560       97.986       45.419     7666.795     9601.293     2062.878        3.797        0.967      237.710       42.651        0.032      339.262       12.471      860.734
03/03/2014  13:27:00     -281.620      -53.617       -9.156      114.790      100.783       50.627    13176.739    10157.244     2563.074        5.408        1.295      286.678       57.431        0.040      339.303       12.540      860.753
03/03/2014  13:28:00     -198.497      -70.755        3.966      117.785       91.597       49.923    13873.213     8389.962     2492.278        3.459        1.238      210.731       55.657        0.070      339.220       12.402      860.762
03/03/2014  13:29:00     -310.310        6.775      -20.269      102.698      110.324       66.222    10546.799    12171.468     4385.391        6.192        1.355      310.384       63.227        0.041      339.236       12.428      860.722
03/03/2014  13:30:00     -261.228      -50.484      -17.293      145.829      148.433       67.196    21266.099    22032.312     4515.355        5.944        2.391      266.062       59.206        0.050      339.076       12.159      860.649
03/03/2014  13:31:00     -160.521       -6.753       -4.925      103.160      123.623       59.523    10642.023    15282.762     3542.964        2.765        1.473      160.663       46.759        0.085      339.222       12.406      860.610
03/03/2014  13:32:00     -169.402      -92.252        1.209      103.753       79.966       49.920    10764.613     6394.569     2492.010        2.843        0.983      192.893       58.125        0.091      339.223       12.407      860.585
03/03/2014  13:33:00     -187.099      -36.390      -19.386       71.557       52.637       31.926     5120.430     2770.637     1019.239        2.281        0.446      190.605       30.214        0.025      339.142       12.271      860.567
03/03/2014  13:34:00     -138.035      -68.378       15.465      160.738       70.573       49.850    25836.631     4980.535     2485.071        2.863        1.665      154.043       67.581        0.192      339.313       12.559      860.557
03/03/2014  13:35:00     -365.242     -103.076       -1.626      128.182      132.699       82.546    16430.713    17609.023     6813.919        9.243        2.043      379.508       71.626        0.036      339.178       12.330      860.528
03/03/2014  13:36:00     -322.187     -138.502      -15.831      157.065      139.900       72.590    24669.350    19572.033     5269.280        8.637        2.476      350.696       80.609        0.053      339.199       12.366      860.540
03/03/2014  13:37:00     -237.047     -105.922      -12.884      169.115      126.576       62.043    28599.941    16021.366     3849.275        5.802        2.424      259.636       72.720        0.078      339.225       12.410      860.476
03/03/2014  13:38:00     -185.373      -29.118       -7.842       98.896      103.362       50.665     9780.458    10683.711     2566.974        2.915        1.152      187.646       57.006        0.092      339.221       12.404      860.403
03/03/2014  13:39:00     -176.919      -36.381       -3.814      132.099       82.338       47.840    17450.275     6779.562     2288.619        2.957        1.326      180.621       48.337        0.072      339.329       12.587      860.382
03/03/2014  13:40:00     -295.533      -55.760       -9.009      117.156       98.570       61.689    13725.426     9716.131     3805.514        5.888        1.362      300.747       65.248        0.047      339.165       12.309      860.407
03/03/2014  13:41:00     -234.814      -58.701       -6.689      149.553      104.436       52.074    22365.987    10906.912     2711.654        4.730        1.799      242.040       69.650        0.083      339.261       12.471      860.404
03/03/2014  13:42:00      -95.039     -139.669       14.963      153.728      115.058       83.930    23632.307    13238.329     7044.297        3.633        2.196      168.937       78.708        0.217      339.224       12.409      860.378
03/03/2014  13:43:00     -439.169     -195.288      -12.252      246.014      145.308       93.534    60522.748    21114.519     8748.582       16.076        4.519      480.632      110.898        0.053      339.081       12.167      860.339
03/03/2014  13:44:00     -378.866     -154.512      -24.726      136.358      126.056       71.629    18593.485    15890.240     5130.736       10.381        1.981      409.162       61.635        0.023      339.101       12.202      860.346
03/03/2014  13:45:00     -116.266      -55.443       16.656      113.590       87.660       59.756    12902.632     7684.342     3570.816        2.051        1.208      128.809       66.458        0.266      339.245       12.443      860.349
03/03/2014  13:46:00     -190.895      -35.418      -11.287      113.927       91.543       48.126    12979.295     8380.040     2316.128        3.075        1.184      194.153       37.839        0.038      339.126       12.244      860.343
03/03/2014  13:47:00     -379.463     -112.333      -14.623      168.445      155.210       81.320    28373.792    24090.030     6612.930       10.794        2.954      395.741       62.581        0.025      339.069       12.148      860.365
03/03/2014  13:48:00     -368.092     -119.011      -19.787      125.285       96.024       60.478    15696.239     9220.550     3657.647        8.931        1.429      386.853       62.488        0.026      339.159       12.297      860.376
03/03/2014  13:49:00     -388.333      -74.571      -15.473      171.772      123.728       70.855    29505.774    15308.537     5020.488       10.321        2.492      395.428       73.714        0.035      339.092       12.185      860.379
03/03/2014  13:50:00     -392.600     -132.726      -21.343      211.124      103.789       67.131    44573.278    10772.237     4506.516       11.602        2.993      414.429       88.172        0.045      339.056       12.125      860.384
03/03/2014  13:51:00     -182.753      -85.000       -0.611      108.211       88.937       58.550    11709.678     7909.706     3428.065        3.183        1.152      201.553       51.139        0.064      339.165       12.308      860.402
03/03/2014  13:52:00     -108.890      -60.426        0.999      138.212       70.879       42.823    19102.530     5023.844     1833.849        2.073        1.298      124.532       48.671        0.153      339.277       12.498      860.393
03/03/2014  13:53:00     -280.039     -151.489       -6.909      188.236      138.470       57.369    35432.643    19173.857     3291.154        7.965        2.895      318.388       73.271        0.053      339.225       12.410      860.344
03/03/2014  13:54:00     -385.702      -86.095      -10.152      152.941      111.598       62.993    23390.876    12454.221     3968.151        9.804        1.991      395.194       63.810        0.026      339.273       12.491      860.387
03/03/2014  13:55:00     -244.389     -100.952       -0.330      170.443      104.099       58.454    29050.744    10836.537     3416.886        5.660        2.165      264.419       57.913        0.048      339.296       12.529      860.442
03/03/2014  13:56:00     -277.839      -65.733       -0.943      173.025       95.964       58.925    29937.582     9209.058     3472.120        6.206        2.131      285.509       75.032        0.069      339.276       12.496      860.480
03/03/2014  13:57:00     -327.052     -133.011       -3.554      178.135      125.035       74.265    31732.132    15633.657     5515.265        8.877        2.644      353.065       82.746        0.055      339.247       12.447      860.474
03/03/2014  13:58:00     -436.012      -82.427      -24.363      189.002      129.539       76.548    35721.676    16780.378     5859.522       12.792        2.918      443.735       71.792        0.026      339.154       12.290      860.516
03/03/2014  13:59:00     -423.239     -114.497      -15.374      220.811      145.244       78.515    48757.326    21095.830     6164.590       13.423        3.801      438.453       98.750        0.051      339.066       12.141      860.527
03/03/2014  14:00:00     -412.684      -57.483      -10.043      224.971      138.653       73.703    50611.729    19224.733     5432.204       12.448        3.763      416.669       76.957        0.034      339.091       12.183      860.541
03/03/2014  14:01:00     -255.957      -36.815       -5.615      133.744      111.160       57.469    17887.461    12356.565     3302.673        5.022        1.677      258.591       60.158        0.054      339.130       12.250      860.600
03/03/2014  14:02:00     -304.423      -94.119       -0.787      163.701      144.912       75.575    26797.923    20999.576     5711.557        7.751        2.675      318.640       75.423        0.056      339.095       12.191      860.587
03/03/2014  14:03:00     -280.162      -92.901       -0.928      184.948      141.250       75.538    34205.849    19951.507     5705.969        7.348        2.993      295.163       75.797        0.066      339.073       12.154      860.575
03/03/2014  14:04:00     -218.000      -21.109       -5.783      127.143       97.547       60.462    16165.253     9515.502     3655.615        3.866        1.467      219.019       66.044        0.091      339.113       12.222      860.564
03/03/2014  14:05:00     -189.936     -124.171        1.217      126.924      125.881       69.731    16109.632    15845.950     4862.363        4.415        1.841      226.923       63.658        0.079      339.192       12.354      860.579
03/03/2014  14:06:00     -249.442     -108.957        0.760      124.675       87.725       61.292    15543.807     7695.604     3756.685        5.054        1.350      272.200       55.503        0.042      339.188       12.346      860.608
03/03/2014  14:07:00     -305.206      -53.944      -22.008      109.521       93.643       57.358    11994.746     8768.982     3289.951        6.030        1.203      309.937       54.122        0.030      339.168       12.314      860.650
03/03/2014  14:08:00     -291.719      -28.134       -4.423      129.955      115.584       52.125    16888.319    13359.622     2717.005        5.943        1.648      293.073       67.797        0.054      339.127       12.243      860.651
03/03/2014  14:09:00     -301.739     -126.978      -12.810      125.040      112.294       53.802    15634.921    12610.054     2894.626        6.923        1.557      327.368       51.890        0.025      339.151       12.285      860.605
03/03/2014  14:10:00     -366.870       -9.158      -21.678      153.849      108.922       55.607    23669.585    11864.096     3092.186        8.688        1.931      366.984       67.565        0.034      339.162       12.304      860.578
03/03/2014  14:11:00     -150.298      -94.307        1.746      116.740      111.099       68.845    13628.281    12342.978     4739.574        3.109        1.536      177.435       64.185        0.131      339.234       12.425      860.560
03/03/2014  14:12:00     -187.969      -78.105       27.665      226.161      151.969       94.263    51148.883    23094.666     8885.568        6.265        4.156      203.550      123.104        0.366      339.182       12.337      860.537
03/03/2014  14:13:00     -372.908        3.210      -14.944      183.123      119.123       76.189    33533.940    14190.326     5804.742        9.640        2.676      372.922       64.447        0.030      339.076       12.158      860.594
03/03/2014  14:14:00     -212.359      -69.466       18.321      221.796      148.655       92.421    49193.591    22098.386     8541.668        6.503        3.992      223.432      117.645        0.277      339.169       12.316      860.603
03/03/2014  14:15:00     -315.432      -11.643      -23.931      173.214      111.007       76.486    30003.040    12322.537     5850.064        7.418        2.409      315.647       92.001        0.085      339.067       12.145      860.602
03/03/2014  14:16:00     -348.740      -71.822        2.468      200.770      161.493       72.107    40308.550    26079.893     5199.419        9.917        3.579      356.059       80.586        0.051      339.021       12.067      860.557
03/03/2014  14:17:00     -357.454      -17.180       -8.206      153.805      120.344       81.262    23655.907    14482.638     6603.467        8.643        2.237      357.866       86.684        0.059      338.990       12.014      860.518
03/03/2014  14:18:00     -126.329       14.141       -5.570       56.738       85.359       46.556     3219.158     7286.159     2167.457        1.443        0.634      127.118       33.480        0.069      339.022       12.070      860.459
03/03/2014  14:19:00     -304.189      -47.309       -2.721      237.459      144.449       85.969    56386.596    20865.636     7390.591        8.970        4.232      307.846      108.397        0.124      339.099       12.198      860.431
03/03/2014  14:20:00     -338.433     -120.753        0.707      217.027      173.355       91.276    47100.820    30052.031     8331.250       10.729        4.274      359.330      107.313        0.089      338.997       12.027      860.436
03/03/2014  14:21:00     -249.980     -182.163       -1.326      144.040      128.117       75.981    20747.657    16414.079     5773.105        6.930        2.147      309.311       87.758        0.080      338.973       11.986      860.466
03/03/2014  14:22:00     -166.776      -10.291       19.474      210.686      105.362       69.264    44388.550    11101.076     4797.456        4.428        3.014      167.093       73.561        0.194      339.102       12.204      860.450
03/03/2014  14:23:00     -235.266      -67.803       28.861      203.354      163.930      109.982    41352.872    26873.111    12095.952        7.054        4.016      244.842      125.734        0.264      339.034       12.089      860.441
03/03/2014  14:24:00     -224.289      -63.295        5.954      147.145      113.105       72.264    21651.635    12792.757     5222.099        4.700        1.983      233.049       83.594        0.129      339.036       12.091      860.478
03/03/2014  14:25:00     -153.015      -10.420       -8.479      203.858       87.421       63.357    41558.169     7642.513     4014.121        3.840        2.661      153.370       81.637        0.283      339.147       12.280      860.466
03/03/2014  14:26:00     -303.631      -43.257      -18.176      208.460      141.844       88.483    43455.703    20119.825     7829.214        8.289        3.570      306.697      103.990        0.115      339.068       12.146      860.463
03/03/2014  14:27:00     -202.300     -134.984       10.616      190.096      135.033       84.999    36136.663    18234.005     7224.761        6.042        3.080      243.199       95.670        0.155      339.086       12.178      860.449
03/03/2014  14:28:00     -270.542     -130.285       -8.673      189.571      118.198       79.785    35937.048    13970.670     6365.723        7.325        2.814      300.278       89.798        0.089      339.107       12.211      860.417
03/03/2014  14:29:00     -395.229     -186.771      -23.116      140.444      147.447       69.322    19724.541    21740.508     4805.541       11.894        2.314      437.137       63.530        0.021      339.015       12.056      860.446
03/03/2014  14:30:00     -348.579     -138.973      -34.551      133.381      137.762       67.491    17790.610    18978.459     4555.012        9.166        2.066      375.261       54.545        0.021      338.965       11.971      860.454
03/03/2014  14:31:00     -359.332     -141.774      -13.709      117.042       82.595       50.820    13698.756     6821.856     2582.674        8.625        1.155      386.289       55.062        0.020      338.945       11.939      860.444
03/03/2014  14:32:00     -167.081      -95.806      -11.690      112.869       66.956       49.194    12739.434     4483.161     2420.077        2.843        0.982      192.600       52.303        0.074      339.047       12.111      860.419
03/03/2014  14:33:00     -165.422      -67.107      -10.556      109.616       62.668       44.814    12015.661     3927.217     2008.294        2.496        0.898      178.515       50.665        0.081      339.077       12.161      860.401
03/03/2014  14:34:00     -143.885      -69.629        8.769      129.256       80.521       58.089    16707.085     6483.621     3374.311        2.609        1.328      159.847       63.599        0.158      339.125       12.241      860.376
03/03/2014  14:35:00      -94.912     -103.159       10.711      134.724      165.274       65.463    18150.505    27315.361     4285.469        3.475        2.488      140.179       79.846        0.324      339.151       12.288      860.339
03/03/2014  14:36:00     -333.051     -187.742       -1.206      133.752      141.114       86.099    17889.508    19913.093     7413.092        9.569        2.261      382.322       73.421        0.037      338.990       12.015      860.303
03/03/2014  14:37:00     -385.442      -95.961      -21.099      133.580      153.412       67.291    17843.530    23535.363     4528.093       10.206        2.295      397.208       54.348        0.019      338.969       11.979      860.284
03/03/2014  14:38:00     -397.092      -35.827      -19.898      157.887      151.911       57.931    24928.412    23076.864     3356.046       10.535        2.568      398.705       67.506        0.029      338.901       11.865      860.283
03/03/2014  14:39:00     -177.049     -139.480        5.377      140.293      110.312       72.868    19682.027    12168.644     5309.757        4.399        1.858      225.391       78.751        0.122      339.001       12.033      860.294
03/03/2014  14:40:00     -251.347     -149.079        8.473      173.166      137.245       91.117    29986.535    18836.085     8302.225        7.129        2.856      292.233       85.212        0.085      338.979       11.997      860.286
03/03/2014  14:41:00     -300.796     -232.516       -7.289      183.567      156.941       93.716    33696.946    24630.515     8782.780       10.584        3.356      380.187       98.167        0.067      338.924       11.903      860.258
03/03/2014  14:42:00     -305.833     -246.917        4.168      165.000      174.885       96.742    27225.036    30584.900     9359.091       11.083        3.358      393.067      104.363        0.070      338.941       11.932      860.247
03/03/2014  14:43:00     -163.471     -118.863       11.391      142.118       97.213       69.809    20197.439     9450.386     4873.358        3.775        1.726      202.117       75.070        0.138      339.025       12.075      860.301
03/03/2014  14:44:00     -270.084      -96.800      -14.881      145.719       88.277       66.124    21234.076     7792.774     4372.361        5.796        1.670      286.907       77.595        0.073      339.003       12.036      860.302
03/03/2014  14:45:00     -358.560      -88.480      -11.896      168.970      131.590       82.815    28550.927    17316.021     6858.365        9.462        2.636      369.316       74.041        0.040      338.913       11.885      860.295
03/03/2014  14:46:00     -231.225     -105.074        5.093      135.501       96.072       54.492    18360.479     9229.795     2969.379        4.754        1.528      253.980       69.539        0.075      338.979       11.995      860.290
03/03/2014  14:47:00     -158.775      -94.934        3.464      159.521      127.816       75.311    25446.848    16336.802     5671.791        4.084        2.373      184.992       79.599        0.185      339.112       12.220      860.283
03/03/2014  14:48:00     -374.455      -39.758       -1.280      175.436      114.752       79.336    30777.912    13168.103     6294.161        9.601        2.512      376.560       88.551        0.055      338.957       11.960      860.306
03/03/2014  14:49:00     -353.960      -42.203      -14.139      149.968      105.362       71.554    22490.275    11101.057     5120.015        8.298        1.936      356.467       77.444        0.047      338.983       12.004      860.301
03/03/2014  14:50:00     -216.019     -131.785       -0.286      142.305      116.997       75.791    20250.605    13688.295     5744.324        5.185        1.984      253.044       85.780        0.115      339.015       12.056      860.296
03/03/2014  14:51:00     -122.232       31.835       18.373      119.548       76.466       59.968    14291.781     5846.996     3596.204        2.001        1.187      126.309       62.262        0.243      339.159       12.299      860.260
03/03/2014  14:52:00     -136.627       -6.614        6.664      183.348      142.191       86.697    33616.523    20218.377     7516.431        4.004        3.068      136.787       94.160        0.474      339.126       12.244      860.229
03/03/2014  14:53:00     -149.386       -5.898       -5.812      131.811       79.357       52.897    17374.123     6297.533     2798.101        2.442        1.323      149.502       46.306        0.096      339.127       12.246      860.212
03/03/2014  14:54:00     -160.754      -49.386        9.923      145.501       99.215       66.642    21170.677     9843.603     4441.215        3.191        1.773      168.169       68.600        0.166      339.107       12.213      860.215
03/03/2014  14:55:00     -240.370       50.179       -6.524      109.510       67.967       42.988    11992.427     4619.543     1847.957        3.940        0.923      245.551       43.798        0.032      339.040       12.097      860.231
03/03/2014  14:56:00     -175.420      -43.016        5.188      115.776       91.180       62.339    13404.061     8313.792     3886.162        2.912        1.280      180.617       67.531        0.140      339.091       12.184      860.233
03/03/2014  14:57:00     -305.088      -29.487       -6.193      152.348      115.660       67.184    23209.825    13377.180     4513.715        6.754        2.055      306.510       65.556        0.046      339.031       12.084      860.245
03/03/2014  14:58:00     -204.393      -79.195       -1.140      169.694      126.586       66.363    28795.927    16024.028     4404.057        4.863        2.461      219.199       69.296        0.100      339.059       12.131      860.265
03/03/2014  14:59:00     -122.053      -13.175        5.710      112.860       59.374       56.822    12737.286     3525.305     3228.743        1.729        0.975      122.762       56.742        0.214      339.117       12.228      860.264
03/03/2014  15:00:00     -209.270      -30.237      -16.330      136.813       99.451       50.714    18717.834     9890.461     2571.932        3.807        1.559      211.443       44.849        0.045      339.103       12.204      860.238
03/03/2014  15:01:00     -160.905      -40.006       -6.716      145.521       82.925       62.242    21176.369     6876.509     3874.066        2.973        1.596      165.804       78.797        0.226      339.136       12.261      860.214
03/03/2014  15:02:00     -153.852      -43.400        7.046      133.419      109.128       69.997    17800.672    11908.875     4899.616        3.010        1.730      159.856       54.845        0.118      339.142       12.270      860.189
03/03/2014  15:03:00     -122.414        6.256        5.573      107.125       76.095       46.825    11475.700     5790.488     2192.577        1.725        0.973      122.574       55.194        0.203      339.095       12.191      860.217
03/03/2014  15:04:00      -56.112      -46.412       16.280       58.994       56.139       38.050     3480.312     3151.571     1447.791        0.682        0.404       72.819       32.744        0.202      339.200       12.369      860.254
03/03/2014  15:05:00     -222.235      -74.828      -10.939      189.664      121.865       59.475    35972.506    14851.140     3537.260        5.472        2.718      234.494       63.857        0.074      339.054       12.122      860.252
03/03/2014  15:06:00     -179.093     -121.057        3.790      181.382      125.687       79.854    32899.511    15797.189     6376.719        5.090        2.754      216.169       97.228        0.202      338.994       12.022      860.273
03/03/2014  15:07:00     -241.996     -108.304       10.370      117.761      118.151       58.973    13867.626    13959.756     3477.855        5.085        1.565      265.126       58.257        0.048      338.920       11.896      860.296
03/03/2014  15:08:00     -378.630     -119.211      -25.345      248.931      148.742       70.585    61966.444    22124.146     4982.312       12.363        4.454      396.954       91.741        0.053      338.913       11.885      860.278
03/03/2014  15:09:00     -240.805     -105.089       -1.886      204.512      151.399       88.545    41825.207    22921.662     7840.201        7.080        3.629      262.736       97.617        0.138      338.915       11.889      860.301
03/03/2014  15:10:00     -254.263      -57.142      -22.161      125.737       99.014       61.886    15809.773     9803.800     3829.894        4.892        1.472      260.605       60.458        0.054      338.916       11.889      860.342
03/03/2014  15:11:00     -128.268      -61.024        7.750      161.231      109.199       62.297    25995.338    11924.435     3880.856        3.101        2.090      142.044       67.074        0.223      338.997       12.027      860.361
03/03/2014  15:12:00     -133.394      -72.510       19.226      158.609      105.426       66.590    25156.671    11114.615     4434.253        3.206        2.035      151.827       75.665        0.248      338.932       11.917      860.371
03/03/2014  15:13:00     -322.476     -124.560       -2.995      164.253      125.349       63.608    26979.198    15712.384     4045.962        8.312        2.337      345.696       67.595        0.038      338.863       11.801      860.368
03/03/2014  15:14:00     -288.063      -60.241       -3.811      114.013       72.430       50.719    12999.020     5246.155     2572.441        5.372        1.041      294.295       54.741        0.035      338.867       11.806      860.371
03/03/2014  15:15:00     -173.196     -130.697        6.164      114.312       87.319       63.904    13067.143     7624.571     4083.740        3.594        1.239      216.976       61.394        0.080      338.946       11.939      860.375
03/03/2014  15:16:00     -201.180     -169.541       -8.401      141.161      109.735       67.325    19926.337    12041.667     4532.659        5.289        1.825      263.092       55.573        0.045      338.940       11.930      860.397
03/03/2014  15:17:00     -210.467     -189.106        3.176      180.259      123.216       83.075    32493.344    15182.198     6901.436        6.731        2.729      282.944       96.351        0.116      338.947       11.941      860.426
03/03/2014  15:18:00     -388.094     -278.576      -27.682      211.042      142.470       95.844    44538.833    20297.783     9186.111       15.149        3.701      477.725      110.014        0.053      338.884       11.835      860.435
03/03/2014  15:19:00     -302.120     -119.553      -17.053      151.701      123.921       64.078    23013.175    15356.514     4105.929        7.416        2.124      324.915       77.326        0.057      338.955       11.954      860.470
03/03/2014  15:20:00     -392.190     -141.416      -22.543      191.863      102.575       76.916    36811.479    10521.580     5916.011       11.378        2.662      416.907       99.241        0.057      338.909       11.878      860.482
03/03/2014  15:21:00     -506.301     -138.170      -19.081      206.136      148.913       88.688    42491.989    22174.948     7865.546       17.415        3.627      524.816       93.645        0.032      338.901       11.863      860.474
03/03/2014  15:22:00     -277.593      -88.015      -10.472      111.892       98.200       63.582    12519.727     9643.147     4042.654        5.556        1.310      291.212       59.570        0.042      338.961       11.964      860.537
03/03/2014  15:23:00     -145.264     -118.937       -4.975      120.639      109.600       60.752    14553.817    12012.135     3690.797        3.276        1.513      187.744       78.355        0.174      339.002       12.034      860.550
03/03/2014  15:24:00     -165.455      -98.059      -10.319       69.057      107.157       33.971     4768.930    11482.705     1154.007        2.725        0.870      192.331       27.725        0.021      338.944       11.938      860.529
03/03/2014  15:25:00     -141.665      -95.867        2.856       79.580       64.305       40.854     6332.989     4135.086     1669.028        2.070        0.607      171.054       38.983        0.052      339.059       12.132      860.519
03/03/2014  15:26:00     -273.156       -6.606      -13.564      129.773      116.542       48.664    16840.921    13582.082     2368.166        5.381        1.640      273.236       51.342        0.035      339.039       12.096      860.511
03/03/2014  15:27:00     -374.898     -112.909      -24.793      143.215       99.819       49.429    20510.488     9963.903     2443.265        9.341        1.646      391.531       40.436        0.011      338.917       11.891      860.464
03/03/2014  15:28:00     -274.067      -46.259      -16.252      136.837      109.928       62.262    18724.255    12084.157     3876.601        5.610        1.734      277.944       60.401        0.047      338.987       12.009      860.451
03/03/2014  15:29:00     -263.806      -87.975      -12.751      130.718       79.909       49.184    17087.273     6385.372     2419.048        5.169        1.295      278.089       45.694        0.027      338.898       11.858      860.435
03/03/2014  15:30:00     -229.499      -28.542       -4.721      107.786       90.419       46.158    11617.871     8175.552     2130.584        3.771        1.096      231.267       31.464        0.019      338.898       11.860      860.373
03/03/2014  15:31:00     -280.198      -85.735      -15.807      155.315      133.305       67.024    24122.685    17770.138     4492.207        6.624        2.319      293.021       76.211        0.068      338.948       11.943      860.325
03/03/2014  15:32:00     -306.597       29.238      -10.434      119.104       78.784       50.443    14185.790     6206.847     2544.496        5.895        1.147      307.988       45.592        0.022      339.054       12.121      860.348
03/03/2014  15:33:00     -408.181     -177.204      -24.980      175.182      157.534       78.439    30688.679    24817.037     6152.715       13.014        3.083      444.986       81.277        0.033      338.892       11.850      860.379
03/03/2014  15:34:00     -251.627     -145.943      -12.256      143.513      128.203       68.247    20595.928    16435.929     4657.613        6.322        2.084      290.888       66.353        0.052      338.930       11.914      860.399
03/03/2014  15:35:00     -282.355     -170.130        5.389      234.156      108.773       60.857    54828.993    11831.498     3703.610        8.952        3.518      329.649       83.045        0.063      338.897       11.857      860.431
03/03/2014  15:36:00     -435.915      -24.380      -32.352      177.784      119.806       77.951    31607.041    14353.385     6076.366       12.184        2.602      436.596       79.163        0.033      338.789       11.677      860.422
03/03/2014  15:37:00     -390.709     -133.657       -9.966      161.691      136.106       67.411    26143.906    18524.770     4544.247       10.991        2.461      412.938       69.464        0.028      338.792       11.682      860.410
03/03/2014  15:38:00     -310.779     -164.953      -26.247      132.016      144.526       67.394    17428.109    20887.829     4541.940        8.366        2.143      351.843       66.830        0.036      338.807       11.706      860.409
03/03/2014  15:39:00     -241.439      -77.506       -6.377      134.097      103.263       58.030    17981.998    10663.237     3367.516        4.817        1.601      253.574       65.578        0.067      338.871       11.814      860.415
03/03/2014  15:40:00     -155.870      -55.090       10.440      105.273       74.760       53.127    11082.426     5589.124     2822.484        2.346        0.975      165.319       50.418        0.093      338.907       11.876      860.412
03/03/2014  15:41:00     -103.667      -45.006       34.387      145.666       91.900       65.886    21218.464     8445.652     4340.988        2.397        1.700      113.015       83.165        0.542      338.941       11.933      860.412
03/03/2014  15:42:00     -155.363     -130.150       -7.505      132.251      140.040       87.531    17490.213    19611.175     7661.673        4.294        2.238      202.673       78.269        0.149      338.795       11.687      860.401
03/03/2014  15:43:00     -135.589     -122.677       10.296      162.691      130.605       89.765    26468.426    17057.734     8057.826        4.255        2.579      182.850      100.897        0.304      338.844       11.769      860.402
03/03/2014  15:44:00     -307.528     -120.785      -15.954      128.981       86.007       49.562    16635.991     7397.208     2456.378        6.795        1.324      330.398       51.691        0.024      338.723       11.565      860.427
03/03/2014  15:45:00      -89.647      -43.671       -1.660       87.288      106.951       44.455     7619.167    11438.455     1976.253        1.549        1.052       99.718       41.483        0.173      338.872       11.817      860.452
03/03/2014  15:46:00      -30.801       16.123       10.043       41.144       38.298       28.998     1692.830     1466.722      840.879        0.265        0.200       34.765       20.585        0.351      338.959       11.964      860.489
03/03/2014  15:47:00     -238.101      -28.477      -25.534       83.648       75.862       43.425     6997.058     5755.046     1885.702        3.639        0.732      239.798       45.962        0.037      338.780       11.662      860.531
03/03/2014  15:48:00     -190.408      -88.860        8.535      169.443      167.414       87.711    28710.920    28027.513     7693.180        5.432        3.222      210.122       97.857        0.217      338.798       11.691      860.480
03/03/2014  15:49:00      -87.229      -16.246       14.042      112.903      103.347       62.317    12747.160    10680.604     3883.417        1.769        1.366       88.729       53.938        0.370      338.850       11.781      860.443
03/03/2014  15:50:00     -313.096      -41.203       -4.306      148.842       96.385       48.240    22153.930     9290.077     2327.144        6.675        1.689      315.796       47.796        0.023      338.732       11.580      860.442
03/03/2014  15:51:00     -370.877     -119.896      -14.865      145.748       87.509       53.669    21242.608     7657.865     2880.316        9.196        1.589      389.775       52.377        0.018      338.719       11.560      860.456
03/03/2014  15:52:00     -156.716       -6.542        6.251      101.834       71.211       49.609    10370.129     5070.950     2461.047        2.127        0.895      156.853       53.694        0.117      338.823       11.733      860.488
03/03/2014  15:53:00     -147.190      -90.845        2.268      114.451       62.344       57.241    13099.135     3886.738     3276.533        2.509        1.013      172.968       62.044        0.129      338.831       11.748      860.485
03/03/2014  15:54:00     -225.171     -167.752       -9.849      154.332      146.653       85.954    23818.290    21507.066     7388.135        6.582        2.636      280.790       86.869        0.096      338.773       11.650      860.466
03/03/2014  15:55:00     -217.171     -216.951        9.249      173.470      153.878       99.186    30091.817    23678.424     9837.789        7.895        3.180      306.971      114.409        0.139      338.756       11.621      860.411
03/03/2014  15:56:00     -247.972      -89.985       -7.427      161.855      120.264       70.501    26197.015    14463.340     4970.336        5.763        2.282      263.794       79.000        0.090      338.747       11.606      860.356
03/03/2014  15:57:00     -347.148      -97.680       -5.153      180.496       97.306       54.681    32578.791     9468.550     2989.970        8.755        2.252      360.629       66.397        0.034      338.794       11.686      860.352
03/03/2014  15:58:00     -291.949     -178.776        0.510      157.516      113.072       69.433    24811.270    12785.375     4820.963        7.980        2.121      342.337       71.046        0.043      338.777       11.655      860.389
03/03/2014  15:59:00     -189.037       46.853        1.800      117.458       66.504       53.672    13796.466     4422.740     2880.702        2.951        1.055      194.757       55.664        0.082      338.817       11.725      860.423
03/03/2014  16:00:00     -443.153      -37.680      -11.447      136.998      138.272       68.446    18768.424    19119.209     4684.812       12.025        2.129      444.752       68.989        0.024      338.710       11.545      860.401
03/03/2014  16:01:00     -300.498      -56.020      -12.644      134.776      101.202       51.088    18164.655    10241.889     2609.972        6.230        1.551      305.675       61.256        0.040      338.736       11.587      860.375
03/03/2014  16:02:00     -319.303      -64.465      -12.559      115.249      109.331       62.585    13282.365    11953.213     3916.884        6.771        1.458      325.746       57.955        0.032      338.731       11.580      860.377
03/03/2014  16:03:00     -246.344      -74.935       -5.965      125.003      129.856       54.691    15625.672    16862.648     2991.116        5.090        1.774      257.489       50.900        0.039      338.730       11.577      860.370
03/03/2014  16:04:00     -267.142      -50.325      -16.450      116.630       78.949       44.149    13602.444     6232.957     1949.140        4.797        1.089      271.841       48.424        0.032      338.724       11.566      860.398
03/03/2014  16:05:00     -294.553      -51.250       -4.070      173.241      121.715       58.244    30012.604    14814.424     3392.315        6.880        2.411      298.978       72.837        0.059      338.722       11.563      860.403
03/03/2014  16:06:00     -445.897      -35.604      -14.631      155.732       90.709       69.889    24252.559     8228.151     4884.482       11.883        1.868      447.316       79.873        0.032      338.688       11.506      860.375
03/03/2014  16:07:00     -317.308      -27.458      -11.109      117.510      103.000       55.574    13808.510    10609.052     3088.523        6.453        1.375      318.494       48.645        0.023      338.683       11.498      860.378
03/03/2014  16:08:00     -233.705      -86.280      -11.106      125.942       74.838       47.696    15861.347     5600.725     2274.923        4.296        1.187      249.123       54.385        0.048      338.726       11.571      860.386
03/03/2014  16:09:00     -296.566     -120.453      -11.801      122.281      105.017       65.490    14952.653    11028.635     4288.899        6.643        1.514      320.095       65.633        0.042      338.719       11.559      860.406
03/03/2014  16:10:00     -258.687      -42.828       -3.717      108.341      123.713       56.151    11737.716    15304.869     3152.883        4.948        1.510      262.208       41.030        0.024      338.734       11.584      860.424
03/03/2014  16:11:00     -194.690      -15.455      -15.042       91.871       92.603       42.144     8440.308     8575.306     1776.086        2.858        0.940      195.302       38.029        0.038      338.770       11.644      860.417
03/03/2014  16:12:00     -289.284     -155.254      -22.409      135.874      104.167       60.183    18461.631    10850.662     3622.018        7.061        1.647      328.312       62.478        0.036      338.728       11.573      860.380
03/03/2014  16:13:00     -398.367      -85.772       -7.315      129.743      115.102       64.950    16833.271    13248.495     4218.517       10.020        1.715      407.496       65.490        0.026      338.667       11.471      860.398
03/03/2014  16:14:00     -302.300      -34.503       -3.100      127.624      112.257       61.177    16287.997    12601.735     3742.662        6.260        1.632      304.263       59.085        0.038      338.687       11.505      860.397
03/03/2014  16:15:00     -272.895       13.558      -12.356      106.413       90.231       55.977    11323.695     8141.553     3133.408        4.870        1.130      273.232       49.875        0.033      338.719       11.559      860.385
03/03/2014  16:16:00     -361.774      -44.617       -9.697       86.314       81.551       43.352     7450.191     6650.565     1879.368        7.447        0.799      364.514       46.984        0.017      338.698       11.523      860.382
03/03/2014  16:17:00     -187.563      -13.206      -10.608      123.648       78.858       41.877    15288.882     6218.561     1753.706        2.936        1.163      188.027       57.091        0.092      338.751       11.611      860.370
03/03/2014  16:18:00     -356.956      -83.156      -10.758      127.964      129.305       57.810    16374.798    16719.845     3342.033        8.544        1.822      366.514       61.380        0.028      338.672       11.479      860.371
03/03/2014  16:19:00     -267.523      -76.796        2.753      182.105       94.731       56.167    33162.102     8973.907     3154.747        6.137        2.265      278.327       63.973        0.053      338.703       11.532      860.379
03/03/2014  16:20:00     -321.405      -85.276       -3.752      204.761       95.538       63.186    41926.865     9127.563     3992.443        8.281        2.752      332.526       87.879        0.070      338.680       11.493      860.352
03/03/2014  16:21:00     -222.397      -57.287      -11.827      107.495       85.292       50.461    11555.220     7274.652     2546.355        3.713        1.069      229.657       50.200        0.048      338.723       11.565      860.344
03/03/2014  16:22:00     -174.144      -87.698        3.222      129.733       91.846       56.119    16830.763     8435.710     3149.327        3.322        1.421      194.980       64.495        0.109      338.727       11.572      860.315
03/03/2014  16:23:00     -209.890     -107.997       -6.851      122.976       90.630       67.878    15122.981     8213.752     4607.408        4.185        1.397      236.045       63.671        0.073      338.677       11.488      860.275
03/03/2014  16:24:00     -225.956      -21.252       -8.930      139.746      122.465       67.631    19529.054    14997.669     4573.896        4.534        1.955      226.953       65.165        0.082      338.684       11.500      860.270
03/03/2014  16:25:00     -358.267       -5.210       -8.031      148.562      101.146       76.077    22070.804    10230.474     5787.760        8.326        1.904      358.305       73.396        0.042      338.620       11.392      860.302
03/03/2014  16:26:00     -444.677      -91.476      -11.736      176.643      141.385       69.360    31202.888    19989.687     4810.811       13.111        2.800      453.989       66.478        0.021      338.574       11.315      860.319
03/03/2014  16:27:00     -335.479      -18.342      -33.990      114.383      106.223       52.303    13083.368    11283.429     2735.565        7.057        1.355      335.980       42.274        0.016      338.585       11.333      860.337
03/03/2014  16:28:00     -177.693      -61.342       10.812      112.510       73.695       48.241    12658.583     5431.010     2327.193        2.793        1.021      187.983       48.061        0.065      338.636       11.419      860.328
03/03/2014  16:29:00     -298.585     -116.418        0.146      144.148       96.734       57.453    20778.538     9357.389     3300.835        6.807        1.672      320.478       65.317        0.042      338.580       11.326      860.311
03/03/2014  16:30:00     -300.129     -100.632        7.880      143.435      108.830       62.512    20573.464    11843.998     3907.809        6.829        1.816      316.550       72.269        0.052      338.572       11.313      860.290
03/03/2014  16:31:00     -337.222      -70.771       -9.318      104.721      139.208       60.458    10966.528    19378.740     3655.152        7.640        1.700      344.568       63.994        0.034      338.537       11.254      860.279
03/03/2014  16:32:00     -243.171      -63.484       -4.084      113.863      100.463       56.168    12964.863    10092.794     3154.899        4.469        1.311      251.321       49.679        0.039      338.612       11.378      860.302
03/03/2014  16:33:00     -165.450      -79.903        7.725      108.152       94.220       48.001    11696.848     8877.489     2304.074        2.834        1.144      183.734       43.676        0.057      338.622       11.397      860.308
03/03/2014  16:34:00     -148.916      -60.682       -1.011      167.103       71.693       50.757    27923.390     5139.863     2576.274        3.074        1.782      160.805       77.485        0.232      338.649       11.443      860.307
03/03/2014  16:35:00     -164.407      -84.595       -2.857      110.211      105.471       55.065    12146.442    11124.080     3032.201        3.024        1.315      184.895       61.788        0.112      338.629       11.409      860.297
03/03/2014  16:36:00     -137.911       -9.945       -5.914      162.449       74.915       55.935    26389.732     5612.323     3128.723        2.714        1.757      138.269       68.835        0.248      338.680       11.496      860.297
03/03/2014  16:37:00     -164.003       10.301       11.048      118.950       78.676       61.344    14149.142     6189.879     3763.029        2.561        1.205      164.327       60.816        0.137      338.636       11.422      860.293
03/03/2014  16:38:00     -185.479      -41.287       -9.008       53.326       88.126       38.667     2843.639     7766.124     1495.116        2.414        0.605      190.019       34.462        0.033      338.613       11.383      860.294
03/03/2014  16:39:00     -169.519     -130.782        0.539      149.394      101.202       62.871    22318.684    10241.841     3952.762        4.117        1.826      214.104       68.289        0.102      338.655       11.453      860.276
03/03/2014  16:40:00     -131.553      -44.595        6.301      120.389       71.236       51.563    14493.615     5074.626     2658.724        2.078        1.111      138.906       59.005        0.180      338.664       11.469      860.275
03/03/2014  16:41:00      -98.220      -50.313        7.328      130.346       78.276       54.116    16990.163     6127.100     2928.528        1.913        1.302      110.356       67.395        0.373      338.632       11.414      860.257
03/03/2014  16:42:00     -255.181      -32.975       -9.905       97.104       69.544       43.416     9429.096     4836.304     1884.928        4.122        0.808      257.303       45.993        0.032      338.566       11.300      860.240
03/03/2014  16:43:00     -162.687      -41.924       -3.495      100.316       74.108       45.190    10063.376     5492.035     2042.099        2.291        0.880      168.002       53.888        0.103      338.627       11.407      860.240
03/03/2014  16:44:00     -336.101     -112.203      -13.891      113.898       84.429       50.723    12972.735     7128.296     2572.832        7.421        1.134      354.335       41.790        0.014      338.549       11.273      860.238
03/03/2014  16:45:00     -203.831      -60.142      -11.600      109.465      110.209       59.538    11982.620    12146.055     3544.828        3.648        1.384      212.518       46.723        0.048      338.593       11.346      860.240
03/03/2014  16:46:00     -179.719     -142.087       10.061      128.922       90.197       58.033    16621.002     8135.532     3367.859        4.035        1.406      229.101       62.098        0.073      338.544       11.263      860.220
03/03/2014  16:47:00     -193.971     -117.452        7.937       97.960       77.351       57.688     9596.208     5983.231     3327.955        3.519        0.945      226.759       55.598        0.060      338.509       11.205      860.199
03/03/2014  16:48:00     -135.071      -13.985       -2.957       81.900       42.457       34.402     6707.635     1802.611     1183.514        1.407        0.485      135.793       36.213        0.071      338.537       11.254      860.213
03/03/2014  16:49:00     -150.300      -75.117       -9.561      119.615       78.080       30.325    14307.703     6096.421      919.610        2.482        1.066      168.026       47.237        0.079      338.559       11.293      860.211
03/03/2014  16:50:00     -243.128     -129.797       -1.946      104.608       78.266       43.406    10942.827     6125.601     1884.091        4.745        0.948      275.605       43.904        0.025      338.523       11.228      860.218
03/03/2014  16:51:00     -169.750      -96.914       -3.433       60.207       55.393       36.929     3624.906     3068.376     1363.769        2.314        0.403      195.467       35.770        0.033      338.544       11.265      860.242
03/03/2014  16:52:00     -190.108      -95.878      -11.374       86.946       59.154       47.960     7559.676     3499.212     2300.123        2.941        0.668      212.917       35.972        0.029      338.560       11.292      860.262
03/03/2014  16:53:00      -78.468      -89.148       10.699       95.259       67.369       54.090     9074.338     4538.546     2925.701        1.538        0.827      118.763       58.413        0.242      338.599       11.359      860.266
03/03/2014  16:54:00     -167.231     -129.626        0.760      135.712       93.858       54.923    18417.813     8809.297     3016.535        3.750        1.512      211.587       58.717        0.077      338.534       11.249      860.233
03/03/2014  16:55:00     -114.802     -111.067        6.582       91.729       76.919       54.170     8414.207     5916.586     2934.378        2.141        0.863      159.735       58.528        0.134      338.514       11.216      860.225
03/03/2014  16:56:00     -183.656      -43.632        7.646      117.872       72.723       48.061    13893.753     5288.690     2309.856        2.859        1.075      188.768       53.938        0.082      338.523       11.229      860.229
03/03/2014  16:57:00     -208.983     -119.936       -7.739      132.691       71.452       45.500    17606.890     5105.440     2070.291        4.145        1.239      240.953       53.378        0.049      338.510       11.208      860.249
03/03/2014  16:58:00     -203.708     -160.580       -8.225      120.836       70.203       52.054    14601.356     4928.456     2709.582        4.479        1.112      259.389       56.091        0.047      338.514       11.214      860.263
03/03/2014  16:59:00     -268.272     -169.518       -3.200      109.135       90.327       61.171    11910.400     8158.952     3741.922        6.226        1.191      317.342       59.058        0.035      338.517       11.220      860.253
03/03/2014  17:00:00     -210.897     -118.718       -0.582      114.296       87.068       44.028    13063.634     7580.908     1938.482        4.057        1.129      242.016       50.755        0.044      338.522       11.227      860.239
03/03/2014  17:01:00     -190.642      -97.798        5.509      100.483       81.027       45.740    10096.829     6565.315     2092.133        3.234        0.938      214.264       51.620        0.058      338.549       11.273      860.238
03/03/2014  17:02:00     -223.498      -72.823      -12.148      122.533       86.200       46.805    15014.343     7430.493     2190.725        4.001        1.232      235.063       44.887        0.036      338.544       11.266      860.223
03/03/2014  17:03:00     -231.600      -65.185       -2.682       91.152       91.237       47.351     8308.706     8324.162     2242.152        3.838        0.944      240.599       47.928        0.040      338.558       11.288      860.221
03/03/2014  17:04:00     -149.154      -98.316        8.118      132.559       78.792       58.682    17571.869     6208.214     3443.554        2.960        1.361      178.642       76.697        0.184      338.577       11.321      860.218
03/03/2014  17:05:00     -143.916      -74.936        5.259       96.834       52.984       34.380     9376.777     2807.266     1181.964        1.986        0.668      162.256       42.627        0.069      338.573       11.315      860.225
03/03/2014  17:06:00     -102.441      -97.537        3.448       93.472       78.374       46.597     8737.107     6142.509     2171.253        1.853        0.853      141.449       50.151        0.126      338.572       11.313      860.229
03/03/2014  17:07:00     -144.046      -43.939       -7.764      120.113       56.279       40.193    14427.026     3167.364     1615.489        2.097        0.960      150.598       55.283        0.135      338.608       11.374      860.230
03/03/2014  17:08:00     -154.321      -39.354       -5.626      106.903       48.645       24.952    11428.328     2366.292      622.621        1.990        0.721      159.260       23.616        0.022      338.555       11.287      860.227
03/03/2014  17:09:00      -80.383      -82.675        1.904       65.846       43.929       36.629     4335.752     1929.796     1341.664        1.045        0.380      115.311       35.522        0.095      338.606       11.372      860.221
03/03/2014  17:10:00     -119.758      -64.236       -0.122       67.378       49.012       29.094     4539.732     2402.203      846.446        1.313        0.389      135.898       32.378        0.057      338.564       11.301      860.227
03/03/2014  17:11:00     -147.528     -100.144       11.129       67.388       73.851       43.063     4541.082     5453.984     1854.438        2.188        0.592      178.307       40.105        0.051      338.567       11.305      860.250
03/03/2014  17:12:00     -195.815     -152.683       -0.160      160.724      108.117       72.122    25832.112    11689.256     5201.581        5.218        2.136      248.306       79.805        0.103      338.518       11.220      860.264
03/03/2014  17:13:00     -132.518     -101.781       -5.070       83.855       76.710       34.840     7031.602     5884.358     1213.820        2.104        0.706      167.094       36.647        0.048      338.519       11.225      860.297
03/03/2014  17:14:00     -134.676      -81.260        2.701       75.165       77.436       41.106     5649.840     5996.306     1689.731        1.904        0.667      157.292       39.016        0.062      338.522       11.231      860.288
03/03/2014  17:15:00     -200.647      -62.857        4.277       78.030       52.609       31.722     6088.608     2767.709     1006.309        2.704        0.493      210.262       36.424        0.030      338.458       11.120      860.264
03/03/2014  17:16:00     -113.218      -64.361        0.422       90.829       75.482       54.265     8249.841     5697.469     2944.646        1.692        0.845      130.233       35.247        0.073      338.506       11.201      860.233
03/03/2014  17:17:00     -161.375      -43.181       13.377      116.737      101.267       60.010    13627.490    10255.031     3601.174        2.778        1.374      167.053       61.619        0.136      338.494       11.180      860.189
03/03/2014  17:18:00     -331.731     -104.162      -15.078      131.504      163.763       62.218    17293.286    26818.284     3871.108        8.454        2.399      347.700       58.299        0.028      338.388       11.001      860.193
03/03/2014  17:19:00     -186.892      -10.110      -10.093      104.381       84.662       44.305    10895.442     7167.649     1962.973        2.758        1.001      187.165       44.468        0.056      338.430       11.073      860.213
03/03/2014  17:20:00     -354.716     -101.514      -29.167      124.821       91.510       51.302    15580.238     8373.994     2631.850        8.178        1.329      368.956       48.114        0.017      338.380       10.990      860.236
03/03/2014  17:21:00     -229.660     -125.696       -3.849      147.379      113.459       63.891    21720.505    12873.031     4082.118        5.361        1.934      261.808       78.910        0.091      338.383       10.994      860.227
03/03/2014  17:22:00     -149.154      -95.467        4.489       94.674       79.058       53.871     8963.120     6250.187     2902.124        2.475        0.906      177.090       48.584        0.075      338.424       11.065      860.224
03/03/2014  17:23:00     -163.587      -82.898        4.047      109.639       75.901       47.914    12020.747     5760.891     2295.733        2.686        1.004      183.392       58.087        0.100      338.420       11.056      860.226
03/03/2014  17:24:00     -124.185     -137.862        9.308      100.073      107.490       68.011    10014.567    11554.190     4625.435        3.035        1.310      185.548       61.743        0.111      338.412       11.044      860.230
03/03/2014  17:25:00     -189.512     -107.918       -9.076       80.933       60.235       40.779     6550.138     3628.293     1662.955        2.974        0.592      218.085       41.485        0.036      338.391       11.007      860.207
03/03/2014  17:26:00      -45.919      -58.705       29.639       88.499       67.980       57.489     7832.023     4621.284     3305.033        1.109        0.788       74.531       52.074        0.488      338.426       11.070      860.209
03/03/2014  17:27:00     -105.198      -44.868       -2.686       64.545       64.289       42.154     4166.112     4133.032     1776.923        1.158        0.504      114.367       42.312        0.137      338.424       11.067      860.224
03/03/2014  17:28:00     -159.450      -55.029       -6.115       96.205       51.404       37.652     9255.430     2642.337     1417.643        2.090        0.666      168.679       42.428        0.063      338.399       11.022      860.258
03/03/2014  17:29:00     -167.130     -131.457      -10.106       78.897       58.455       43.886     6224.693     3417.028     1925.979        2.844        0.578      212.634       44.581        0.044      338.370       10.972      860.267
03/03/2014  17:30:00     -173.863      -44.260       -7.202       68.712       64.596       37.255     4721.295     4172.668     1387.921        2.126        0.514      179.409       41.014        0.052      338.360       10.956      860.252
03/03/2014  17:31:00     -164.229      -31.485      -17.581       56.849       62.086       31.187     3231.773     3854.613      972.635        1.816        0.403      167.220       23.269        0.019      338.365       10.966      860.256
03/03/2014  17:32:00      -27.322        1.704        8.566       44.053       40.010       18.373     1940.658     1600.799      337.580        0.235        0.194       27.375       21.601        0.623      338.434       11.082      860.267
03/03/2014  17:33:00     -162.731      -21.190      -12.464       60.580       39.586       28.362     3669.957     1567.042      804.388        1.656        0.302      164.105       29.902        0.033      338.360       10.956      860.274
03/03/2014  17:34:00     -149.495       -5.835       -4.928       56.005       59.800       34.185     3136.586     3576.019     1168.612        1.514        0.394      149.609       30.972        0.043      338.314       10.880      860.269
03/03/2014  17:35:00      -84.647      -39.343       -2.564       82.620       35.133       37.095     6826.109     1234.315     1376.026        0.908        0.472       93.344       41.385        0.197      338.342       10.926      860.270
03/03/2014  17:36:00      -88.679      -38.973        1.590       59.640       97.032       37.432     3556.935     9415.186     1401.178        1.188        0.719       96.865       27.713        0.082      338.355       10.948      860.276
03/03/2014  17:37:00     -137.459     -121.991        2.423       98.750       78.766       58.213     9751.482     6204.122     3388.723        2.656        0.967      183.784       59.193        0.104      338.359       10.954      860.266
03/03/2014  17:38:00     -220.556      -53.476      -15.285       83.722       76.498       41.991     7009.399     5851.964     1763.281        3.318        0.731      226.946       42.639        0.035      338.316       10.881      860.232
03/03/2014  17:39:00     -154.115       -2.609       -7.718       99.526       34.954       29.380     9905.437     1221.808      863.184        1.790        0.600      154.137       36.053        0.055      338.372       10.977      860.210
03/03/2014  17:40:00      -13.406      -24.727        9.974       37.370       25.262       20.093     1396.551      638.169      403.734        0.166        0.122       28.128       15.715        0.312      338.438       11.089      860.205
03/03/2014  17:41:00     -131.299      -70.749       -2.382       67.905       47.795       27.044     4611.062     2284.351      731.364        1.494        0.381      149.148       23.324        0.024      338.379       10.989      860.229
03/03/2014  17:42:00      -68.876      -75.735        2.912       56.689       50.361       30.267     3213.589     2536.272      916.115        0.858        0.333      102.370       31.106        0.092      338.362       10.962      860.247
03/03/2014  17:43:00     -101.045      -93.774       -6.497       43.170       69.223       30.897     1863.654     4791.810      954.609        1.333        0.381      137.853       31.842        0.053      338.364       10.964      860.215
03/03/2014  17:44:00     -113.715     -121.225        8.240      109.712      105.777       53.020    12036.825    11188.861     2811.156        2.686        1.302      166.212       50.187        0.091      338.312       10.876      860.163
03/03/2014  17:45:00     -230.214      -79.161      -12.795      174.476       95.288       62.533    30441.936     9079.785     3910.383        5.142        2.172      243.444       84.286        0.120      338.265       10.798      860.105
03/03/2014  17:46:00     -288.901      -24.870        1.322      142.248       72.395       63.498    20234.446     5241.039     4031.955        5.679        1.475      289.970       72.483        0.062      338.259       10.786      860.113
03/03/2014  17:47:00     -271.480     -109.894        6.875      144.159      118.371       61.396    20781.880    14011.753     3769.462        6.219        1.928      292.879       59.574        0.041      338.252       10.775      860.110
03/03/2014  17:48:00     -276.842     -161.249      -24.811      118.748       75.166       51.212    14101.203     5649.856     2622.697        6.281        1.119      320.379       49.220        0.024      338.229       10.735      860.092
03/03/2014  17:49:00     -101.777      -59.560        0.469      134.786       96.494       59.114    18167.147     9311.040     3494.412        2.243        1.549      117.923       56.038        0.226      338.281       10.824      860.074
03/03/2014  17:50:00     -190.599      -32.167       -6.384       89.131       63.598       46.928     7944.401     4044.655     2202.240        2.580        0.710      193.295       35.893        0.034      338.251       10.773      860.059
03/03/2014  17:51:00     -115.459       -7.940        8.668       84.994       56.288       40.770     7223.985     3168.344     1662.193        1.276        0.603      115.732       40.662        0.123      338.372       10.978      860.074
03/03/2014  17:52:00     -226.980      -78.040       -3.863       93.496       90.927       44.349     8741.513     8267.705     1966.839        3.830        0.949      240.021       42.748        0.032      338.314       10.878      860.099
03/03/2014  17:53:00     -233.775        9.681       -4.614      106.788       92.670       49.412    11403.623     8587.684     2441.591        3.860        1.122      233.976       52.627        0.051      338.314       10.878      860.119
03/03/2014  17:54:00     -253.462      -18.051        1.472       95.874       83.646       51.658     9191.822     6996.680     2668.513        4.171        0.943      254.104       52.931        0.043      338.323       10.894      860.122
03/03/2014  17:55:00     -158.534      -10.317       11.850       84.369       65.081       42.922     7118.163     4235.478     1842.336        1.929        0.660      158.869       46.718        0.086      338.298       10.852      860.129
03/03/2014  17:56:00     -111.336      -18.637        9.968       61.313       57.412       36.395     3759.332     3296.111     1324.626        1.061        0.419      112.885       28.124        0.062      338.367       10.971      860.141
03/03/2014  17:57:00     -196.897      -61.694       -8.286      163.733       73.836       45.493    26808.498     5451.827     2069.639        3.848        1.716      206.336       56.252        0.074      338.256       10.782      860.148
03/03/2014  17:58:00     -211.803      -57.327       -5.877      145.711      102.819       54.914    21231.691    10571.792     3015.542        4.149        1.741      219.424       69.397        0.100      338.255       10.780      860.158
03/03/2014  17:59:00      -77.431      -54.125       19.785       89.987       83.342       55.335     8097.620     6945.944     3062.008        1.371        0.905       94.472       58.921        0.389      338.262       10.793      860.179
03/03/2014  18:00:00     -102.355      -76.536       -4.846      108.894       70.227       52.816    11858.008     4931.874     2789.556        1.797        0.979      127.806       58.622        0.210      338.259       10.789      860.187
03/03/2014  18:01:00     -249.832     -157.697      -22.546      133.995      130.273       52.366    17954.688    16971.076     2742.170        6.272        1.883      295.439       37.697        0.016      338.224       10.727      860.168
03/03/2014  18:02:00     -204.689      -35.561       -7.523      125.748       88.376       51.424    15812.587     7810.264     2644.467        3.474        1.313      207.755       50.266        0.059      338.241       10.756      860.146
03/03/2014  18:03:00     -261.482      -57.694       -7.733       95.577       93.846       48.765     9134.952     8807.052     2378.069        4.604        1.016      267.772       44.928        0.028      338.204       10.693      860.116
03/03/2014  18:04:00     -217.251     -132.684       -8.446      133.911      105.063       48.650    17932.225    11038.148     2366.866        4.810        1.567      254.565       50.155        0.039      338.189       10.668      860.107
03/03/2014  18:05:00      -89.921      -56.253        7.858      109.524       82.851       63.136    11995.540     6864.351     3986.130        1.708        1.142      106.067       57.741        0.296      338.225       10.731      860.104
03/03/2014  18:06:00     -255.511      -45.724      -12.817      111.287       85.850       54.685    12384.699     7370.140     2990.494        4.514        1.137      259.570       55.886        0.046      338.258       10.785      860.114
03/03/2014  18:07:00     -274.981      -87.995       -4.904      144.116      117.485       58.491    20769.335    13802.713     3421.169        6.068        1.900      288.717       67.957        0.055      338.171       10.637      860.117
03/03/2014  18:08:00     -168.512      -30.941       16.208      133.841       90.773       56.920    17913.344     8239.826     3239.848        2.950        1.470      171.329       68.287        0.159      338.235       10.747      860.110
03/03/2014  18:09:00     -204.451        0.664      -10.160      108.246       72.976       42.849    11717.250     5325.449     1836.011        3.039        0.944      204.452       48.845        0.057      338.235       10.746      860.111
03/03/2014  18:10:00     -152.600      -45.068       -0.005       91.191       84.013       38.493     8315.805     7058.171     1481.679        2.108        0.843      159.116       47.515        0.089      338.205       10.697      860.120
03/03/2014  18:11:00     -220.635      -20.323      -14.156      111.833       73.061       53.451    12506.627     5337.927     2856.979        3.499        1.035      221.569       58.379        0.069      338.203       10.692      860.137
03/03/2014  18:12:00     -120.784      -68.958        4.741       74.580       51.598       31.232     5562.244     2662.343      975.440        1.428        0.460      139.082       31.510        0.051      338.210       10.705      860.147
03/03/2014  18:13:00     -193.590      -17.546      -13.920      124.424       59.856       45.245    15481.341     3582.703     2047.070        2.954        1.056      194.383       59.116        0.092      338.232       10.740      860.154
03/03/2014  18:14:00     -193.867      -63.885       -0.156      134.305       73.928       44.982    18037.944     5465.363     2023.357        3.359        1.276      204.121       62.543        0.094      338.221       10.721      860.164
03/03/2014  18:15:00     -226.000     -117.868       -3.358      111.413       96.798       56.520    12412.852     9369.858     3194.478        4.497        1.249      254.890       62.074        0.059      338.158       10.615      860.169
03/03/2014  18:16:00     -258.042       -5.266       -9.162      113.811      143.293       72.907    12953.047    20532.952     5315.375        5.274        1.940      258.095       52.033        0.041      338.185       10.660      860.177
03/03/2014  18:17:00     -227.509      -64.926      -16.070       86.844       73.799       52.344     7541.878     5446.223     2739.902        3.598        0.786      236.592       52.986        0.050      338.187       10.664      860.218
03/03/2014  18:18:00     -178.143       -2.943        2.525       89.031       64.469       38.585     7926.545     4156.218     1488.794        2.266        0.679      178.168       36.469        0.042      338.226       10.730      860.246
03/03/2014  18:19:00     -149.943       16.791       -1.710       55.704       30.616       26.918     3102.991      937.351      724.560        1.377        0.238      150.881       26.648        0.031      338.177       10.651      860.234
03/03/2014  18:20:00     -135.220      -31.658        3.540       90.946       47.352       28.403     8271.111     2242.170      806.724        1.531        0.566      138.877       33.478        0.058      338.138       10.583      860.224
03/03/2014  18:21:00     -184.641      -51.172       -8.313       84.462       58.849       41.365     7133.769     3463.258     1711.038        2.454        0.615      191.601       38.101        0.040      338.132       10.572      860.205
03/03/2014  18:22:00     -173.213      -58.332       -4.549       81.593       62.493       39.805     6657.403     3905.427     1584.471        2.278        0.607      182.772       35.814        0.038      338.130       10.572      860.187
03/03/2014  18:23:00     -120.474     -111.788       -5.674      128.015       74.213       48.110    16387.830     5507.559     2314.569        2.562        1.210      164.349       62.659        0.145      338.147       10.599      860.202
03/03/2014  18:24:00     -194.382      -98.891       -0.664      102.631       56.450       48.765    10533.166     3186.618     2377.981        3.183        0.805      218.092       48.544        0.050      338.138       10.583      860.227
03/03/2014  18:25:00     -193.955     -151.455      -14.752       74.600       71.075       40.982     5565.151     5051.627     1679.503        3.653        0.615      246.083       26.441        0.012      338.139       10.584      860.244
03/03/2014  18:26:00     -173.892     -151.682        4.801       98.182       65.390       54.754     9639.619     4275.847     2997.966        3.509        0.846      230.750       52.157        0.051      338.132       10.571      860.244
03/03/2014  18:27:00     -183.372     -138.178      -12.597      101.470       93.267       47.805    10296.188     8698.722     2285.290        3.708        1.064      229.605       52.295        0.052      338.126       10.562      860.230
03/03/2014  18:28:00      -39.406      -67.828       13.799       72.358       70.303       34.544     5235.730     4942.552     1193.271        0.886        0.569       78.444       23.705        0.091      338.182       10.660      860.229
03/03/2014  18:29:00      -91.441     -123.142       -0.405      110.280       74.092       42.938    12161.593     5489.680     1843.638        2.151        0.975      153.380       55.750        0.132      338.158       10.618      860.239
03/03/2014  18:30:00      -63.269      -32.601       26.839       94.933       65.499       59.672     9012.356     4290.132     3560.792        1.132        0.843       71.174       63.373        0.793      338.189       10.672      860.220
03/03/2014  18:31:00     -124.790      -51.447       -7.649       60.786       51.648       29.580     3694.987     2667.487      874.965        1.276        0.362      134.979       28.939        0.046      338.127       10.567      860.217
03/03/2014  18:32:00      -71.128      -62.643       -8.177       40.668       37.767       25.415     1653.922     1426.346      645.930        0.639        0.186       94.781       10.491        0.012      338.150       10.607      860.183
03/03/2014  18:33:00     -108.224      -13.917      -10.214       78.834       58.655       31.727     6214.788     3440.457     1006.616        1.133        0.533      109.115       18.729        0.029      338.141       10.591      860.170
03/03/2014  18:34:00     -113.731      -58.570      -12.264       59.526       64.385       32.302     3543.385     4145.421     1043.415        1.262        0.437      127.927       32.893        0.066      338.134       10.580      860.196
03/03/2014  18:35:00     -134.565      -86.647        6.721      126.807       74.135       45.816    16080.069     5495.977     2099.090        2.466        1.184      160.048       43.815        0.075      338.120       10.554      860.210
03/03/2014  18:36:00      -67.500      -46.254        0.845       80.974       76.958       49.029     6556.793     5922.606     2403.797        1.079        0.744       81.827       51.139        0.391      338.175       10.649      860.222
03/03/2014  18:37:00     -136.386     -104.972        6.399      114.291       81.434       65.829    13062.352     6631.504     4333.520        2.684        1.201      172.105       72.668        0.178      338.090       10.504      860.208
03/03/2014  18:38:00      -95.041      -97.299       -3.991       73.266       51.214       42.754     5367.914     2622.905     1827.935        1.417        0.491      136.014       43.567        0.103      338.130       10.572      860.188
03/03/2014  18:39:00      -35.037      -28.590       33.404       96.782       61.107       37.221     9366.689     3734.052     1385.425        0.882        0.724       45.222       42.051        0.865      338.198       10.687      860.168
03/03/2014  18:40:00     -233.019     -148.526       -2.358      111.332       90.316       56.226    12394.871     8157.045     3161.359        5.003        1.186      276.329       55.508        0.040      338.114       10.541      860.174
03/03/2014  18:41:00     -112.993     -120.812        1.885      104.484       54.388       51.765    10916.820     2958.100     2679.593        2.196        0.828      165.418       40.769        0.061      338.129       10.569      860.194
03/03/2014  18:42:00     -246.088     -160.672       -7.772      149.843       78.650       54.627    22453.021     6185.840     2984.128        5.902        1.581      293.896       69.469        0.056      338.107       10.532      860.205
03/03/2014  18:43:00     -104.654     -129.802       -0.656       95.776       75.478       45.202     9173.084     5696.977     2043.204        2.235        0.846      166.736       51.901        0.097      338.124       10.561      860.206
03/03/2014  18:44:00     -112.325     -167.412       -9.172       56.420       67.322       39.260     3183.235     4532.276     1541.354        2.499        0.463      201.602       30.587        0.023      338.100       10.520      860.231
03/03/2014  18:45:00     -137.046     -117.217        5.115       62.510       74.362       33.122     3907.477     5529.678     1097.057        2.154        0.527      180.337       27.403        0.023      338.120       10.553      860.259
03/03/2014  18:46:00     -101.425     -125.806      -13.057       62.823       58.819       27.891     3946.691     3459.664      777.932        1.723        0.409      161.599       25.354        0.025      338.119       10.552      860.269
03/03/2014  18:47:00      -88.582      -98.626       -0.262       42.132       59.273       28.780     1775.073     3513.230      828.270        1.184        0.306      132.566       30.866        0.054      338.133       10.578      860.244
03/03/2014  18:48:00      -72.352      -60.850        7.525       39.864       37.202       24.090     1589.100     1384.016      580.326        0.627        0.178       94.539       24.048        0.065      338.135       10.579      860.225
03/03/2014  18:49:00     -116.921      -75.796        5.607       69.226       36.015       28.573     4792.185     1297.053      816.408        1.318        0.345      139.339       32.609        0.055      338.162       10.625      860.229
03/03/2014  18:50:00     -121.059      -51.095        3.992       96.751       39.921       34.049     9360.754     1593.654     1159.365        1.470        0.606      131.400       43.620        0.110      338.181       10.657      860.244
03/03/2014  18:51:00     -105.047     -122.559        3.164       79.067       65.768       31.602     6251.567     4325.470      998.700        1.882        0.579      161.418       36.813        0.052      338.125       10.565      860.235
03/03/2014  18:52:00     -115.832      -37.169       13.609       68.948       44.594       32.977     4753.823     1988.646     1087.481        1.141        0.391      121.650       39.151        0.104      338.099       10.521      860.198
03/03/2014  18:53:00      -91.684     -102.146       -5.384       33.747       48.625       22.500     1138.872     2364.344      506.253        1.144        0.200      137.257       14.320        0.011      338.116       10.548      860.177
03/03/2014  18:54:00      -72.230     -100.407        0.003       55.601       54.099       34.124     3091.480     2926.653     1164.456        1.124        0.359      123.688       31.528        0.065      338.162       10.627      860.173
03/03/2014  18:55:00       -9.827      -12.723       29.825       41.962       39.817       27.171     1760.831     1585.371      738.283        0.262        0.204       16.076       20.913        1.692      338.167       10.635      860.155
03/03/2014  18:56:00     -153.417     -124.157       -9.067       93.042       94.572       44.031     8656.816     8943.772     1938.698        2.928        0.977      197.362       41.140        0.043      338.191       10.671      860.162
03/03/2014  18:57:00     -124.566      -86.254       -2.589       98.688       89.821       47.529     9739.284     8067.866     2259.038        2.151        1.003      151.513       52.642        0.121      338.179       10.651      860.179
03/03/2014  18:58:00     -198.636      -44.195      -11.696       69.836       78.255       41.542     4877.113     6123.871     1725.714        2.713        0.636      203.493       37.316        0.034      338.137       10.582      860.155
03/03/2014  18:59:00     -178.069       14.306       -3.267       77.984       53.271       40.829     6081.503     2837.779     1666.974        2.125        0.529      178.643       44.680        0.063      338.212       10.708      860.146
03/03/2014  19:00:00     -147.428      -73.090       -9.970       65.933       41.843       24.159     4347.193     1750.870      583.634        1.693        0.334      164.551       11.325        0.005      338.098       10.518      860.145
03/03/2014  19:01:00     -117.243     -120.716       -0.511       48.579       55.222       28.562     2359.875     3049.476      815.779        1.727        0.311      168.280       18.892        0.013      338.103       10.528      860.152
03/03/2014  19:02:00     -125.996     -112.098       -1.105       94.802       61.142       40.414     8987.338     3738.349     1633.317        2.140        0.718      168.644       41.427        0.060      338.108       10.533      860.175
03/03/2014  19:03:00     -127.519      -44.827       -9.602       46.899       64.396       36.577     2199.521     4146.847     1337.906        1.302        0.384      135.168       31.337        0.054      338.093       10.509      860.180
03/03/2014  19:04:00     -161.009      -55.207        3.043      114.694       53.678       33.308    13154.649     2881.300     1109.446        2.306        0.857      170.211       39.390        0.054      338.107       10.532      860.183
03/03/2014  19:05:00     -203.614       -1.653       -6.011      107.089       74.504       47.200    11468.157     5550.810     2227.809        3.037        0.962      203.621       55.990        0.076      338.122       10.557      860.179
03/03/2014  19:06:00     -147.193      -43.099        0.252       64.101       64.541       38.005     4108.987     4165.488     1444.349        1.662        0.486      153.373       29.632        0.037      338.100       10.521      860.167
03/03/2014  19:07:00     -147.228     -141.705        7.166      104.874       84.170       62.238    10998.626     7084.562     3873.590        3.188        1.098      204.344       65.134        0.102      338.064       10.458      860.153
03/03/2014  19:08:00     -218.739      -30.301       -2.347      133.793      117.776       56.969    17900.438    13871.206     3245.494        4.189        1.751      220.827       62.878        0.081      338.125       10.561      860.127
03/03/2014  19:09:00      -92.621     -123.117       22.978      127.460       93.169       75.393    16246.127     8680.387     5684.105        2.743        1.531      154.066       73.828        0.230      338.107       10.531      860.115
03/03/2014  19:10:00     -148.965     -101.956       -5.307       98.833       78.328       51.020     9768.048     6135.279     2603.036        2.556        0.925      180.514       53.275        0.087      338.079       10.484      860.116
03/03/2014  19:11:00     -103.120      -60.419        2.059       78.950       67.525       44.101     6233.152     4559.579     1944.872        1.351        0.637      119.516       42.366        0.126      338.078       10.484      860.116
03/03/2014  19:12:00     -166.064      -91.725       -0.438       65.342       52.172       41.082     4269.584     2721.946     1687.768        2.233        0.434      189.712       40.102        0.045      338.079       10.486      860.106
03/03/2014  19:13:00     -245.168     -125.568       -9.834       84.681       75.481       46.488     7170.795     5697.395     2161.088        4.550        0.751      275.454       31.188        0.013      338.080       10.485      860.103
03/03/2014  19:14:00     -213.830     -167.813        1.995      110.329       87.494       49.182    12172.559     7655.141     2418.895        4.806        1.112      271.817       58.694        0.047      338.064       10.460      860.088
03/03/2014  19:15:00     -290.756     -112.599      -13.194       85.555       92.793       46.216     7319.657     8610.474     2135.892        5.773        0.903      311.798       38.778        0.015      338.066       10.461      860.104
03/03/2014  19:16:00     -244.842      -80.442       -9.457      109.034       86.703       54.158    11888.404     7517.340     2933.093        4.442        1.117      257.718       56.878        0.049      338.071       10.470      860.128
03/03/2014  19:17:00     -173.710      -63.529        6.021      102.091       61.645       42.268    10422.586     3800.156     1786.587        2.513        0.800      184.962       50.666        0.075      338.075       10.479      860.118
03/03/2014  19:18:00     -144.449     -110.252       -9.853      100.502       57.437       41.286    10100.591     3298.961     1704.506        2.411        0.755      181.717       41.313        0.052      338.087       10.498      860.106
03/03/2014  19:19:00     -140.700      -66.235        3.841       84.218       72.581       39.912     7092.692     5267.930     1592.991        1.907        0.698      155.510       36.365        0.055      338.070       10.472      860.097
03/03/2014  19:20:00     -200.531      -83.657        5.536       72.820       68.589       37.740     5302.778     4704.492     1424.344        2.933        0.572      217.281       37.646        0.030      338.076       10.478      860.086
03/03/2014  19:21:00     -150.072      -66.818        1.462      103.283      107.632       42.437    10667.278    11584.648     1800.938        2.552        1.203      164.274       52.712        0.103      338.117       10.548      860.078
03/03/2014  19:22:00     -228.654      -95.819       -7.890      107.317       87.068       53.937    11517.021     7580.844     2909.236        4.176        1.100      247.919       56.669        0.052      338.051       10.437      860.077
03/03/2014  19:23:00     -157.102      -12.119        4.238       72.381       63.238       38.471     5239.053     3999.022     1480.013        1.778        0.536      157.569       40.773        0.067      338.156       10.615      860.091
03/03/2014  19:24:00     -239.730      -85.347       -7.599       81.862       77.039       39.085     6701.445     5935.020     1527.623        3.949        0.708      254.469       38.279        0.023      338.065       10.460      860.104
03/03/2014  19:25:00     -208.641      -47.903        4.643       89.937       65.912       44.561     8088.596     4344.373     1985.671        3.013        0.721      214.069       42.361        0.039      338.025       10.395      860.094
03/03/2014  19:26:00     -123.290     -155.007       -1.494       88.304       84.627       40.849     7797.618     7161.675     1668.645        2.793        0.831      198.059       46.341        0.055      338.043       10.423      860.060
03/03/2014  19:27:00     -214.897     -127.651        3.103      115.225       83.469       49.191    13276.768     6966.995     2419.799        4.257        1.133      249.951       48.851        0.038      338.036       10.411      860.033
03/03/2014  19:28:00     -186.112     -120.128        2.949       71.881       79.837       46.209     5166.825     6373.939     2135.246        3.137        0.684      221.514       45.919        0.043      338.032       10.405      860.014
03/03/2014  19:29:00     -149.680      -91.338        4.301       90.705       72.212       40.592     8227.317     5214.610     1647.728        2.292        0.754      175.347       41.812        0.057      338.051       10.438      860.005
03/03/2014  19:30:00     -103.049      -64.987        6.126       93.825       52.048       29.784     8803.118     2708.984      887.069        1.364        0.620      121.830       32.457        0.071      338.058       10.452      860.018
03/03/2014  19:31:00     -171.978     -107.076       -5.518       98.043       79.550       40.658     9612.477     6328.226     1653.041        2.933        0.880      202.588       52.837        0.068      338.062       10.456      860.043
03/03/2014  19:32:00     -181.503     -169.691       -2.508       93.076       74.434       52.161     8663.209     5540.479     2720.738        3.933        0.846      248.473       55.147        0.049      338.044       10.425      860.052
03/03/2014  19:33:00     -103.465     -115.734        3.346       51.501       57.322       33.592     2652.354     3285.828     1128.452        1.559        0.353      155.240       26.797        0.030      338.051       10.439      860.066
03/03/2014  19:34:00     -167.974      -55.573        4.048      104.300       62.443       43.677    10878.392     3899.138     1907.716        2.400        0.834      176.929       45.065        0.065      338.058       10.449      860.076
03/03/2014  19:35:00     -186.634     -167.012        2.880      109.069       92.218       50.122    11895.941     8504.091     2512.165        4.282        1.146      250.450       47.474        0.036      338.027       10.398      860.087
03/03/2014  19:36:00     -229.836     -127.873      -10.286       89.750       62.889       39.857     8055.147     3954.991     1588.554        4.144        0.680      263.014       33.973        0.017      338.005       10.359      860.065
03/03/2014  19:37:00     -204.138     -122.434       -6.126      134.914       77.248       48.183    18201.798     5967.193     2321.586        4.159        1.325      238.039       65.299        0.075      338.005       10.359      860.039
03/03/2014  19:38:00     -146.460      -87.351        3.151       92.429       61.350       34.997     8543.132     3763.807     1224.773        2.131        0.677      170.530       43.039        0.064      338.029       10.403      859.999
03/03/2014  19:39:00     -144.699     -110.037       -5.788       54.173       48.416       31.384     2934.694     2344.124      984.985        1.967        0.313      181.786       26.770        0.022      338.050       10.437      859.988
03/03/2014  19:40:00     -220.107     -178.508      -13.944       84.972       67.002       41.130     7220.294     4489.306     1691.651        4.695        0.670      283.394       43.909        0.024      338.003       10.358      859.982
03/03/2014  19:41:00     -226.004     -227.586      -10.498       98.096       90.560       55.035     9622.866     8201.169     3028.800        6.191        1.043      320.739       47.368        0.022      338.009       10.367      859.969
03/03/2014  19:42:00     -215.642     -168.033        4.833      122.789       81.071       66.283    15077.202     6572.457     4393.443        5.040        1.302      273.380       75.374        0.076      337.997       10.346      859.961
03/03/2014  19:43:00     -204.154     -158.154       -6.843      104.439       69.857       60.669    10907.551     4880.005     3680.778        4.310        0.973      258.247       53.566        0.043      337.991       10.337      859.973
03/03/2014  19:44:00     -115.930      -94.930       -3.480       74.568       45.104       33.299     5560.328     2034.344     1108.823        1.558        0.435      149.838       34.535        0.053      337.992       10.340      859.979
03/03/2014  19:45:00      -75.184      -86.632        3.075       53.135       62.063       31.503     2823.366     3851.828      992.447        1.042        0.383      114.707       29.621        0.067      338.007       10.367      859.985
03/03/2014  19:46:00     -136.246      -94.368       -5.014       81.886       52.102       39.225     6705.274     2714.626     1538.619        1.922        0.548      165.736       39.819        0.058      338.004       10.360      859.989
03/03/2014  19:47:00     -154.047      -45.133        4.670       82.124       57.140       34.332     6744.405     3264.946     1178.676        1.849        0.559      160.522       33.587        0.044      338.010       10.370      859.989
03/03/2014  19:48:00     -140.215     -102.003       -6.836       92.320       77.952       43.785     8522.980     6076.566     1917.148        2.331        0.826      173.392       53.591        0.096      338.002       10.356      859.993
03/03/2014  19:49:00     -118.877      -58.671        9.571       89.181       54.741       40.518     7953.189     2996.528     1641.706        1.513        0.630      132.567       39.614        0.089      338.005       10.363      859.972
03/03/2014  19:50:00     -172.655     -147.798       -2.792      121.571       78.040       59.849    14779.404     6090.239     3581.911        3.805        1.223      227.275       71.496        0.099      337.981       10.320      859.943
03/03/2014  19:51:00     -171.567     -128.543        5.037       90.832       81.286       52.467     8250.489     6607.482     2752.816        3.179        0.881      214.379       56.359        0.069      337.984       10.325      859.908
03/03/2014  19:52:00      -96.413      -73.025        9.706       64.306       58.527       34.025     4135.199     3425.440     1157.707        1.172        0.436      120.947       31.911        0.070      338.014       10.377      859.896
03/03/2014  19:53:00      -86.500      -70.504       -1.245       83.027       47.798       38.936     6893.401     2284.615     1516.038        1.157        0.535      111.593       44.712        0.161      337.983       10.325      859.897
03/03/2014  19:54:00     -158.503     -132.810       -6.632       75.731       51.378       38.161     5735.186     2639.736     1456.270        2.632        0.492      206.789       39.965        0.037      337.945       10.261      859.918
03/03/2014  19:55:00     -170.991      -71.636       -6.063       86.251       60.164       30.151     7439.287     3619.748      909.085        2.319        0.598      185.391       27.079        0.021      337.976       10.313      859.945
03/03/2014  19:56:00     -179.887      -73.941      -10.579       68.244       40.136       27.609     4657.227     1610.868      762.275        2.248        0.352      194.490       26.463        0.019      337.948       10.266      859.950
03/03/2014  19:57:00      -85.185      -45.426       10.422       47.109       60.009       31.583     2219.235     3601.046      997.502        0.812        0.341       96.540       25.457        0.070      337.947       10.267      859.936
03/03/2014  19:58:00      -42.619      -57.193       14.247       53.004       53.526       35.857     2809.469     2865.081     1285.705        0.612        0.348       71.326       35.207        0.244      338.027       10.400      859.922
03/03/2014  19:59:00     -115.342      -19.693       -3.343       52.706       30.992       27.024     2777.870      960.501      730.308        0.908        0.223      117.011       24.510        0.044      337.960       10.288      859.911
03/03/2014  20:00:00      -79.884      -55.939        2.979       67.410       71.337       36.399     4544.043     5088.994     1324.876        1.024        0.548       97.523       36.784        0.142      338.013       10.377      859.918
03/03/2014  20:01:00     -123.753      -74.795       -0.885       99.351       65.305       39.443     9870.618     4264.798     1555.714        1.830        0.785      144.600       47.822        0.109      337.990       10.336      859.951
03/03/2014  20:02:00     -185.259      -64.158      -15.488       50.260       47.804       32.121     2526.039     2285.203     1031.753        2.226        0.292      196.054       19.763        0.010      337.945       10.262      859.979
03/03/2014  20:03:00     -177.117      -42.631       -5.126       48.934       39.944       25.494     2394.494     1595.545      649.961        1.893        0.232      182.175       25.936        0.020      337.924       10.226      859.998
03/03/2014  20:04:00     -226.772      -69.671      -10.357       64.282       45.184       25.075     4132.222     2041.585      628.736        3.159        0.340      237.233       30.929        0.017      337.946       10.258      859.999
03/03/2014  20:05:00     -245.325      -83.548       -5.716       69.335       60.932       35.934     4807.340     3712.711     1291.241        3.850        0.491      259.161       31.583        0.015      337.920       10.215      860.001
03/03/2014  20:06:00     -144.257      -65.831        1.198       60.142       53.830       36.619     3617.047     2897.672     1340.978        1.650        0.393      158.568       25.962        0.027      337.898       10.181      860.022
03/03/2014  20:07:00     -131.068      -58.842       -6.929       43.068       50.696       21.668     1854.826     2570.106      469.482        1.279        0.245      143.670       26.300        0.034      337.900       10.185      860.033
03/03/2014  20:08:00     -101.745      -19.810       -8.931       29.484       36.388       16.297      869.303     1324.066      265.588        0.664        0.123      103.656       10.497        0.010      337.923       10.225      860.054
03/03/2014  20:09:00      -71.983      -37.050       -6.793       34.098       25.841       15.970     1162.667      667.739      255.056        0.434        0.104       80.959       12.902        0.025      337.990       10.339      860.079
03/03/2014  20:10:00     -110.470      -71.078       -8.101       74.232       51.424       36.274     5510.348     2644.451     1315.834        1.339        0.474      131.361       40.566        0.095      337.931       10.239      860.087
03/03/2014  20:11:00     -121.909      -37.354      -15.082       32.898       35.272       18.535     1082.285     1244.100      343.541        0.958        0.133      127.503       20.413        0.026      337.904       10.191      860.071
03/03/2014  20:12:00      -34.702      -21.268       -1.219       48.632       17.362       19.037     2365.039      301.453      362.392        0.234        0.151       40.701       23.941        0.346      337.934       10.244      860.031
03/03/2014  20:13:00      -19.241      -28.704        1.401       45.048       12.108       16.978     2029.348      146.604      288.242        0.183        0.123       34.556       22.754        0.434      337.881       10.157      860.003
03/03/2014  20:14:00      -28.403      -42.093        2.527       29.154       17.892       10.665      849.964      320.123      113.745        0.193        0.064       50.780       12.341        0.059      337.985       10.328      860.009
03/03/2014  20:15:00      -27.482      -12.386        4.950       22.559       25.343       18.506      508.907      642.262      342.488        0.121        0.075       30.144       15.943        0.280      337.958       10.284      860.040
03/03/2014  20:16:00      -17.467      -16.421        3.092       30.182       21.515       15.499      910.964      462.884      240.211        0.110        0.081       23.974       14.901        0.386      337.992       10.340      860.044
03/03/2014  20:17:00      -39.667      -22.963        4.124       35.413       21.770       18.581     1254.087      473.947      345.258        0.210        0.104       45.834        7.270        0.025      337.956       10.281      860.031
03/03/2014  20:18:00      -40.070       -8.968       10.198       21.133       19.394       17.248      446.611      376.144      297.491        0.145        0.056       41.061       10.434        0.065      337.921       10.220      860.029
03/03/2014  20:19:00       -6.538        1.862        7.846       13.373       15.220       12.906      178.836      231.658      166.577        0.034        0.029        6.798        5.132        0.570      337.945       10.260      860.026
03/03/2014  20:20:00       -2.091        8.218       19.250        9.249       10.471        6.463       85.552      109.639       41.775        0.034        0.012        8.480        6.328        0.557      338.027       10.399      860.016
03/03/2014  20:21:00      -24.764       13.062        6.037       11.533        9.939       10.964      133.015       98.784      120.214        0.059        0.018       27.998        4.836        0.030      337.940       10.252      860.006
03/03/2014  20:22:00      -76.071      -26.479       -2.992       15.591       16.993       12.404      243.093      288.767      153.870        0.359        0.034       80.548        7.999        0.010      337.962       10.289      860.008
03/03/2014  20:23:00      -40.509      -12.479        3.478       27.830       22.079       14.862      774.528      487.470      220.889        0.165        0.074       42.387       13.837        0.107      338.083       10.493      860.021
03/03/2014  20:24:00      -18.856      -11.670        4.464       16.665       12.343        8.648      277.715      152.358       74.780        0.051        0.025       22.176        7.164        0.104      338.009       10.369      860.027
03/03/2014  20:25:00      -28.676      -22.385       -0.784       21.891       16.435       12.073      479.218      270.108      145.753        0.111        0.045       36.379       11.816        0.105      337.990       10.337      860.056
03/03/2014  20:26:00      -23.986      -54.424       -4.943       20.597       32.979       17.728      424.252     1087.609      314.295        0.269        0.091       59.475       18.034        0.092      337.982       10.324      860.107
03/03/2014  20:27:00      -39.096      -31.123        3.557       30.819       16.252       15.024      949.797      264.121      225.725        0.197        0.072       49.972       15.849        0.101      337.958       10.285      860.149
03/03/2014  20:28:00      -22.423      -28.849       10.130       35.336       25.032       19.596     1248.636      626.625      383.991        0.185        0.113       36.539       19.001        0.270      337.934       10.246      860.179
03/03/2014  20:29:00       -8.989      -36.487        4.119       27.436       25.934       17.193      752.723      672.589      295.601        0.157        0.086       37.578       11.730        0.097      337.971       10.305      860.217
03/03/2014  20:30:00      -94.706      -65.950        3.151       32.007       30.206       22.288     1024.444      912.417      496.776        0.788        0.122      115.406       17.551        0.023      337.918       10.217      860.241
03/03/2014  20:31:00       -1.000       -1.584       17.119       53.203       37.372       32.054     2830.551     1396.700     1027.487        0.277        0.263        1.873       38.082      413.302      337.966       10.296      860.243
03/03/2014  20:32:00        4.895       26.762       63.283       35.633       48.736       27.954     1269.718     2375.177      781.450        0.458        0.221       27.205       19.998        0.540      337.985       10.329      860.212
03/03/2014  20:33:00        9.992      -42.549       39.671       34.594       59.642       45.685     1196.755     3557.166     2087.101        0.516        0.342       43.706       15.592        0.127      337.970       10.304      860.219
03/03/2014  20:34:00       50.840      -81.564       22.422       49.985       94.974       49.547     2498.507     9020.012     2454.934        1.185        0.699       96.112       64.169        0.446      337.946       10.265      860.251
03/03/2014  20:35:00       44.638     -121.415      -12.369       94.411       52.677       31.937     8913.408     2774.821     1019.967        1.480        0.635      129.361       23.360        0.033      337.968       10.300      860.260
03/03/2014  20:36:00       28.294      -70.668        9.613       80.606       54.071       37.044     6497.404     2923.675     1372.259        0.834        0.540       76.121       31.641        0.173      337.989       10.336      860.268
03/03/2014  20:37:00      -36.760      -47.084       -0.151       64.947       48.651       31.136     4218.069     2366.910      969.466        0.556        0.378       59.734       24.359        0.166      337.912       10.207      860.265
03/03/2014  20:38:00      -48.362      -84.824        3.212       63.252       51.847       31.098     4000.764     2688.133      967.108        0.860        0.383       97.642       33.295        0.116      337.953       10.275      860.265
03/03/2014  20:39:00      -56.475      -60.182       16.684       54.545       57.532       41.567     2975.119     3309.979     1727.828        0.755        0.401       82.531       28.505        0.119      337.922       10.225      860.270
03/03/2014  20:40:00      -16.505      -99.450      -13.905       33.484       75.164       33.679     1121.199     5649.574     1134.279        0.913        0.395      100.810       38.409        0.145      337.975       10.313      860.290
03/03/2014  20:41:00      -64.144     -117.671       -1.348       37.093       57.925       18.218     1375.918     3355.251      331.884        1.151        0.253      134.018       13.812        0.011      337.826       10.063      860.318
03/03/2014  20:42:00        0.630      -66.067       29.066       78.552       78.514       44.809     6170.358     6164.423     2007.841        0.977        0.717       66.070       53.326        0.651      337.942       10.256      860.328
03/03/2014  20:43:00      -29.987      -61.447       16.109       80.559       67.474       27.789     6489.803     4552.716      772.215        0.837        0.591       68.374       30.274        0.196      337.969       10.302      860.318
03/03/2014  20:44:00      -70.111      -75.569        1.031       54.441       31.625       26.672     2963.860     1000.112      711.373        0.765        0.234      103.083       23.503        0.052      337.933       10.242      860.308
03/03/2014  20:45:00      -62.301       28.899       14.904       40.820       34.988       30.710     1666.301     1224.135      943.131        0.439        0.192       68.677       31.516        0.211      337.876       10.147      860.316
03/03/2014  20:46:00      -83.419      -12.574       -8.159       26.075       23.942       26.838      679.917      573.234      720.256        0.458        0.099       84.362       15.696        0.035      337.866       10.128      860.332
03/03/2014  20:47:00      -28.103      -43.049       10.694       50.066       27.078       30.058     2506.560      733.241      903.499        0.345        0.207       51.410       33.522        0.425      337.857       10.114      860.364
03/03/2014  20:48:00      -52.746      -81.310       -0.019       41.190       52.679       19.216     1696.590     2775.094      369.241        0.712        0.242       96.920       15.086        0.024      337.758        9.948      860.353
03/03/2014  20:49:00      -51.819      -26.957       -2.246       67.310       51.123       28.042     4530.585     2613.594      786.363        0.567        0.397       58.411       34.951        0.358      337.753        9.940      860.326
03/03/2014  20:50:00      -56.531      -40.465        1.025       32.495       26.284       19.099     1055.943      690.832      364.763        0.347        0.106       69.521       12.650        0.033      337.694        9.841      860.325
03/03/2014  20:51:00      -69.779        5.805        7.074       54.086       27.976       25.462     2925.300      782.682      648.304        0.465        0.218       70.020       21.061        0.090      337.870       10.135      860.318
03/03/2014  20:52:00     -105.979      -28.469       -4.999       45.982       35.663       23.688     2114.328     1271.865      561.128        0.801        0.197      109.736       22.229        0.041      337.822       10.057      860.313
03/03/2014  20:53:00     -105.567      -77.049       -3.397       53.286       39.373       24.631     2839.438     1550.224      606.697        1.104        0.250      130.694       26.008        0.040      337.742        9.922      860.308
03/03/2014  20:54:00     -113.050      -13.796        6.174       65.341       50.681       30.211     4269.422     2568.588      912.692        1.038        0.388      113.889       34.431        0.091      337.739        9.917      860.307
03/03/2014  20:55:00      -62.620        2.273       13.977       70.714       33.977       24.683     5000.517     1154.453      609.265        0.544        0.338       62.661       32.538        0.270      337.926       10.231      860.312
03/03/2014  20:56:00       -1.110      -54.134       12.805       29.908       34.394       20.937      894.514     1182.933      438.343        0.281        0.126       54.145       12.837        0.056      337.856       10.112      860.339
03/03/2014  20:57:00     -118.906      -81.632        5.409       57.910       51.365       27.170     3353.571     2638.326      738.197        1.378        0.337      144.231       26.160        0.033      337.775        9.976      860.353
03/03/2014  20:58:00     -141.694      -39.866      -25.374       79.109       47.952       25.366     6258.238     2299.353      643.445        1.575        0.460      147.196       20.616        0.020      337.642        9.751      860.365
03/03/2014  20:59:00        1.148       38.602       44.161       61.338       26.082       20.608     3762.410      680.279      424.707        0.415        0.243       38.619       12.949        0.112      337.710        9.868      860.354
03/03/2014  21:00:00      -33.721       11.638       18.328       49.947       19.969       27.320     2494.699      398.754      746.386        0.262        0.182       35.673       34.061        0.912      337.674        9.806      860.362
03/03/2014  21:01:00        4.892       30.627       22.552       40.300       23.515       18.287     1624.095      552.939      334.432        0.199        0.126       31.015       17.435        0.316      337.732        9.905      860.356
03/03/2014  21:02:00       -2.592        9.711       15.798       28.774       20.713       24.527      827.970      429.017      601.596        0.110        0.093       10.051       18.932        3.548      337.763        9.958      860.384
03/03/2014  21:03:00        5.199      -74.842       19.131       60.559       49.532       41.419     3667.447     2453.444     1715.572        0.691        0.392       75.022       18.749        0.062      337.864       10.127      860.411
03/03/2014  21:04:00      -42.537      -64.772       17.546      108.807       67.776       40.766    11838.863     4593.533     1661.854        1.220        0.905       77.490       41.374        0.285      337.714        9.875      860.416
03/03/2014  21:05:00      -83.643      -27.103       -5.408       76.973       57.207       28.703     5924.776     3272.680      823.888        0.889        0.501       87.925       24.523        0.078      337.564        9.622      860.440
03/03/2014  21:06:00        1.912       -4.624       18.477       23.969       27.681       23.947      574.490      766.252      573.470        0.114        0.096        5.004       17.534       12.279      337.661        9.786      860.434
03/03/2014  21:07:00     -101.393     -137.143       -2.452       95.487       84.142       39.636     9117.835     7079.880     1570.995        2.343        0.888      170.554       37.142        0.047      337.557        9.608      860.461
03/03/2014  21:08:00      -96.849     -126.134       23.914       99.011       86.184       54.224     9803.268     7427.728     2940.251        2.301        1.009      159.027       57.764        0.132      337.555        9.606      860.477
03/03/2014  21:09:00     -147.087     -129.542       -1.652       78.859       86.748       40.110     6218.683     7525.240     1608.799        2.688        0.768      195.999       44.669        0.052      337.523        9.551      860.491
03/03/2014  21:10:00     -149.764     -104.487        3.542      171.835      100.625       64.007    29527.252    10125.455     4096.884        3.855        2.187      182.611       83.881        0.211      337.522        9.551      860.485
03/03/2014  21:11:00     -310.130      -72.584      -16.500      113.992      100.288       53.763    12994.151    10057.688     2890.503        6.383        1.297      318.511       56.662        0.032      337.486        9.490      860.461
03/03/2014  21:12:00     -110.405      -15.870       -4.676       92.082       54.991       39.422     8479.026     3024.000     1554.057        1.276        0.653      111.540       33.888        0.092      337.593        9.670      860.449
03/03/2014  21:13:00      -62.461     -112.370       -6.812       30.537       66.166       19.503      932.483     4377.910      380.360        1.113        0.285      128.563       17.452        0.018      337.511        9.534      860.441
03/03/2014  21:14:00      -16.868      -91.448        0.913       22.900       25.145       16.890      524.425      632.271      285.269        0.504        0.072       92.990        8.369        0.008      337.566        9.627      860.430
03/03/2014  21:15:00      -65.323      -96.040        7.288       67.826       70.613       42.561     4600.367     4986.218     1811.411        1.247        0.570      116.150       41.403        0.127      337.575        9.640      860.444
03/03/2014  21:16:00      -75.340      -29.624        6.870      132.502       77.740       53.818    17556.756     6043.529     2896.390        1.654        1.325       80.955       66.661        0.678      337.531        9.567      860.432
03/03/2014  21:17:00     -166.495      -47.845       14.800      115.606       91.689       55.220    13364.856     8406.943     3049.244        2.752        1.241      173.233       52.578        0.092      337.493        9.503      860.431
03/03/2014  21:18:00     -116.513     -109.790       14.236      107.350       78.507       54.202    11523.964     6163.294     2937.884        2.323        1.031      160.091       51.438        0.103      337.488        9.495      860.442
03/03/2014  21:19:00     -141.023     -173.187        1.124      121.579       87.059       55.370    14781.413     7579.341     3065.785        3.765        1.271      223.341       58.832        0.069      337.459        9.443      860.477
03/03/2014  21:20:00     -121.659     -111.930      -19.175       73.569       78.425       31.615     5412.413     6150.540      999.526        2.013        0.628      165.315        5.587        0.001      337.495        9.505      860.511
03/03/2014  21:21:00     -110.159      -90.428        5.511       82.109       75.285       38.119     6741.879     5667.798     1453.060        1.710        0.693      142.521       31.866        0.050      337.527        9.557      860.538
03/03/2014  21:22:00     -219.542     -162.273      -14.255      113.690      106.638       49.515    12925.427    11371.688     2451.687        5.074        1.337      273.004       49.567        0.033      337.499        9.510      860.576
03/03/2014  21:23:00     -237.086     -159.522      -12.539      142.047      115.044       62.714    20177.299    13235.225     3933.089        5.957        1.867      285.757       49.002        0.029      337.471        9.465      860.629
03/03/2014  21:24:00     -221.906     -159.741       -3.324      126.457      117.086       59.682    15991.308    13709.214     3561.950        5.401        1.663      273.422       66.666        0.059      337.460        9.446      860.648
03/03/2014  21:25:00     -210.677     -247.995       -4.222      163.187      117.476       70.834    26630.012    13800.705     5017.479        7.567        2.272      325.402       76.854        0.056      337.439        9.411      860.640
03/03/2014  21:26:00     -199.883     -101.394       -5.745       98.874      101.062       44.863     9776.100    10213.610     2012.728        3.613        1.100      224.129       45.440        0.041      337.418        9.378      860.606
03/03/2014  21:27:00      -41.683     -114.677       10.259       79.439       73.351       33.394     6310.491     5380.395     1115.164        1.390        0.640      122.017       35.607        0.085      337.460        9.448      860.582
03/03/2014  21:28:00     -112.628     -140.014       15.343      139.870      101.305       57.268    19563.662    10262.691     3279.672        3.281        1.655      179.692       63.820        0.126      337.453        9.435      860.634
03/03/2014  21:29:00     -233.015     -142.620        7.519      136.680       78.323       63.867    18681.516     6134.481     4079.022        5.179        1.445      273.196       67.503        0.061      337.385        9.319      860.635
03/03/2014  21:30:00     -153.201     -170.119        2.386      105.093       88.682       58.727    11044.531     7864.412     3448.815        3.738        1.118      228.934       56.785        0.062      337.416        9.371      860.633
03/03/2014  21:31:00     -166.732     -135.437      -12.648       71.587       83.972       39.823     5124.652     7051.281     1585.878        3.003        0.688      214.809       38.486        0.032      337.384        9.320      860.593
03/03/2014  21:32:00     -167.922     -189.212       -5.375       99.008       82.321       48.982     9802.603     6776.686     2399.246        4.150        0.949      252.980       49.842        0.039      337.402        9.350      860.558
03/03/2014  21:33:00     -193.876     -128.643       -6.475       92.673       68.399       58.326     8588.352     4678.369     3401.905        3.542        0.833      232.673       56.144        0.058      337.380        9.311      860.556
03/03/2014  21:34:00     -201.347     -113.682      -14.817       78.649       67.173       41.628     6185.644     4512.277     1732.850        3.306        0.622      231.223       23.700        0.011      337.386        9.322      860.543
03/03/2014  21:35:00     -204.719      -10.311      -10.997      111.923       60.727       44.662    12526.778     3687.809     1994.653        3.017        0.910      204.978       51.294        0.063      337.395        9.337      860.527
03/03/2014  21:36:00      -15.409      -44.707       18.102       61.994       90.624       36.388     3843.280     8212.672     1324.074        0.797        0.669       47.288       40.471        0.732      337.505        9.524      860.479
03/03/2014  21:37:00     -115.114      -96.985        6.798       96.867       90.962       46.133     9383.232     8274.003     2128.270        2.124        0.989      150.524       47.000        0.097      337.445        9.423      860.481
03/03/2014  21:38:00     -189.061     -135.237       -6.933      143.285      107.185       70.818    20530.650    11488.576     5015.181        4.555        1.852      232.451       68.789        0.088      337.377        9.306      860.525
03/03/2014  21:39:00     -192.959     -147.394       -2.497      116.653      104.748       61.961    13607.807    10972.140     3839.178        4.369        1.421      242.812       59.107        0.059      337.360        9.279      860.560
03/03/2014  21:40:00     -115.116     -115.480       14.910      114.188      106.854       61.674    13038.943    11417.677     3803.629        2.753        1.413      163.056       60.013        0.135      337.390        9.328      860.546
03/03/2014  21:41:00     -250.298     -172.701      -12.667      135.036      109.475       69.194    18234.850    11984.875     4787.768        6.382        1.750      304.097       72.148        0.056      337.356        9.271      860.492
03/03/2014  21:42:00     -372.584        6.990      -26.488      167.769      126.587       52.840    28146.369    16024.337     2792.055        9.326        2.348      372.650       44.626        0.014      337.370        9.295      860.445
03/03/2014  21:43:00     -200.469      -99.655      -11.349      127.248       80.245       42.653    16191.947     6439.312     1819.288        3.735        1.223      223.873       47.266        0.045      337.386        9.322      860.452
03/03/2014  21:44:00     -176.505      -82.275       12.812      161.242      129.526       55.448    25999.044    16777.090     3074.427        4.196        2.293      194.739       64.079        0.108      337.381        9.314      860.454
03/03/2014  21:45:00     -205.577      -77.535       -8.941      128.281       88.890       60.028    16455.889     7901.450     3603.368        3.815        1.398      219.713       73.216        0.111      337.353        9.267      860.476
03/03/2014  21:46:00      -85.902      -46.538        5.600       93.666      102.790       48.410     8773.368    10565.782     2343.574        1.563        1.084       97.698       57.882        0.351      337.391        9.331      860.484
03/03/2014  21:47:00     -236.219      -93.408       -3.661       98.386       79.404       47.166     9679.785     6305.050     2224.657        4.137        0.910      254.017       51.948        0.042      337.335        9.235      860.471
03/03/2014  21:48:00     -117.671      -62.960        0.558       94.867       60.447       44.748     8999.660     3653.882     2002.342        1.623        0.733      133.456       56.532        0.179      337.367        9.292      860.463
03/03/2014  21:49:00     -142.806      -69.833       -5.571       87.034       69.211       36.801     7574.917     4790.108     1354.319        1.951        0.686      158.966       38.480        0.059      337.353        9.268      860.488
03/03/2014  21:50:00     -147.833      -87.380       -1.136       58.512       77.643       38.866     3423.667     6028.428     1510.573        2.023        0.548      171.726       35.545        0.043      337.360        9.280      860.513
03/03/2014  21:51:00     -272.570      -88.276      -26.815      116.226       78.977       46.683    13508.452     6237.329     2179.287        5.236        1.096      286.509       47.856        0.028      337.345        9.252      860.540
03/03/2014  21:52:00      -89.976        4.036       24.713       90.016       63.494       45.831     8102.938     4031.458     2100.482        1.148        0.712       90.067       49.707        0.305      337.544        9.589      860.575
03/03/2014  21:53:00     -155.122      -61.106       -3.600      108.134       78.364       42.860    11693.007     6140.874     1836.968        2.374        0.984      166.724       55.540        0.111      337.375        9.304      860.628
03/03/2014  21:54:00     -248.013      -75.859      -10.053      143.247       79.597       53.378    20519.839     6335.720     2849.160        4.853        1.485      259.355       61.142        0.056      337.350        9.261      860.638
03/03/2014  21:55:00      -74.021      -38.915       28.266       84.202       64.097       53.813     7090.050     4108.462     2895.804        1.094        0.705       83.627       52.613        0.396      337.387        9.327      860.642
03/03/2014  21:56:00     -360.644      -29.829      -15.822      147.569      121.265       57.629    21776.470    14705.141     3321.141        8.550        1.990      361.876       62.081        0.029      337.351        9.265      860.658
03/03/2014  21:57:00     -135.759     -111.408       10.715      112.374      103.026       67.158    12627.993    10614.397     4510.213        2.935        1.388      175.620       61.453        0.122      337.334        9.235      860.672
03/03/2014  21:58:00     -353.464      -61.768      -10.367      172.386      101.690       62.011    29716.814    10340.931     3845.355        8.637        2.195      358.821       60.148        0.028      337.306        9.188      860.694
03/03/2014  21:59:00     -265.996       -1.131       -6.366      100.939       67.191       55.425    10188.682     4514.570     3071.959        4.428        0.889      265.998       57.479        0.047      337.346        9.253      860.666
03/03/2014  22:00:00     -226.889      -85.578       -2.655      143.117       86.982       57.565    20482.362     7565.784     3313.724        4.508        1.568      242.491       63.630        0.069      337.344        9.251      860.652
03/03/2014  22:01:00     -192.397      -37.657       -9.830      140.786       85.769       50.312    19820.833     7356.267     2531.315        3.411        1.485      196.048       51.582        0.069      337.397        9.342      860.621
03/03/2014  22:02:00     -313.160      -46.449      -20.777       96.453       77.023       50.282     9303.249     5932.502     2528.302        5.921        0.888      316.586       50.012        0.025      337.350        9.261      860.601
03/03/2014  22:03:00     -400.964     -153.984      -12.531      191.851      147.165       69.904    36806.661    21657.629     4886.633       12.398        3.168      429.515       85.017        0.039      337.289        9.161      860.562
03/03/2014  22:04:00     -215.945      -37.268       13.212      143.310      112.726       65.659    20537.866    12707.107     4311.044        4.287        1.878      219.137       69.746        0.101      337.322        9.216      860.536
03/03/2014  22:05:00     -235.721      -52.651       -3.131      172.270      115.611       75.762    29677.054    13365.809     5739.839        5.356        2.439      241.530       83.066        0.118      337.356        9.272      860.506
03/03/2014  22:06:00     -277.288      -27.727       -1.565      108.565      100.777       62.304    11786.410    10156.013     3881.735        5.174        1.291      278.671       63.721        0.052      337.274        9.134      860.513
03/03/2014  22:07:00     -224.002     -153.031       -8.911      119.173      128.205       71.650    14202.308    16436.518     5133.718        5.472        1.789      271.284       65.819        0.059      337.279        9.144      860.505
03/03/2014  22:08:00     -229.912     -148.134       -3.908      111.633       94.421       48.818    12461.946     8915.313     2383.170        4.929        1.188      273.502       42.444        0.024      337.300        9.179      860.508
03/03/2014  22:09:00     -222.685     -162.546      -19.171      124.493      119.498       70.837    15498.400    14279.722     5017.863        5.558        1.740      275.699       79.459        0.083      337.292        9.165      860.506
03/03/2014  22:10:00     -177.417     -112.433       18.908      152.452      114.034       70.631    23241.736    13003.794     4988.750        4.285        2.062      210.043       79.544        0.143      337.307        9.190      860.574
03/03/2014  22:11:00     -142.053     -112.956       -8.388      120.833       79.066       53.263    14600.679     6251.394     2836.908        2.834        1.184      181.489       51.287        0.080      337.336        9.238      860.606
03/03/2014  22:12:00     -130.353     -143.176      -15.844       77.021       61.417       44.764     5932.179     3772.000     2003.791        2.472        0.585      193.627       42.488        0.048      337.323        9.217      860.605
03/03/2014  22:13:00      -75.123     -117.208       -6.150       42.959       45.619       28.399     1845.478     2081.077      806.512        1.208        0.237      139.216       25.503        0.034      337.376        9.307      860.613
03/03/2014  22:14:00     -143.413      -92.320      -11.395       73.067       87.156       38.168     5338.740     7596.143     1456.770        2.180        0.720      170.559       31.823        0.035      337.355        9.271      860.619
03/03/2014  22:15:00      -63.320      -68.792        9.998       74.614       57.744       36.853     5567.202     3334.371     1358.130        0.955        0.513       93.498       32.697        0.122      337.401        9.350      860.635
03/03/2014  22:16:00      -35.422     -106.027        0.382       60.256       63.864       43.021     3630.839     4078.596     1850.806        1.103        0.478      111.788       28.647        0.066      337.342        9.251      860.641
03/03/2014  22:17:00      -56.046      -40.660       -3.401       72.495       69.340       33.039     5255.468     4808.104     1091.559        0.798        0.558       69.241       44.555        0.414      337.465        9.456      860.633
03/03/2014  22:18:00      -62.045      -74.983       -9.813       71.537       52.742       25.798     5117.509     2781.680      665.533        0.907        0.428       97.324       25.227        0.067      337.355        9.273      860.637
03/03/2014  22:19:00      -79.981      -45.362        7.638       54.022       49.441       24.875     2918.404     2444.457      618.790        0.725        0.299       91.949       21.549        0.055      337.356        9.275      860.639
03/03/2014  22:20:00     -106.362        0.904       -3.670       40.811       43.600       29.388     1665.546     1900.955      863.633        0.788        0.222      106.366       25.249        0.056      337.420        9.382      860.638
03/03/2014  22:21:00      -43.315      -78.957        0.697       31.575       43.664       21.736      996.995     1906.574      472.445        0.574        0.169       90.058       20.400        0.051      337.341        9.250      860.664
03/03/2014  22:22:00      -49.204      -33.873        5.553       28.067       38.348       22.787      787.743     1470.585      519.261        0.319        0.139       59.736       20.123        0.113      337.352        9.268      860.673
03/03/2014  22:23:00      -36.676      -33.794       -4.620       27.782       20.550       17.940      771.848      422.295      321.833        0.201        0.076       49.871       17.299        0.120      337.386        9.326      860.663
03/03/2014  22:24:00        4.469        3.077       11.555       11.982       13.092        8.762      143.561      171.411       76.768        0.028        0.020        5.426        6.050        1.244      337.423        9.386      860.630
03/03/2014  22:25:00      -19.211       13.895      -11.709       21.306       15.848       13.170      453.954      251.159      173.450        0.079        0.044       23.710        6.089        0.066      337.458        9.444      860.609
03/03/2014  22:26:00      -97.673      -27.738       -2.116       43.596       22.079       14.853     1900.623      487.484      220.613        0.646        0.130      101.535       13.473        0.018      337.349        9.262      860.620
03/03/2014  22:27:00      -35.152      -63.732        8.987       44.991       49.581       30.962     2024.157     2458.273      958.665        0.541        0.272       72.783       28.277        0.151      337.337        9.245      860.667
03/03/2014  22:28:00      -62.884      -91.136        3.631       95.960       54.138       43.319     9208.389     2930.909     1876.559        1.314        0.701      110.725       44.235        0.160      337.292        9.168      860.702
03/03/2014  22:29:00     -196.254      -85.654       -9.920      125.513       84.089       44.276    15753.389     7070.929     1960.393        3.536        1.239      214.131       47.796        0.050      337.267        9.125      860.722
03/03/2014  22:30:00      -50.839      -38.394        0.282       52.965       60.032       28.611     2805.325     3603.876      818.589        0.564        0.361       63.708       12.238        0.037      337.373        9.303      860.710
03/03/2014  22:31:00      -99.613      -24.440       -4.714       55.832       56.774       23.088     3117.248     3223.280      533.071        0.871        0.344      102.567       15.627        0.023      337.372        9.303      860.686
03/03/2014  22:32:00     -138.674      -34.967        8.509       84.856       54.537       41.237     7200.522     2974.289     1700.498        1.620        0.594      143.014       46.223        0.104      337.337        9.241      860.676
03/03/2014  22:33:00     -144.213      -55.033        3.953       57.182       67.231       39.635     3269.786     4520.036     1570.935        1.660        0.468      154.356       36.922        0.057      337.321        9.216      860.672
03/03/2014  22:34:00     -175.544     -112.097      -12.333       91.533       69.251       44.433     8378.201     4795.661     1974.292        2.934        0.757      208.282       50.638        0.059      337.259        9.111      860.662
03/03/2014  22:35:00     -105.315      -56.125       11.643       84.441       85.131       51.081     7130.238     7247.276     2609.272        1.568        0.849      119.337       42.223        0.125      337.273        9.134      860.650
03/03/2014  22:36:00      -29.820      -24.457       30.839       52.345       85.756       46.875     2739.963     7354.117     2197.312        0.736        0.615       38.567       42.458        1.212      337.277        9.141      860.631
03/03/2014  22:37:00     -100.812      -17.724       -9.507       62.731       53.428       33.771     3935.162     2854.534     1140.482        0.925        0.397      102.358       31.160        0.093      337.437        9.409      860.586
03/03/2014  22:38:00     -137.622     -138.019       -2.518       77.569       86.993       41.468     6016.934     7567.724     1719.610        2.665        0.765      194.908       45.830        0.055      337.279        9.145      860.542
03/03/2014  22:39:00     -154.227      -50.120       -1.212       66.294       83.028       44.467     4394.948     6893.654     1977.337        1.978        0.663      162.166       30.865        0.036      337.253        9.100      860.505
03/03/2014  22:40:00     -148.739      -81.775      -15.107       94.697       87.000       50.702     8967.510     7568.977     2570.735        2.407        0.955      169.736       36.822        0.047      337.279        9.144      860.499
03/03/2014  22:41:00     -230.082     -113.861        0.515      114.699      109.144       61.515    13155.758    11912.517     3784.049        4.737        1.443      256.714       48.691        0.036      337.292        9.164      860.508
03/03/2014  22:42:00     -214.688     -100.271       -2.089      132.328       85.027       58.517    17510.632     7229.593     3424.278        4.215        1.408      236.950       74.012        0.098      337.294        9.167      860.511
03/03/2014  22:43:00     -171.645      -31.537       11.136      136.389      103.817       64.142    18602.092    10778.008     4114.179        3.203        1.675      174.519       75.193        0.186      337.310        9.196      860.539
03/03/2014  22:44:00     -287.799       12.726       -8.784      129.217       99.338       72.371    16696.995     9868.072     5237.541        5.743        1.590      288.080       73.103        0.064      337.353        9.267      860.539
03/03/2014  22:45:00     -412.818      -24.348      -17.029      119.564       87.088       61.575    14295.658     7584.329     3791.473        9.848        1.284      413.536       58.854        0.020      337.250        9.096      860.555
03/03/2014  22:46:00     -476.563      -38.471      -32.326      118.792      106.469       57.207    14111.484    11335.701     3272.692       12.917        1.436      478.113       52.799        0.012      337.229        9.059      860.553
03/03/2014  22:47:00     -272.550      -15.987       -1.648      130.838       97.921       64.462    17118.691     9588.524     4155.335        5.270        1.543      273.019       66.833        0.060      337.305        9.189      860.553
03/03/2014  22:48:00     -300.349      -71.085      -10.928      144.956      127.412       62.510    21012.338    16233.930     3907.544        6.826        2.058      308.646       65.922        0.046      337.291        9.164      860.552
03/03/2014  22:49:00     -262.165      -55.497      -12.227      167.868      113.100       78.412    28179.757    12791.535     6148.396        5.953        2.356      267.974       84.551        0.100      337.246        9.089      860.541
03/03/2014  22:50:00     -266.458      -30.226       -5.317      114.982       95.924       63.233    13220.783     9201.417     3998.419        4.918        1.321      268.167       52.417        0.038      337.270        9.128      860.550
03/03/2014  22:51:00     -172.937      -23.314       -4.539       97.442       87.874       41.178     9494.990     7721.821     1695.658        2.469        0.946      174.501       44.791        0.066      337.319        9.210      860.516
03/03/2014  22:52:00     -289.175      -97.807        1.243      111.382      136.541       69.142    12405.846    18643.527     4780.610        6.450        1.791      305.268       68.006        0.050      337.239        9.075      860.454
03/03/2014  22:53:00     -235.565     -117.237       -3.185      137.395       97.940       66.741    18877.416     9592.161     4454.360        5.108        1.646      263.127       73.896        0.079      337.232        9.066      860.480
03/03/2014  22:54:00     -145.326      -66.640       16.936      115.923      112.507       55.347    13438.085    12657.837     3063.339        2.750        1.458      159.877       57.490        0.129      337.261        9.115      860.469
03/03/2014  22:55:00     -242.695      -76.116       -6.101      195.107      135.657       71.281    38066.669    18402.717     5080.971        6.313        3.078      254.351       81.279        0.102      337.299        9.177      860.453
03/03/2014  22:56:00     -171.765      -69.024        9.869      120.862      126.209       52.333    14607.637    15928.652     2738.720        3.381        1.664      185.115       56.461        0.093      337.306        9.190      860.419
03/03/2014  22:57:00     -114.476        2.426       18.753      136.584       58.233       56.347    18655.093     3391.106     3174.962        1.934        1.261      114.502       66.029        0.333      337.317        9.209      860.439
03/03/2014  22:58:00      -55.399      -61.133       13.199       87.939       96.923       43.086     7733.193     9394.073     1856.415        1.298        0.949       82.500       49.477        0.360      337.379        9.313      860.430
03/03/2014  22:59:00     -138.184      -36.717       -1.313       85.430       79.362       50.389     7298.218     6298.249     2539.100        1.829        0.807      142.979       49.082        0.118      337.308        9.193      860.454
03/03/2014  23:00:00     -105.439      -74.804       11.074      135.367       94.349       56.042    18324.185     8901.804     3140.745        2.360        1.518      129.278       66.635        0.266      337.325        9.222      860.459
03/03/2014  23:01:00     -135.410      -91.683       14.748      135.790      110.090       50.283    18439.044    12119.825     2528.415        3.002        1.654      163.529       49.222        0.091      337.235        9.071      860.446
03/03/2014  23:02:00     -162.170     -102.418       15.443      173.424      110.701       63.824    30076.038    12254.652     4073.499        4.171        2.320      191.804       83.299        0.189      337.262        9.116      860.387
03/03/2014  23:03:00     -304.425     -124.181      -16.222      154.514      105.518       61.274    23874.602    11133.998     3754.453        7.355        1.938      328.778       69.744        0.045      337.197        9.006      860.384
03/03/2014  23:04:00     -345.138      -43.178       -0.557      154.891      118.320       74.797    23991.312    13999.595     5594.572        8.228        2.179      347.828       80.839        0.054      337.200        9.011      860.358
03/03/2014  23:05:00     -208.797      -86.996        5.662      175.869      160.036       64.560    30930.064    25611.608     4168.054        5.594        3.035      226.196       75.057        0.110      337.253        9.101      860.376
03/03/2014  23:06:00     -148.604      -42.720       -2.677      147.228       75.609       55.048    21676.035     5716.696     3030.325        2.716        1.521      154.622       44.011        0.081      337.215        9.038      860.381
03/03/2014  23:07:00     -184.905      -44.106        4.146      141.661       94.763       67.215    20067.718     8979.970     4517.825        3.485        1.678      190.093       66.882        0.124      337.222        9.050      860.366
03/03/2014  23:08:00     -296.213     -157.043      -11.688      113.624       96.387       65.072    12910.447     9290.478     4234.415        6.948        1.322      335.268       64.407        0.037      337.147        8.924      860.340
03/03/2014  23:09:00     -151.759      -71.498        6.286      110.486       91.986       59.363    12207.132     8461.513     3523.915        2.618        1.210      167.758       55.731        0.110      337.163        8.950      860.347
03/03/2014  23:10:00     -132.618     -131.431       -1.198      110.401      108.149       41.825    12188.290    11696.213     1749.302        3.024        1.282      186.713       47.326        0.064      337.179        8.977      860.355
03/03/2014  23:11:00     -359.117     -169.175      -17.937      178.336      101.440       68.722    31803.888    10290.161     4722.762       10.235        2.341      396.970       72.625        0.033      337.149        8.925      860.322
03/03/2014  23:12:00     -216.241     -115.276      -17.767      124.473       77.030       50.909    15493.596     5933.631     2591.708        4.219        1.201      245.048       53.873        0.048      337.147        8.921      860.296
03/03/2014  23:13:00     -139.321      -41.133      -14.169       72.531       69.421       33.418     5260.787     4819.232     1116.770        1.625        0.560      145.266       21.192        0.021      337.129        8.893      860.263
03/03/2014  23:14:00     -128.987      -39.070      -20.111      140.524      114.325       47.261    19746.929    13070.270     2233.648        2.680        1.753      134.775       50.386        0.140      337.183        8.984      860.252
03/03/2014  23:15:00     -111.434     -101.000        0.285       90.648       95.513       52.698     8217.071     9122.751     2777.048        2.136        1.006      150.395       49.778        0.110      337.135        8.903      860.279
03/03/2014  23:16:00     -109.038      -67.354       11.712      125.229       69.052       55.982    15682.373     4768.234     3133.958        2.007        1.179      128.164       59.898        0.218      337.152        8.933      860.255
03/03/2014  23:17:00     -203.859     -222.460      -23.247      106.980       98.308       50.624    11444.751     9664.508     2562.790        5.763        1.184      301.740       61.788        0.042      337.111        8.862      860.241
03/03/2014  23:18:00     -165.746     -170.482       -7.726      116.707       82.430       53.133    13620.530     6794.733     2823.077        3.991        1.162      237.773       38.293        0.026      337.115        8.868      860.253
03/03/2014  23:19:00     -204.037     -151.054      -19.079      151.457      105.435       46.493    22939.305    11116.572     2161.606        5.051        1.811      253.867       38.311        0.023      337.134        8.900      860.274
03/03/2014  23:20:00      -91.874     -129.799       -1.226       94.558       80.825       51.579     8941.285     6532.606     2660.388        2.171        0.907      159.024       46.561        0.086      337.126        8.887      860.284
03/03/2014  23:21:00      -54.378     -120.213        9.179       65.192       52.545       41.985     4250.056     2761.026     1762.744        1.313        0.439      131.940       32.086        0.059      337.158        8.944      860.343
03/03/2014  23:22:00      -51.651     -127.522      -10.366      109.012      109.479       61.413    11883.677    11985.760     3771.589        2.333        1.382      137.585       40.166        0.085      337.183        8.983      860.374
03/03/2014  23:23:00      -69.815     -115.102       19.353       73.461       91.638       48.572     5396.505     8397.605     2359.192        1.732        0.808      134.621       51.492        0.146      337.180        8.978      860.404
03/03/2014  23:24:00      -86.457     -139.095       -2.347       74.669      110.077       50.572     5575.459    12116.954     2557.504        2.354        1.012      163.775       56.069        0.117      337.280        9.145      860.396
03/03/2014  23:25:00      -69.191      -99.944      -10.259       56.674       45.806       33.272     3211.980     2098.184     1107.021        1.065        0.321      121.558       26.147        0.046      337.251        9.098      860.414
03/03/2014  23:26:00      -57.016      -56.278       -3.524       65.658       52.517       31.792     4311.036     2758.027     1010.735        0.725        0.404       80.113       20.635        0.066      337.190        8.998      860.438
03/03/2014  23:27:00     -130.920      -42.930       -4.107       39.000       46.127       26.498     1520.985     2127.655      702.141        1.167        0.218      137.778       16.150        0.014      337.141        8.915      860.457
03/03/2014  23:28:00      -61.749     -112.120       -1.462       60.571       71.369       30.535     3668.831     5093.526      932.374        1.304        0.485      128.000       23.138        0.033      337.209        9.028      860.458
03/03/2014  23:29:00      -19.034      -99.575       -1.290       50.539       53.859       29.789     2554.168     2900.750      887.398        0.831        0.317      101.378       19.901        0.039      337.188        8.992      860.457
03/03/2014  23:30:00     -112.501     -121.396       -8.681       74.359       60.970       34.203     5529.281     3717.307     1169.870        1.894        0.521      165.510       30.300        0.034      337.144        8.915      860.443
03/03/2014  23:31:00     -107.022     -180.883      -13.992       56.941       54.588       33.189     3242.309     2979.807     1101.493        2.584        0.366      210.172       26.978        0.016      337.088        8.824      860.443
03/03/2014  23:32:00     -119.319     -218.046       -6.130       66.132       88.928       30.995     4373.480     7908.152      960.686        3.753        0.662      248.558       28.627        0.013      337.075        8.800      860.482
03/03/2014  23:33:00      -25.110      -84.421        7.560       73.663       63.528       32.223     5426.195     4035.807     1038.329        0.916        0.525       88.076       36.176        0.169      337.209        9.028      860.498
03/03/2014  23:34:00       27.789      -22.641       16.522       50.343       31.134       23.012     2534.440      969.302      529.553        0.279        0.202       35.845       25.231        0.495      337.257        9.111      860.519
03/03/2014  23:35:00      -28.029      -23.224       14.720       21.052       29.976       22.717      443.189      898.581      516.061        0.170        0.093       36.400       17.136        0.222      337.242        9.086      860.533
03/03/2014  23:36:00      -54.912      -52.761        1.313       61.336       40.459       28.932     3762.108     1636.945      837.086        0.602        0.312       76.152       30.452        0.160      337.223        9.054      860.523
03/03/2014  23:37:00       16.553      -68.070      -17.964       54.480       50.904       33.206     2968.043     2591.187     1102.627        0.594        0.333       70.054       21.271        0.092      337.305        9.190      860.486
03/03/2014  23:38:00       22.809       49.111       33.750       34.271       28.125       27.963     1174.497      791.041      781.948        0.341        0.137       54.149       13.095        0.058      337.156        8.940      860.425
03/03/2014  23:39:00      -61.025      -27.367       12.037       49.472       40.494       31.732     2447.519     1639.783     1006.908        0.486        0.255       66.880       38.283        0.328      337.209        9.029      860.382
03/03/2014  23:40:00      -94.032      -57.276        7.550       68.733       43.707       26.167     4724.183     1910.317      684.729        0.975        0.366      110.103       26.266        0.057      337.129        8.894      860.360
03/03/2014  23:41:00     -160.429      -85.316       -4.509       46.842       39.736       23.425     2194.176     1578.912      548.718        1.868        0.216      181.704       17.837        0.010      337.064        8.783      860.406
03/03/2014  23:42:00     -127.053      -79.107        6.588       61.916       47.695       31.522     3833.621     2274.808      993.664        1.477        0.355      149.668       37.372        0.062      337.071        8.796      860.451
03/03/2014  23:43:00      -61.722      -54.515        4.011       58.995       50.165       33.517     3480.389     2516.511     1123.358        0.696        0.356       82.350       39.109        0.226      337.133        8.901      860.452
03/03/2014  23:44:00      -51.798      -13.056        1.720       35.316       30.893       20.248     1247.233      954.359      409.995        0.273        0.131       53.418       21.841        0.167      337.049        8.760      860.409
03/03/2014  23:45:00      -14.656      -27.695       -1.032       19.949       22.544       20.232      397.943      508.244      409.346        0.115        0.066       31.334       12.585        0.161      337.140        8.913      860.382
03/03/2014  23:46:00       85.861      -79.168       13.941       84.837       76.603       39.265     7197.384     5868.044     1541.735        1.422        0.730      116.789       53.426        0.209      337.164        8.953      860.345
03/03/2014  23:47:00       14.557      -11.014       47.683       35.772      111.278       60.675     1279.627    12382.760     3681.498        0.997        0.867       18.254       75.585       17.146      337.181        8.981      860.310
03/03/2014  23:48:00       69.982     -105.782      -13.834       47.018       48.160       40.436     2210.731     2319.347     1635.083        1.122        0.308      126.836       28.419        0.050      337.238        9.077      860.297
03/03/2014  23:49:00      112.028     -117.840        0.851       83.034       84.729       44.047     6894.674     7179.028     1940.150        2.122        0.801      162.593       54.100        0.111      337.194        9.003      860.297
03/03/2014  23:50:00      -35.337      -67.956        9.005       75.694       53.027       36.441     5729.509     2811.893     1327.912        0.791        0.493       76.594       24.303        0.101      337.245        9.089      860.320
03/03/2014  23:51:00      -50.354      -95.342        1.138       60.569       47.824       32.784     3668.604     2287.099     1074.809        0.933        0.352      107.822       34.446        0.102      337.171        8.965      860.350
03/03/2014  23:52:00     -127.217     -108.192        1.651       65.980       55.093       45.981     4353.361     3035.220     2114.270        1.870        0.475      167.002       28.301        0.029      337.226        9.057      860.349
03/03/2014  23:53:00     -226.453     -110.832      -12.938       96.607       81.106       42.008     9332.944     6578.205     1764.695        4.070        0.884      252.120       51.466        0.042      337.221        9.047      860.361
03/03/2014  23:54:00     -129.132      -71.193       -1.758       77.301       45.089       37.762     5975.409     2033.019     1425.956        1.559        0.472      147.457       43.892        0.089      337.228        9.059      860.370
03/03/2014  23:55:00     -207.560     -137.709       -6.839       89.972       73.889       46.289     8094.985     5459.631     2142.671        3.889        0.785      249.088       36.796        0.022      337.243        9.083      860.340
03/03/2014  23:56:00     -228.019     -111.503      -16.985      107.190       59.934       42.905    11489.687     3592.051     1840.844        4.082        0.846      253.822       46.010        0.033      337.200        9.011      860.295
03/03/2014  23:57:00     -267.063      -69.885       -7.017       89.512       74.204       50.483     8012.372     5506.191     2548.562        4.616        0.803      276.055       39.143        0.020      337.204        9.018      860.263
03/03/2014  23:58:00     -319.507      -95.212       -5.043      138.444       85.206       44.547    19166.612     7260.054     1984.468        6.979        1.421      333.391       56.323        0.029      336.991        8.661      860.277
03/03/2014  23:59:00     -214.729      -12.325       -4.774       90.179       73.019       47.485     8132.337     5331.821     2254.808        3.100        0.786      215.083       49.663        0.053      337.044        8.749      860.259
